     2              OBSERVATION DATA    GPS                 RINEX VERSION / TYPE
teqc 1997Sep28 Duncan Agnew 19980804 19:05:32UTC            PGM / RUN BY / DATE
                                                            COMMENT
Original Marker Name: TWIN                                  COMMENT
Campaign Name: Santa Barbara Channel 93                     COMMENT
4-Character Station Name: TWIN                              COMMENT
6-Character Antenna Code: TRMSST                            COMMENT
Vertical Measurement Point: BGP                             COMMENT
Vertical Offset to Rinex Ref. Point: 0.0597                 COMMENT
Radial Measurement Point: NGP                               COMMENT
Radial Offset to Rinex Ref. Point: 0.2334                   COMMENT
Antenna Height from Field Measurement: 1.0830 m             COMMENT
Original XYZ: 6378335.0000 0.0000 0.0000                    COMMENT
New XYZ position is based on association with SCEC monument COMMENT
E1C7G6C4+0011. Position of that monument is believed to be  COMMENT
valid to within 1 m horizontally; vertical accuracy         COMMENT
should be no worse than 3-times this value.                 COMMENT
                                                            COMMENT
Revised Rinex header created by UCSD GPS archive for        COMMENT
GSAC on 05-Apr-1999 (1999:095) 19:19:30 GMT                 COMMENT
For assistance contact dagnew@ucsd.edu or hjohnson@ucsd.edu COMMENT
                                                            COMMENT
TWIN 1964 SAN NIC. ISL.                                     MARKER NAME
Johnson SCRIPPS INSTITUTE OF OCEANOGRAPHY                   OBSERVER / AGENCY
1051 TRIMBLE 4000 SST NP 4.64; SP 4.20                      REC # / TYPE / VERS
271 TR 4000SST L1/L2 GEO                                    ANT # / TYPE
 -2628131.0000 -4649187.0000  3475596.0000                  APPROX POSITION XYZ
        0.9979        0.0000        0.0000                  ANTENNA: DELTA H/E/N
     1     1     0                                          WAVELENGTH FACT L1/2
     3    C1    L1    L2                                    # / TYPES OF OBSERV
     0                                                      INTERVAL
  1993     9     1     0     1    0.000000                  TIME OF FIRST OBS
  1993     9     1    15     4   60.000000                  TIME OF LAST OBS
     0                                                      # OF SATELLITES
                                                            END OF HEADER
 93  9  1  0  1  0.0000000  0  8G21G 9G 3G31G17G 1G28G23
  20803617.734          -0.72917
  24184899.6484         -0.83655
  24674204.2894         -0.25753
  23460383.2894         -0.11955
  22671415.0004         -0.35856
  21276490.055          -0.70817
  21261496.3594         -0.91557
  21613643.328          -0.70917
 93  9  1  0  1 30.0000000  0  8G21G 9G 3G31G17G 1G28G23
  20796283.4454     -38547.93047        -0.41573
  24175619.875      -48766.243 5        -0.37431
  24692068.6954      93880.46343        -0.45171
  23441453.9384     -99462.15445        -0.45771
  22678917.7274      39423.93246        -0.24271
  21257449.727     -100060.346 7        -0.30233
  21254739.3594     -35506.07147        -0.42973
  21615906.2034      11885.87847        -0.29972
 93  9  1  0  2  0.0000000  0  8G21G 9G 3G31G17G 1G28G23
  20788997.7344     -76843.47947    -29841.10263
  24166427.4534     -97070.04145    -37639.72361
  24709962.6334     187915.24943     73273.16361
  23422615.6174    -198470.35045    -77149.67161
  22686470.0944      79113.64346     30926.74561
  21238496.914     -199657.111 7    -77608.13423
  21248102.1724     -70375.12947    -27171.13563
  21618193.7194      23913.78147      9372.08663
 93  9  1  0  2 30.0000000  0  8G21G 9G 3G31G17G 1G28G23
  20781754.5084    -114897.41147    -59493.50963
  24157320.258     -144917.819 5    -74923.69521
  24727884.258      282094.873 3    146659.66121
  23403859.0554    -297026.42445   -153946.60261
  22694070.6644     119046.87346     62043.47361
  21219629.578     -298805.898 7   -154866.89223
  21241591.3524    -104601.59747    -53841.12363
  21620507.1024      36067.66947     18842.63663
 93  9  1  0  3  0.0000000  0  8G21G 9G 3G31G17G 1G28G23
  20774555.5084    -152729.14147    -88972.77563
  24148302.891     -192320.154 5   -111860.52521
  24745833.5784     376414.41743    220155.10361
  23385189.1954    -395131.21045   -230391.86461
  22701712.023      159207.336 6     93337.28721
  21200846.477     -397509.671 7   -231778.88123
  21235196.9454    -138186.97847    -80011.56663
  21622841.9304      48337.26147     28403.33963
 93  9  1  0  3 30.0000000  0  8G21G 9G 3G31G17G 1G28G23
  20767394.4614    -190364.75247   -118299.22263
  24139366.8204    -239294.71045   -148464.03661
  24763805.844      470862.991 2    293751.11621
  23366609.0864    -492781.86645   -306483.28261
  22709395.2274     199587.23446    124802.07061
  21182148.266     -495772.544 7   -308347.32023
  21228925.4844    -171150.99047   -105697.82663
  21625194.5944      60702.47247     38038.55063
 93  9  1  0  4  0.0000000  0  8G21G 9G 3G31G17G 1G28G23
  20760270.3134    -227791.39847   -147462.83663
  24130509.5004    -285823.60945   -184720.25861
  24781808.5784     565447.51243    367453.09461
  23348112.6254    -589966.54145   -382211.56661
  22717125.2344     240203.64746    156451.16561
  21163533.609     -593588.493 7   -384567.50223
  21222774.7664    -203486.55947   -130894.39063
  21627565.4924      73155.89047     47742.49663
 93  9  1  0  4 30.0000000  0  8G21G 9G 3G31G17G 1G28G23
  20753188.2114    -265021.15047   -176473.02663
  24121738.930     -331903.954 5   -220626.98421
  24799831.195      660156.835 2    441252.27121
  23329706.6174    -686709.87145   -457595.96461
  22724899.7424     281057.20946    188285.04561
  21145000.797     -690983.788 7   -460459.90323
  21216735.8364    -235206.98147   -155611.62063
  21629952.7664      85698.84047     57516.20463
 93  9  1  0  5  0.0000000  0  8G21G 9G 3G31G17G 1G28G23
  20746142.2344    -302052.74547   -205328.81063
  24113054.406     -377546.529 5   -256192.66721
  24817874.891      754983.418 2    515142.75921
  23311377.3674    -783021.85045   -532644.23561
  22732719.047      322150.220 6    220305.51121
  21126545.391     -787966.048 7   -536030.46223
  21210815.117     -266326.236 7   -179860.41023
  21632358.1884      98342.70647     67368.54562
 93  9  1  0  5 30.0000000  0  8G21G 9G 3G31G17G 1G28G23
  20739139.1884    -338850.05347   -234002.03463
  24104457.297     -422716.858 5   -291390.30021
  24835942.945      849940.642 2    589135.11221
  23293136.594     -878873.399 5   -607333.73621
  22740589.742      363513.294 6    252536.42221
  21108172.031     -884517.493 7   -611265.31423
  21205007.9694    -296835.22747   -203633.67163
  21634786.9064     111107.56947     77315.17863
 93  9  1  0  6  0.0000000  0  8G21G 9G 3G31G17G 1G28G23
  20732179.0164    -375415.56647   -262494.63463
  24095956.5634    -467409.71245   -326215.84361
  24854038.1724     945019.53642    663222.23761
  23274982.508     -974278.363 5   -681675.25221
  22748510.1254     405129.32046    284964.42861
  21089881.773     -980634.824 7   -686161.90123
  21199319.102     -326741.484 7   -226937.27023
  21637239.4844     123994.24647     87356.72162
 93  9  1  0  6 30.0000000  0  8G21G 9G 3G31G17G 1G28G23
  20725266.0704    -411747.88347   -290805.52863
  24087542.172     -511620.737 5   -360665.96921
  24872151.633     1040227.575 2    737410.00921
  23256912.930    -1069233.266 5   -755666.06121
  22756477.2274     447000.96146    317591.62561
  21071678.570    -1076294.174 7   -760701.62023
  21193743.7034    -356032.05347   -249761.10963
  21639720.391      137029.416 7     97513.98323
 93  9  1  0  7  0.0000000  0  8G21G 9G 3G31G17G 1G28G23
  20718396.0314    -447847.68947   -318935.24563
  24079218.5474    -555368.40145   -394755.04061
  24890297.461     1135558.631 3    811693.65421
  23238933.836    -1163715.246 5   -829288.36421
  22764492.477      489121.297 6    350412.59621
  21053563.680    -1171482.182 7   -834874.05723
  21188290.664     -384702.071 7   -272101.40223
  21642224.383      150193.137 7    107771.41122
 93  9  1  0  7 30.0000000  0  8G21G 9G 3G31G17G 1G28G23
  20711569.7974    -483723.42647   -346890.36363
  24070977.9144    -598656.70245   -428486.17261
  24908459.758     1231010.033 3
  23221041.836    -1257720.371 5   -902539.08721
  22772557.2194     531497.82546    383433.19961
  21035542.797    -1266192.941 7   -908674.61624
  21182950.4844    -412756.78947   -293962.24063
  21644751.3364     163472.04547    118118.59562
 93  9  1  0  8  0.0000000  0  8G21G 9G 3G31G17G 1G28G23
  20704783.8364    -519385.91747   -374679.31064
  24062825.492     -641494.184 5   -461866.00021
  24926646.602     1326580.333 3
  23203244.461    -1351266.579 5   -975432.21421
  22780670.6174     574132.42446    416654.89861
  21017611.867    -1360408.190 7   -982089.06323
  21177729.523     -440183.282 7   -315333.55223
  21647300.2344     176867.60647    128556.68062
 93  9  1  0  8 30.0000000  0  8G21G 9G 3G31G17G 1G28G23
  20698036.2974    -554838.46747   -402304.67063
  24054761.1414    -683880.74045   -494894.49361
  24944852.125     1422256.789 3
  23185529.172    -1444349.588 5  -1047964.39721
  22788833.5474     617037.83846    450087.63061
  20999776.688    -1454132.024 7  -1055120.58724
  21172631.5164    -466981.90447   -336215.61363
  21649868.8984     190360.57547    139070.66762
 93  9  1  0  9  0.0000000  0  8G21G 9G 3G31G17G 1G28G23
  20691329.8834    -590078.29747   -429764.27264
  24046783.336     -725802.301 5   -527560.61221
  24963079.070     1518034.774 3
  23167906.781    -1536962.565 5  -1120130.31821
  22797051.9534     660227.47646    483741.81161
  20982037.234    -1547360.363 7  -1127766.01224
  21167651.5164    -493161.20047   -356615.08463
  21652453.3914     203945.34547    149656.18363
 93  9  1  0  9 30.0000000  0  8G21G 9G 3G31G17G 1G28G23
  20684670.2664    -625081.02547   -457039.12364
  24038901.8984    -767220.52145   -559834.52161
  24981329.9924    1613926.44444
  23150373.7584   -1629107.85946  -1191931.82461
  22805329.4064     703720.77746    517632.63661
  20964393.555    -1640069.796 7  -1200007.09424
  21162788.1884    -518702.61347   -376517.50663
  21655060.7974     217647.03947    160332.81362
 93  9  1  0 10  0.0000000  0  8G21G 9G 3G31G17G 1G28G23
  20678053.5084    -659851.57447   -484133.05263
  24031114.4844    -808126.72045   -591709.48461
  24999594.6804    1709920.44544
  23132926.0234   -1720782.81146  -1263366.82061
  22813663.531      747509.964 6    551754.01621
  20946850.102    -1732273.581 7  -1271854.16324
  21158050.969     -543599.836 7   -395917.95923
  21657690.2734     231465.50547    171100.43263
 93  9  1  0 10 30.0000000  0  8G21G 9G 3G31G17G 1G28G23
  20671477.1804    -694412.77047   -511063.85664
  24023430.711     -848531.779 5   -623193.91321
  25017877.711     1805997.625 4        -0.41331
  23115571.992    -1811989.560 6  -1334436.98921
  22822046.2274     791565.54246    586082.95461
  20929391.539    -1824013.556 7  -1343339.82424
  21153432.195     -567873.915 7   -414832.85023
  21660340.8754     245388.97747    181949.87462
 93  9  1  0 11  0.0000000  0  8G21G 9G 3G31G17G 1G28G23
  20664943.7114    -728747.39647   -537818.10563
  24015837.984     -888426.045 5   -654280.35221
  25036178.0554    1902173.89044     74941.87761
  23098305.070    -1902721.323 6  -1405137.03921
  22830479.7344     835883.91546    620616.68561
  20912023.578    -1915283.019 7  -1414458.84824
  21148935.4844    -591507.77447   -433248.86763
  21663014.2424     259442.21047    192900.42962
 93  9  1  0 11 30.0000000  0  8G21G 9G 3G31G17G 1G28G23
  20658450.2584    -762869.05747   -564406.41563
  24008339.0234    -927827.99145   -684983.12461
  25054498.820     1998441.142 4
  23081127.2114   -1992975.14545  -1475464.67061
  22838956.4454     880436.25246    655332.73361
  20894743.273    -2006100.359 7  -1485225.57524
  21144556.3984    -614505.30246   -451169.03563
  21665711.2974     273615.19047    203944.29662
 93  9  1  0 12  0.0000000  0  8G21G 9G 3G31G17G 1G28G23
  20651992.7344    -796796.02447   -590843.00564
  24000930.156     -966752.862 5   -715314.17321
  25072836.3524    2094793.17443        -0.36571
  23064045.875    -2082749.468 6  -1545418.64921
  22847477.7974     925209.67146    690221.04361
  20877541.977    -2096481.377 7  -1555652.30924
  21140298.375     -636890.122 6   -468611.77923
  21668430.3674     287908.45647    215081.88962
 93  9  1  0 12 30.0000000  0  8G21G 9G12G31G17G 1G28G23
  20645579.0004    -830509.99947   -617113.63763
  23993613.703    -1005200.823 5   -745273.61121
  24724156.7504         -0.04753
  23047055.258    -2172039.993 6  -1614995.66221
  22856040.1174     970205.92146    725282.97861
  20860431.078    -2186401.881 7  -1625720.20324
  21136155.7344    -658661.54146   -485576.54663
  21671174.0474     302321.43947    226312.76962
 93  9  1  0 13  0.0000000  0  8G21G 9G12G31G17G 1G28G23
  20639203.5784    -864003.51147   -643212.47764
  23986385.4844   -1043182.51745   -774869.70661
  24707352.6484     -88313.68344
  23030152.422    -2260853.181 6  -1684200.70821
  22864645.8204    1015428.01246    760520.91461
  20843407.609    -2275859.039 7  -1695427.04824
  21132126.9064    -679834.52447   -502074.99263
  21673936.3364     316835.58147    237622.47562
 93  9  1  0 13 30.0000000  0  8G21G 9G12G31G17G 1G28G23
  20632872.2504    -897279.12747   -669141.52463
  23979252.9064   -1080681.59046   -804089.72661
  24690621.2114    -176231.05544
  23013351.625    -2349170.198 6  -1753019.12221
  22873297.3524    1060894.49246    795949.27761
  20826475.172    -2364839.827 7  -1764762.69724
  21128212.1724    -700411.61146   -518109.10363
  21676719.742      331463.636 7    249020.94022
 93  9  1  0 14  0.0000000  0  8G21G 9G12G31G17G 1G28G23
  20626582.3284    -930338.51847   -694902.09063
  23972206.375    -1117693.380 5   -832930.08521
  24673964.6024    -263754.01443        -0.34071
  22996637.211    -2437000.739 6  -1821458.47821
  22881999.328     1106616.938 6    831577.06721
  20809635.453    -2453333.245 7  -1833718.57724
  21124408.9844    -720392.79346   -533678.87363
  21679522.3204     346194.93647    260499.86662
 93  9  1  0 14 29.9990000  0  8G21G 9G12G31G17G 1G28G23
  20620330.9644    -963182.40647   -720494.72463
  23965256.862    -1154218.136 5   -861390.89221
  24657387.730     -350879.605 2
  22980019.269    -2524331.618 6
  22890747.4644    1152591.98946    867401.71361
  20792889.698    -2541331.994 7  -1902288.99724
  21120721.2304    -739768.94746   -548777.19363
  21682341.9874     361008.84947    272043.15162
 93  9  1  0 14 59.9990000  0  8G21G 9G12G31G17G 1G28G23
  20614119.1054    -995831.68947   -745935.72764
  23958401.9014   -1190249.55146   -889467.29861
  24640875.073     -437609.563 1
  22963491.073    -2611163.554 6
  22899546.2374    1198825.99046    903428.13761
  20776237.183    -2628846.174 7  -1970481.83224
  21117152.2844    -758529.15946   -563395.55963
  21685176.980      375912.866 7    283656.65322
 93  9  1  0 15 29.9990000  0  7G21G 9G31G17G 1G28G23
  20607938.5504   -1028309.07947   -771242.78363
  23951637.050    -1225796.503 5   -917166.21721
  22947064.964    -2697505.740 6  -2024449.30521
  22908388.706     1245296.532 6    939638.86221
  20759675.519    -2715873.814 7  -2038295.54724
  21113699.9334    -776664.03746   -577526.65263
  21688029.8944     390901.99447    295336.47962
 93  9  1  0 15 59.9990000  0  8G21G 9G12G31G17G 1G28G23
  20601795.9954   -1060585.30847   -796393.08664
  23944965.894    -1260854.571 5   -944484.13821
  24608100.550          -0.58813
  22930727.550    -2783344.346 6
  22917279.026     1292014.333 6    976042.26821
  20743211.190    -2802397.437 7  -2105716.52424
  21110374.1594    -794147.92646   -591150.47963
  21690901.0734     405989.68147    307093.10062
 93  9  1  0 16 29.9990000  0  8G21G 9G12G31G17G 1G28G23
  20595694.1284   -1092651.51347   -821379.74363
  23938390.487    -1295417.505 5   -971416.27621
  24591828.9094     -85516.81343        -0.21571
  22914492.394    -2868670.934 6  -2157824.74621
  22926215.1124    1338979.05045   1012638.09061
  20726838.565    -2888430.496 7  -2172755.24624
  21107172.8234    -810978.02246   -604264.86063
  21693794.2534     421189.87247    318937.38062
 93  9  1  0 16 59.9990000  0  8G21G 9G12G31G17G 1G28G23
  20589630.4644   -1124514.02947   -846207.67263
  23931905.2694   -1329495.47745   -997970.52161
  24575630.417     -170622.884 2    -66316.53921
  22898346.4644   -2953505.64146  -2223929.69461
  22935199.5264    1386186.75646   1049423.22361
  20710559.401    -2973981.756 7  -2239418.53624
  21104091.3084    -827169.32446   -616881.47763
  21696709.0584     436504.15447    330870.56962
 93  9  1  0 17 29.9990000  0  8G21G 9G12G31G17G 1G28G23
  20583612.5264   -1156148.04047   -870857.55363
  23925510.0424   -1363084.06345  -1024143.39061
  24559523.3784    -255304.44444   -132302.05961
  22882299.9094   -3037832.15546  -2289638.65161
  22944231.151     1433649.237 6   1086406.89921
  20694375.019    -3059036.010 7  -2305694.55124
  21101126.175     -842734.809 6   -629010.44623
  21699645.7144     451942.45147    342900.39062
 93  9  1  0 17 59.9990000  0  8G21G 9G12G31G17G 1G28G23
  20577635.1514   -1187556.08347   -895331.35463
  23919213.8704   -1396184.35345  -1049935.82061
  24543485.487     -339562.057 5
  22866348.8474   -3121660.73146  -2354959.61661
  22953313.565     1481374.592 5   1123595.38121
  20678282.261    -3143598.543 7  -2371587.41124
  21098279.9644    -857705.34646   -640675.82863
  21702603.612      467486.610 7    355012.69922
 93  9  1  0 18 29.9990000  0  8G21G 9G12G31G17G 1G28G23
  20571701.1674   -1218737.15347   -919628.29263
  23913011.651    -1428775.958 5  -1075331.84421
  24527534.511     -423382.545 5
  22850491.612    -3204985.270 6  -2419887.81621
  22962446.6754    1529373.57745   1160997.11661
  20662288.433    -3227649.985 7  -2437082.01424
  21095543.7534    -872079.11846   -651876.17963
  21705581.9804     483137.07447    367207.85162
 93  9  1  0 18 59.9990000  0  8G21G 9G12G31G17G 1G28G23
  20565809.8004   -1249699.14547   -943754.52364
  23906905.5894   -1460869.42845  -1100339.71561
  24511665.1754    -506775.69145
  22834728.026    -3287824.494 6  -2484437.85321
  22971628.331     1577624.231 5   1198594.97021
  20646391.651    -3311186.037 7
  21092919.9804    -885867.34846   -662620.26763
  21708577.058      498874.559 7    379470.79722
 93  9  1  0 19 29.9990000  0  8G21G 9G12G31G17G 1G28G23
  20559960.2694   -1280433.23847   -967703.17164
  23900894.355    -1492456.664 5  -1124953.09621
  24495874.6984    -589736.48445
  22819056.7224   -3370175.19946  -2548607.23161
  22980857.198     1626116.123 6   1236380.74321
  20630594.917    -3394200.685 7
  21090409.7374    -899055.85146   -672897.03763
  21711588.636      514701.501 7    391803.45422
 93  9  1  0 19 59.9990000  0  8G21G 9G12G31G17G 1G28G23
  20554156.4174   -1310931.88147   -991468.34864
  23894979.7064   -1523529.33545  -1149165.56861
  24480172.0654    -672258.04544
  22803481.2844   -3452033.90246  -2612393.22361
  22990128.6444    1674845.06145   1274351.24561
  20614894.659    -3476700.679 7  -2631147.41024
  21088018.4804    -911626.00446   -682691.98063
  21714617.9014     530624.67047    404211.09562
 93  9  1  0 20 29.9990000  0  8G21G 9G12G31G17G 1G28G23
  20548398.8234   -1341193.75047
  23889161.8474   -1554099.92045
  24464550.4954    -754339.87044
  22787995.4174   -3533394.40046  -2675791.00561
  22999444.964     1723799.042 5   1312497.13521
  20599292.198    -3558701.087 7
  21085745.7304    -923568.51546   -691997.85063
  21717668.3474     546650.89647    416699.03662
 93  9  1  0 20 59.9990000  0  8G21G 9G12G31G17G 1G28G23
  20542684.3944   -1371219.51947
  23883438.1904   -1584181.97345
  24449016.917     -835982.800 5
  22772612.8704   -3614248.26746  -2738794.01761
  23008804.980     1772982.376 5   1350821.70221
  20583778.706    -3640216.209 7
  21083592.550     -934879.244 6   -700811.42423
  21720739.8084     562789.39947    429274.47562
 93  9  1  0 21 29.9990000  0  8G21G 9G12G31G17G 1G28G23
  20537010.3944   -1401033.87647  -1061677.70364
  23877803.167    -1613790.015 5  -1219498.95221
  24433562.1674    -917194.81945
  22757322.5584   -3694593.52446  -2801400.70061
  23018208.503     1822398.213 6   1389327.47721
  20568356.089    -3721265.915 7
  21081558.6514    -945580.90346   -709150.39663
  21723831.331      579036.845 7    441934.79622
 93  9  1  0 21 59.9990000  0  8G21G 9G12G31G17G 1G28G23
  20531376.5344   -1430642.34047  -1084749.24364
  23872266.0424   -1642901.59745  -1242183.25361
  24418194.9564    -997957.15745        -0.43371
  22742133.2064   -3774412.95446  -2863597.65361
  23027663.3084    1872082.48645   1428042.39361
  20553022.151    -3801842.654 7  -2884504.68924
  21079635.1984    -955673.41946   -717014.71263
  21726945.7064     595405.14347    454689.28962
 93  9  1  0 22 29.9990000  0  8G21G 9G12G31G17G 1G28G23
  20525777.8784   -1460065.33647  -1107676.25764
  23866819.5814   -1671513.73545  -1264478.39361
  24402916.355    -1078274.288 5    -62585.10621
  22727042.6054   -3853714.38146  -2925390.96061
  23037168.230     1922037.589 5   1466968.35721
  20537779.901    -3881942.295 7  -2946919.96824
  21077827.925     -965167.951 6   -724413.07023
  21730081.823      611881.581 7    467528.05022
 93  9  1  0 22 59.9990000  0  8G21G 9G12G31G17G 1G28G23
  20520216.2144   -1489295.83347  -1130453.27064
  23861474.925    -1699589.930 5  -1286355.93521
  24387717.6984   -1158131.80145   -124811.69261
  22712056.409    -3932466.048 6  -2986755.89121
  23046728.003     1972272.223 5   1506112.16521
  20522632.4954   -3961542.30347  -3008945.92164
  21076136.6284    -974064.26246   -731345.27463
  21733238.9724     628472.21347    480455.79462
 93  9  1  0 23 29.9990000  0  8G21G 9G12G31G17G 1G28G23
  20514687.7694   -1518342.54547  -1153087.07564
  23856238.831    -1727123.051 5  -1307810.26621
  24372601.9334   -1237529.60245
  22697173.0974   -4010667.83646  -3047692.34661
  23056340.683     2022781.198 6   1545469.68221
  20507581.769    -4040640.528 7  -3070580.87824
  21074553.3784    -982386.18546   -737829.91263
  21736413.605      645154.557 7    493455.00222
 93  9  1  0 23 59.9990000  0  8G21G 9G12G31G17G 1G28G23
  20509195.2844   -1547208.02947  -1175579.66164
  23851098.4334   -1754130.06645  -1328854.65461
  24357583.2224   -1316477.24545
  22682397.7454   -4088333.46946  -3108211.01361
  23066000.284     2073543.606 5   1585024.72421
  20492626.073    -4119232.911 7  -3131821.66924
  21073077.6124    -990142.03446   -743873.44563
  21739601.4804     661906.23047    506508.23162
 93  9  1  0 24 29.9990000  0  8G21G 9G12G31G17G 1G28G23
  20503740.9334   -1575867.49847  -1197911.71864
  23846059.5194   -1780616.38245  -1349493.30161
  24342649.9254   -1394964.11044        -0.28871
  22667722.4804   -4165441.48846  -3168295.16861
  23075705.214     2124545.694 5   1624766.52621
  20477769.690    -4197299.879 7  -3192653.05024
  21071709.855     -997324.713 6   -749470.36423
  21742802.3944     678726.70447    519615.07962
 93  9  1  0 24 59.9990000  0  8G21G 9G12G31G17G 1G28G23
  20498327.6674   -1604314.14747  -1220077.93964
  23841107.401    -1806606.107 5  -1369745.00221
  24327797.667    -1472993.159 4    -60802.09821
  22653155.1364   -4242004.58446  -3227954.72261
  23085452.5894    2175765.72945   1664678.14061
  20463011.0344   -4274852.71947  -3253083.81464
  21070454.0654   -1003936.48846   -754622.41763
  21746014.651      695611.724 6    532772.21322
 93  9  1  0 25 29.9990000  0  8G21G 9G12G31G17G 1G28G23
  20492954.4094   -1632553.57847  -1242082.69064
  23836258.026    -1832116.547 5  -1389623.26421
  24313034.675    -1550562.590 4   -121245.67121
  22638683.6364   -4318055.12646  -3287214.87361
  23095240.683     2227199.110 5   1704756.01321
  20448352.253    -4351887.145 7  -3313110.61324
  21069303.6834   -1009968.02246   -759322.33563
  21749241.690      712568.019 6    545984.88822
 93  9  1  0 25 59.9990000  0  8G21G 9G12G31G17G 1G28G23
  20487621.9484   -1660575.26147  -1263917.76364
  23831494.3474   -1857147.73645  -1409128.02161
  24298369.8314   -1627658.63045   -181320.44861
  22624304.7374   -4393596.09246  -3346077.94461
  23105066.190     2278833.331 5   1744990.39321
  20433794.417    -4428392.381 7  -3372725.05824
  21068274.6594   -1015385.87146   -763544.06163
  21752486.019      729619.930 6    559272.07122
 93  9  1  0 26 29.9990000  0  8G21G 9G12G31G17G 1G28G23
  20482330.6594   -1688383.24947  -1285586.32564
  23826822.3234   -1881694.93445  -1428255.69961
  24283786.378    -1704279.092 5   -241024.68621
  22610026.3474   -4468632.47646  -3404547.84161
  23114928.0114    2330659.87345   1785374.59461
  20419333.495    -4504385.771 7  -3431940.66424
  21067360.831    -1020181.901 6   -767281.25423
  21755750.2844     746775.66646    572640.16362
 93  9  1  0 26 59.9990000  0  8G21G 9G12G31G17G 1G28G23
  20477077.1124   -1715986.99447  -1307095.73664
  23822244.417    -1905755.555 5  -1447004.21321
  24269293.9724   -1780426.56044   -300360.30961
  22595842.0584   -4543177.22746  -3462634.64361
  23124828.472     2382690.008 5   1825917.47921
  20404969.042    -4579866.584 7  -3490756.86324
  21066565.581    -1024364.310 6   -770540.29723
  21759035.0584     764035.29146    586089.19862
 93  9  1  0 27 29.9990000  0  8G21G 9G12G31G17G 1G28G23
  20471859.0424   -1743405.40047  -1328460.72564
  23817759.784    -1929333.784 5  -1465376.83621
  24254893.206    -1856109.954 3   -359334.31021
  22581748.4644   -4617237.20446  -3520343.70161
  23134768.5264    2434928.50745   1866622.68261
  20390704.6054   -4654833.92747  -3549172.94764
  21065881.081    -1027954.106 6   -773337.56623
  21762336.4804     781381.99146    599606.08462
 93  9  1  0 27 59.9990000  0  8G21G 9G12G31G17G 1G28G23
  20466682.0194   -1770615.46547  -1349663.37064
  23813366.5504   -1952411.46245  -1483359.40961
  24240582.6054   -1931315.31645   -417935.85461
  22567753.2224   -4690786.51146  -3577654.82461
  23144751.964     2487393.013 5   1907504.04321
  20376534.964    -4729285.295 7  -3607186.97724
  21065312.6054   -1030951.25146   -775673.02463
  21765655.6054     798822.81446    613196.31062
 93  9  1  0 28 29.9990000  0  8G21G 9G12G31G17G 1G28G23
  20461544.1284   -1797618.14447  -1370704.42163
  23809074.0734   -1974977.25545  -1500943.15761
  24226362.6054   -2006044.59545   -476166.40761
  22553855.394    -4763815.172 6  -3634560.25021
  23154783.815     2540102.369 5   1948576.17121
  20362466.9254   -4803220.36047  -3664798.69564
  21064849.4644   -1033382.81146   -777567.77063
  21768989.8234     816344.58646    626849.61662
 93  9  1  0 28 59.9990000  0  8G21G 9G12G31G17G 1G28G23
  20456442.3474   -1824423.05447  -1391591.36363
  23804876.612    -1997037.062 5  -1518132.55121
  24212233.4484   -2080295.90245   -534024.44861
  22540059.503    -4836327.959 6  -3691063.69321
  23164862.8314    2593061.42845   1989842.86661
  20348495.1674   -4876639.13947  -3722008.11364
  21064490.855    -1035263.357 6   -779033.16023
  21772339.3704     833949.86746    640567.99862
 93  9  1  0 29 29.9990000  0  8G21G 9G12G31G17G 1G28G23
  20451374.9254   -1851052.07047  -1412341.24264
  23800772.2694   -2018601.44745  -1534935.96261
  24198190.0424   -2154073.79145   -591513.68861
  22526357.987    -4908326.081 6  -3747166.09821
  23174985.651     2646254.323 5   2031291.77321
  20334618.2304   -4949563.29047  -3778832.10564
  21064239.698    -1036596.942 6   -780072.33923
  21775704.237      851638.346 6    654351.19822
 93  9  1  0 29 59.9990000  0  8G21G 9G12G31G17G 1G28G23
  20446344.0974   -1877490.79347  -1432942.84163
  23796763.511    -2039644.857 5  -1551333.41821
  24184251.0734   -2227353.04444   -648614.31061
  22512758.987    -4979773.852 6  -3802839.65621
  23185153.6124    2699688.82845   2072928.93861
  20320836.0344   -5021984.68647  -3835264.33964
  21064096.1754   -1037350.53746   -780659.58263
  21779094.7614     869438.47146    668221.40962
 93  9  1  0 30 29.9990000  0  8G21G 9G12G31G17G 1G28G23
  20441349.0894   -1903741.02647  -1453397.56464
  23792858.1754   -2060175.00645  -1567330.92161
  24170398.3004   -2300133.29445   -705326.08661
  22499272.683    -5050661.327 6  -3858076.60921
  23195366.980     2753371.228 5   2114759.29721
  20307150.5654   -5093902.10447  -3891303.86664
  21064062.862    -1037526.098 6
  21782499.409      887345.801 6    682175.14322
 93  9  1  0 30 59.9990000  0  8G21G 9G12G31G17G 1G28G23
  20436386.9254   -1929816.17547  -1473715.86164
  23789047.2374   -2080218.81645  -1582949.46061
  24156644.7454   -2372429.40845   -761660.71061
  22485885.901    -5121005.229 6  -3912890.00521
  23205626.831     2807278.722 5   2156765.01921
  20293557.792    -5165337.580 7  -3946967.85224
  21064135.2844   -1037137.21146
  21785925.558      905345.057 6    696200.52022
 93  9  1  0 31 29.9990000  0  8G21G 9G12G31G17G 1G28G23
  20431464.1754   -1955689.66947  -1493877.02564
  23785328.1364   -2099746.68145  -1598165.94861
  24142976.9254   -2444227.73844   -817607.39561
  22472606.761    -5190772.944 6  -3967254.42721
  23215928.9484    2861423.25145   2198955.45461
  20280060.4874   -5236270.49647  -4002240.23364
  21064320.401    -1036170.279 6   -779739.96923
  21789369.2844     923435.72847    710297.12962
 93  9  1  0 31 59.9990000  0  8G21G 9G12G31G17G 1G28G23
  20426584.1054   -1981337.33947  -1513862.22364
  23781713.6364   -2118753.34745  -1612976.32861
  24129412.9334   -2515524.39345   -873163.12561
  22459442.409    -5259962.313 6  -4021168.18721
  23226279.956     2915811.969 5   2241336.18421
  20266658.8704   -5306693.97747  -4057115.65164
  21064613.9014   -1034624.42946   -778535.43563
  21792828.5584     941617.61846    724464.81562
 93  9  1  0 32 29.9990000  0  8G21G 9G12G31G17G 1G28G23
  20421744.4174   -2006760.39747  -1533672.39864
  23778194.1754   -2137252.83145  -1627391.46961
  24115937.3704   -2586326.23044   -928333.33961
  22446382.237    -5328603.547 6  -4074654.84221
  23236674.8624    2970440.82645   2283904.01761
  20253355.1124   -5376606.01247  -4111592.54264
  21065014.956    -1032515.604 6   -776892.22623
  21796304.3944     959883.98746    738698.32762
 93  9  1  0 32 59.9990000  0  8G21G 9G12G31G17G 1G28G23
  20416948.4334   -2031962.77647  -1553310.61363
  23774772.823    -2155219.835 5  -1641391.75921
  24102559.1984   -2656614.06144   -983102.98161
  22433423.761    -5396698.879 6  -4127716.10121
  23247117.3154    3025314.73645   2326662.82261
  20240150.464    -5445994.565 7  -4165661.52024
  21065529.581    -1029817.504 6   -774789.83223
  21799799.792      978253.791 6    753012.44122
 93  9  1  0 33 29.9990000  0  8G21G 9G12G31G17G 1G28G23
  20412192.4484   -2056961.12947  -1572789.85263
  23771454.2374   -2172658.67445  -1654980.40561
  24089285.737    -2726391.329 5  -1037474.80721
  22420563.987    -5464260.139 6  -4180361.20721
  23257604.667     3080426.775 5   2369607.15321
  20227045.4404   -5514858.77447  -4219321.92564
  21066156.4094   -1026520.00846   -772220.38362
  21803314.8154     996721.37146    767402.75062
 93  9  1  0 33 59.9990000  0  8G21G 9G12G31G17G 1G28G23
  20407471.7764   -2081766.84447  -1592118.98864
  23768233.4954   -2189591.60645  -1668174.91061
  24076099.378    -2795657.230 4  -1091448.16421
  22407803.901    -5531318.077 6  -4232614.11721
  23268133.7454    3135764.59645   2412727.39561
  20214040.7144   -5583207.20447  -4272580.42064
  21066895.347    -1022629.635 6   -769188.95422
  21806845.3784    1015281.87046    781865.45362
 93  9  1  0 34 29.9990000  0  8G21G 9G12G31G17G 1G28G23
  20402784.5894   -2106399.93347  -1611313.60464
  23765106.573    -2206018.133 5  -1680974.77321
  24063020.542    -2864413.439 5  -1145024.35021
  22395138.519    -5597876.393 6  -4284477.70421
  23278705.3784    3191312.13545   2456011.11161
  20201129.7844   -5651049.25547  -4325444.33664
  21067745.183    -1018162.100 6   -765707.78522
  21810392.7064    1033914.98846    796384.75062
 93  9  1  0 34 59.9990000  0  8G21G 9G12G31G17G 1G28G23
  20398131.1834   -2130852.80547  -1630367.79364
  23762077.5734   -2221933.63445  -1693376.43561
  24050034.050    -2932653.542 5  -1198198.35521
  22382577.651    -5663906.325 6  -4335929.56721
  23289317.0584    3247071.89745   2499460.15561
  20188318.5504   -5718378.05247  -4377908.31164
  21068705.9564   -1013127.78146   -761784.96863
  21813951.1284    1052612.08947    810953.90362
 93  9  1  0 35 29.9990000  0  8G21G 9G12G31G17G 1G28G23
  20393518.7694   -2155098.13347  -1649260.26063
  23759147.0344   -2237347.78445  -1705387.46461
  24037146.433    -3000372.091 5  -1250965.95621
  22370114.784    -5729393.181 6  -4386958.25221
  23299967.237     3303043.916 5   2543074.60021
  20175605.5264   -5785181.57447  -4429962.98564
  21069767.800    -1007543.247 6   -757433.41322
  21817519.081     1071367.658 6    825568.60622
 93  9  1  0 35 59.9990000  0  8G21G 9G12G31G17G 1G28G23
  20388945.2924   -2179126.83447  -1667983.92963
  23756307.034    -2252260.623 5  -1717007.79921
  24024362.1444   -3067568.87845  -1303327.04661
  22357756.987    -5794327.115 6  -4437556.08321
  23310658.558     3359220.092 5   2586848.13121
  20162990.362    -5851469.931 7  -4481616.23024
  21070931.230    -1001431.598 6   -752671.11822
  21821099.2374    1090182.33446    840229.38562
 93  9  1  0 36 29.9990000  0  8G21G 9G12G31G17G 1G28G23
  20384413.5654   -2202936.43947  -1686536.86564
  23753562.4404   -2266666.04845  -1728232.84261
  24011670.355    -3134245.789 5  -1355283.01121
  22345512.0654   -5858686.59546  -4487706.29461
  23321385.183     3415597.844 5   2630778.74621
  20150476.8314   -5917232.58647  -4532859.83664
  21072194.815     -994792.656 6   -747497.94622
  21824692.3554    1109061.76046    854940.59762
 93  9  1  0 36 59.9990000  0  8G21G 9G12G31G17G 1G28G23
  20379928.4954   -2226506.91847  -1704903.47563
  23750921.917    -2280566.760 5  -1739064.51521
  23999087.2764   -3200394.12544  -1406827.10561
  22333375.065    -5922462.916 6  -4537402.08221
  23332154.058     3472183.811 5   2674871.60021
  20138064.9404   -5982446.91847  -4583676.17964
  21073560.4874    -987605.77646   -741897.81063
  21828301.7374    1128026.02346    869717.92862
 93  9  1  0 37 29.9990000  0  8G21G 9G12G31G17G 1G28G23
  20375486.8944   -2249848.24247  -1723091.52663
  23748372.5974   -2293955.22145  -1749497.09261
  23986597.167    -3266013.477 5  -1457958.95921
  22321347.0114   -5985664.27746  -4586649.86261
  23342959.6364    3528966.59245   2719117.81561
  20125758.2924   -6047125.72647  -4634075.23064
  21075034.956     -979862.458 6   -735864.08622
  21831927.4014    1147083.89646    884568.19762
 93  9  1  0 37 59.9990000  0  8G21G 9G12G31G17G 1G28G23
  20371083.9874   -2272990.03547  -1741124.09663
  23745922.6904   -2306827.89145  -1759527.74361
  23974208.6834   -3331110.57645  -1508683.91261
  22309426.886    -6048298.777 6  -4635455.93721
  23353802.667     3585938.355 5   2763511.25021
  20113549.503    -6111279.437 7  -4684065.11024
  21076615.534     -971565.052 6   -729398.59922
  21835572.1124    1166237.35746    899492.95662
 93  9  1  0 38 29.9980000  0  8G21G 9G12G31G17G 1G28G23
  20366714.4984   -2295943.99347  -1759010.29763
  23743571.2484   -2319185.08845  -1769156.67261
  23961923.7094   -3395683.35545  -1559000.27261
  22297614.381    -6110376.348 6  -4683828.03121
  23364678.725     3643104.075 5   2808055.86521
  20101441.779    -6174909.664 7  -4733647.08323
  21078296.647     -962724.782 6   -722510.11322
  21839234.2644    1185477.53046    914485.27562
 93  9  1  0 38 59.9980000  0  8G21G 9G12G31G17G 1G28G23
  20362382.9364   -2318711.30247  -1776751.05963
  23741323.232    -2331005.825 5  -1778367.66421
  23949732.772    -3459715.935 5  -1608895.72021
  22285909.412    -6171892.127 6  -4731762.36921
  23375603.1154    3700501.03945   2852780.63661
  20089432.4044   -6238016.63047  -4782821.32463
  21080083.897     -953329.492 6   -715189.13222
  21842915.2014    1204821.30546    929558.32062
 93  9  1  0 39 29.9980000  0  8G21G 9G12G31G17G 1G28G23
  20358081.4824   -2341318.67347  -1794367.19463
  23739176.7094   -2342303.57245  -1787171.06061
  23937653.3264   -3523214.15745  -1658374.77261
  22274308.295    -6232865.178 6  -4779273.80721
  23386567.482     3758128.225 5   2897684.82321
  20077522.662    -6300608.588 7  -4831594.25323
  21081970.287     -943407.002 6   -707457.35122
  21846612.975     1224255.497 6    944701.82622
 93  9  1  0 39 59.9980000  0  8G21G 9G12G31G17G 1G28G23
  20353808.5374   -2363766.51547  -1811859.02463
  23737118.764    -2353088.995 5  -1795575.25821
  23925672.5144   -3586179.21745  -1707438.37461
  22262806.4984   -6293301.57046  -4826367.06961
  23397580.3344    3815989.90745   2942771.73961
  20065709.7644   -6362684.44947  -4879965.03263
  21083958.654     -932963.105 6   -699319.27422
  21850325.9594    1243764.58746    959903.69462
 93  9  1  0 40 29.9980000  0  8G21G 9G12G31G17G 1G28G23
  20349570.7174   -2386039.99047  -1829214.97963
  23735163.4594   -2363367.16545  -1803584.22961
  23913791.8114   -3648604.38745  -1756081.30561
  22251407.311    -6353202.712 6  -4873043.24421
  23408634.3114    3874079.22645   2988035.99461
  20053997.061    -6424233.792 7  -4927925.53623
  21086049.350     -921988.287 6   -690767.49322
  21854050.7794    1263345.22946    975161.30662
 93  9  1  0 40 59.9980000  0  8G21G 9G12G31G17G 1G28G23
  20345367.1314   -2408132.76247  -1846430.12763
  23733303.818    -2373139.491 5  -1811198.96421
  23902020.576    -3710479.384 5  -1804295.50021
  22240112.092    -6412556.005 6  -4919292.53621
  23419728.8184    3932390.41445   3033473.17061
  20042387.631    -6485238.800 7  -4975461.88223
  21088243.818     -910449.540 6   -681776.28922
  21857794.022     1283009.100 6    990483.77622
 93  9  1  0 41 29.9980000  0  8G21G 9G12G31G17G 1G28G23
  20341198.4514   -2430040.79647  -1863501.32963
  23731537.397    -2382421.975 5  -1818432.07721
  23890344.959    -3771813.596 5  -1852088.34821
  22228920.0844   -6471371.86546  -4965123.05361
  23430859.514     3990888.042 5   3079055.56821
  20030880.5844   -6545715.41647  -5022586.49563
  21090544.5844    -898362.73546   -672358.02062
  21861548.5534    1302739.81946   1005858.33862
 93  9  1  0 41 59.9980000  0  8G21G 9G12G31G17G 1G28G23
  20337067.7564   -2451746.05847  -1880414.52063
  23729866.256    -2391199.169 5  -1825271.40821
  23878778.8264   -3832601.16145  -1899455.16761
  22217830.357    -6529645.881 6  -5010531.34421
  23442026.740     4049560.838 5   3124774.54821
  20019470.654    -6605674.719 7  -5069308.00823
  21092952.428     -885707.752 6   -662497.02522
  21865317.5614    1322546.98446   1021292.47462
 93  9  1  0 42 29.9980000  0  8G21G 9G12G31G17G 1G28G23
  20332975.1074   -2473247.91547  -1897169.21863
  23728296.936    -2399464.910 5  -1831712.20921
  23867315.748    -3892831.515 5  -1946387.84721
  22206843.6474   -6587370.20746  -5055511.30661
  23453227.1074    4108418.05545   3170637.14761
  20008161.0064   -6665109.49647  -5115620.79863
  21095469.100     -872480.202 6   -652189.87022
  21869105.678     1342452.229 6   1036803.02722
 93  9  1  0 42 59.9980000  0  8G21G 9G12G31G17G 1G28G23
  20328923.6314   -2494542.50147  -1913762.40763
  23726818.5534   -2407215.26445  -1837751.44361
  23855964.6234   -3952505.07745  -1992886.62061
  22195960.818    -6644550.739 6  -5100067.54221
  23464464.654     4167484.687 4   3216662.95321
  19996946.8974   -6724035.50047  -5161537.14563
  21098091.5924    -858702.33646   -641453.89462
  21872911.9904    1362455.34846   1052389.85562
 93  9  1  0 43 29.9980000  0  8G21G 9G12G31G17G 1G28G23
  20324912.5144   -2515617.18847  -1930184.24863
  23725441.217    -2414448.605 5  -1843387.76921
  23844711.834    -4011619.784 5  -2038949.97621
  22185188.248    -6701185.023 6  -5144198.11621
  23475748.2644    4226767.86344   3262857.51761
  19985828.8814   -6782463.24147  -5207065.23163
  21100813.389     -844400.006 6   -630309.25822
  21876736.475     1382556.387 6   1068052.96522
 93  9  1  0 43 59.9980000  0  8G21G 9G12G31G17G 1G28G23
  20320940.9824   -2536487.21447  -1946446.60563
  23724160.3264   -2421180.25945  -1848633.18661
  23833568.8114   -4070182.33545  -2084583.05361
  22174517.506    -6757262.955 6  -5187895.18121
  23487071.0294    4286272.74044   3309224.84361
  19974804.7954   -6840392.07547  -5252204.56163
  21103632.092     -829578.235 6   -618759.85122
  21880581.428     1402753.552 6   1083790.99722
 93  9  1  0 44 29.9980000  0  8G21G 9G12G31G17G 1G28G23
  20317007.4594   -2557161.31047  -1962556.29663
  23722976.592    -2427419.816 5  -1853495.14721
  23822530.803    -4128190.023 5  -2129783.75321
  22163955.4434   -6812769.56446  -5231147.05861
  23498439.2564    4346010.18945   3355773.36261
  19963877.4364   -6897812.40647  -5296947.65663
  21106549.029     -814252.571 6   -606817.80722
  21884440.701     1423037.080 6   1099596.31422
 93  9  1  0 44 59.9980000  0  8G21G 9G12G31G17G 1G28G23
  20313114.2404   -2577622.47147  -1978500.06163
  23721882.928    -2433152.714 5  -1857962.31921
  23811598.154    -4185630.790 5  -2174542.71421
  22153501.873    -6867683.267 6  -5273936.92721
  23509850.0224    4405973.27644   3402497.70061
  19953052.326    -6954709.175 7  -5341282.78023
  21109564.693     -798408.497 6   -594471.80322
  21888315.9594    1443404.21346   1115466.78762
 93  9  1  0 45 29.9980000  0  8G21G 9G12G31G17G 1G28G23
  20309254.1004   -2597901.94747  -1994302.25763
  23720885.006    -2438392.791 5  -1862045.45221
  23800775.6004   -4242516.80845  -2218869.43061
  22143166.3184   -6922001.63746  -5316262.91061
  23521297.0764    4466120.11044   3449365.23561
  19942323.3504   -7011085.59447  -5385212.43863
  21112679.131     -782036.316 6   -581714.29522
  21892205.6234    1463840.88146   1131391.42962
 93  9  1  0 45 59.9980000  0  8G21G 9G12G31G17G 1G28G23
  20305429.2724   -2618004.98847  -2009966.96863
  23719986.3574   -2443129.81645  -1865736.60461
  23790056.3574   -4298839.60845  -2262757.24761
  22132942.3034   -6975724.92646  -5358125.18361
  23532777.5374    4526457.92744   3496381.56561
  19931697.725    -7066921.420 7  -5428720.85323
  21115898.240     -765116.926 6   -568530.38522
  21896107.9044    1484346.82546   1147370.06062
 93  9  1  0 46 29.9980000  0  8G21G 9G12G31G17G 1G28G23
  20301636.8184   -2637929.39747  -2025492.47663
  23719179.998    -2447356.014 5  -1869029.71521
  23779442.006    -4354597.150 5  -2306204.60821
  22122827.1234   -7028875.90946  -5399541.51661
  23544294.701     4586981.783 4   3543542.87921
  19921177.0924   -7122212.16947  -5471804.53463
  21119220.654     -747666.879 6   -554932.98022
  21900021.186     1504911.788 6   1163394.68522
 93  9  1  0 46 59.9980000  0  8G21G 9G12G31G17G 1G28G23
  20297882.7254   -2657667.97947  -2040873.19363
  23718475.2014   -2451065.60445  -1871920.26561
  23768941.1394   -4409788.88345  -2349211.06561
  22112824.756    -7081464.549 6  -5440519.64821
  23555845.3894    4647682.29143   3590841.87661
  19910756.2254   -7176964.54647  -5514468.70763
  21122639.811     -729691.582 6   -540926.28622
  21903946.561     1525539.049 6   1179467.84722
 93  9  1  0 47 29.9980000  0  8G21G 9G12G31G17G 1G28G23
  20294158.9754   -2677230.68347  -2056116.85863
  23717865.5454   -2454268.73745  -1874416.19161
  23758548.881    -4464414.900 5  -2391776.71121
  22102917.053    -7133508.042 6  -5481073.00121
  23567433.873     4708581.883 4   3638295.94021
  19900440.3264   -7231183.70847  -5556717.38863
  21126156.865     -711219.234 6   -526532.28922
  21907884.4434    1546231.53146   1195591.84062
 93  9  1  0 47 59.9980000  0  8G21G 9G12G31G17G 1G28G23
  20290475.7644   -2696588.21947  -2071200.65463
  23717348.9824   -2456968.84845  -1876520.12861
  23748261.225    -4518469.091 5  -2433896.78621
  22093119.3114   -7185006.39546  -5521201.56661
  23579063.3184    4769696.54245   3685917.62861
  19890222.2174   -7284867.27247  -5598548.71563
  21129764.061     -692272.081 6   -511768.30722
  21911834.615     1566997.406 6   1211773.01422
 93  9  1  0 48 29.9980000  0  8G21G 9G12G31G17G 1G28G23
  20286832.3974   -2715730.91047  -2086117.03563
  23716935.0534   -2459160.93245  -1878228.22961
  23738085.4984   -4571947.58645  -2475568.26761
  22083423.9124   -7235947.05746  -5560895.56761
  23590734.545     4831021.332 5   3733703.08121
  19880107.3344   -7338031.94147  -5639975.71563
  21133457.357     -672858.527 6   -496640.90122
  21915801.3734    1587842.80946   1228016.16461
 93  9  1  0 48 59.9980000  0  8G21G 9G12G31G17G 1G28G23
  20283232.0614   -2734655.72747  -2100863.64863
  23716611.826    -2460851.223 5  -1879545.29021
  23728018.115    -4624845.936 5  -2516787.67421
  22073838.287    -7286322.450 6  -5600149.10121
  23602444.5064    4892561.00144   3781655.92561
  19870088.8654   -7390677.43147  -5680998.15663
  21137240.998     -652962.486 6   -481137.53122
  21919786.287     1608774.348 6   1244326.42422
 93  9  1  0 49 29.9980000  0  8G21G 9G12G31G17G 1G28G23
  20279670.4434   -2753365.91947  -2115443.02563
  23716383.420    -2462060.738 5  -1880487.73021
  23718061.928    -4677171.171 5
  22064358.053    -7336142.671 6  -5638970.04021
  23614197.428     4954310.229 5   3829772.04321
  19860169.2404   -7442805.01947
  21141120.732     -632581.261 6   -465256.08722
  21923782.170     1629786.439 6   1260699.45922
 93  9  1  0 49 59.9980000  0  8G21G 9G12G31G17G 1G28G23
  20276151.7954   -2771858.55947  -2129852.87863
  23716245.787    -2462782.928 5  -1881050.44621
  23708215.811    -4728919.362 5
  22054985.1394   -7385397.51246  -5677350.41761
  23625980.6474    5016248.01845   3878035.15161
  19850345.2874   -7494426.85547
  21145096.115     -611697.960 6
  21927798.264     1650884.555 6
 93  9  1  0 50 29.9980000  0  8G21G 9G12G31G17G 1G28G23
  20272666.2794   -2790164.43547  -2144117.19863
  23716201.404    -2463004.098 5
  23698478.186    -4780087.216 5
  22045714.725    -7434104.095 6  -5715303.56421
  23637801.8974    5078362.24244   3926435.73861
  19840620.7724   -7545538.80147
  21149165.084     -590309.804 6   -432317.35522
  21931829.553     1672071.049 6   1293648.45322
 93  9  1  0 50 59.9980000  0  8G21G 9G12G31G17G 1G28G23
  20269217.6394   -2808294.82247  -2158244.77463
  23716255.4364   -2462729.68845
  23688855.8344   -4830671.68845
  22036552.732    -7482272.144 6  -5752837.08521
  23649655.709     5140653.391 5   3974974.11521
  19830992.068    -7596131.805 7
  21153329.787     -568423.736 6   -415263.31022
  21935879.6074    1693349.36446   1310228.93562
 93  9  1  0 51 29.9980000  0  8G21G 9G12G31G17G 1G28G23
  20265799.2324   -2826257.80247  -2172241.90563
  23716402.740    -2461945.138 5  -1880397.52821
  23679336.6234   -4880673.10445
  22027485.592    -7529897.482 6  -5789947.71921
  23661540.3654    5203110.47145   4023641.91261
  19821462.9044   -7646213.45547  -5880117.05863
  21157585.975     -546061.673 6   -397838.36122
  21939945.381     1714720.017 6   1326881.36322
 93  9  1  0 51 59.9980000  0  8G21G 9G12G31G17G 1G28G23
  20262408.8894   -2844077.72847  -2186127.56663
  23716654.5534   -2460638.80545  -1879379.57461
  23669931.436    -4930093.753 5
  22018529.8504   -7576982.34446  -5826637.20461
  23673455.295     5265727.141 5   4072434.01821
  19812027.8184   -7695784.75247
  21161930.764     -523237.841 6   -380053.59322
  21944025.818     1736166.347 6   1343592.76122
 93  9  1  0 52 29.9980000  0  8G21G 9G12G31G17G 1G28G23
  20259047.0684   -2861738.87147  -2199889.49963
  23717001.990    -2458809.677 5  -1877954.23321
  23660636.1624   -4978924.98045        -0.40571
  22009672.084    -7623511.428 6  -5862893.61121
  23685406.873     5328527.284 5   4121369.10021
  19802696.1074   -7744831.34247  -5956962.14163
  21166362.201     -499941.009 6   -361900.24822
  21948120.5064    1757682.70046   1360358.72961
 93  9  1  0 52 59.9980000  0  8G21G 9G12G31G17G 1G28G23
  20255720.5684   -2879225.64347  -2213515.56063
  23717442.5144   -2456479.27245  -1876138.32161
  23651459.193    -5027170.821 5    -37594.51521
  22000928.842    -7669461.040 6  -5898698.47621
  23697396.3114    5391522.77245   4170456.33461
  19793461.8264   -7793357.74947  -5994774.91363
  21170885.522     -476164.526 6   -343373.15622
  21952226.1004    1779251.01146   1377165.16762
 93  9  1  0 53 29.9980000  0  8G21G 9G12G31G17G 1G28G23
  20252430.2724   -2896518.74847  -2226990.71563
  23717985.068    -2453637.350 5  -1873923.78721
  23642389.9364   -5074820.87345    -74724.31561
  21992302.342    -7714811.876 6  -5934036.77121
  23709423.264     5454723.860 4   4219703.81021
  19784325.1394   -7841362.80147  -6032181.43363
  21175506.881     -451883.526 6   -324452.93322
  21956339.600     1800874.887 6   1394014.91422
 93  9  1  0 53 59.9980000  0  8G21G 9G12G31G17G 1G28G23
  20249177.0684   -2913615.30547  -2240312.71363
  23718618.5614   -2450310.76145  -1871331.61561
  23633439.0294   -5121879.45845   -111393.27161
  21983784.0454   -7759568.21446  -5968911.81661
  23721485.576     5518126.924 3   4269108.68821
  19775285.4514   -7888863.49847  -6069194.95063
  21180225.404     -427084.351 6   -305128.94022
  21960462.826     1822539.596 6   1410896.47022
 93  9  1  0 54 29.9980000  0  8G21G 9G12G31G17G 1G28G23
  20245964.5374   -2930492.10647  -2253463.46863
  23719340.8424   -2446503.10045  -1868364.58161
  23624592.3734   -5168338.70545   -147595.22261
  21975378.8264   -7803720.98546  -6003316.55061
  23733591.897     5581736.267 4   4318674.26821
  19766343.7324   -7935861.13647  -6105816.47163
  21185040.475     -401770.151 6   -285403.62722
  21964598.7094    1844266.36846   1427826.39961
 93  9  1  0 54 59.9980000  0  8G21G 9G12G31G17G 1G28G23
  20242790.8574   -2947170.02247  -2266459.24963
  23720158.4594   -2442222.53645  -1865029.04661
  23615867.5374   -5214210.51645   -183339.39361
  21967085.350    -7847304.012 6  -6037277.32321
  23745728.998     5645520.974 5   4368376.49721
  19757495.6704   -7982358.67247  -6142048.30263
  21189955.061     -375966.719 6   -265297.09722
  21968745.4204    1866058.39346   1444807.16762
 93  9  1  0 55 29.9980000  0  8G21G 9G12G31G17G 1G28G23
  20239660.2014   -2963622.57347  -2279279.42063
  23721069.7794   -2437429.53645  -1861294.22061
  23607250.1394   -5259465.27745   -218602.78361
  21958907.053    -7890302.137 6  -6070782.33221
  23757904.5064    5709492.93744   4418224.69561
  19748748.1314   -8028329.77447  -6177869.92963
  21194958.811     -349661.716 6   -244799.73022
  21972911.3264    1887958.33446   1461872.02962
 93  9  1  0 55 59.9980000  0  8G21G 9G12G31G17G 1G28G23
  20236569.4044   -2979864.13747  -2291935.18963
  23722074.740    -2432133.945 5  -1857167.78521
  23598759.4044   -5304115.27745   -253394.95461
  21950827.2564   -7932733.39646  -6103845.62461
  23770109.537     5773633.831 3   4468204.43321
  19740101.3424   -8073774.04747  -6213281.03563
  21200055.225     -322888.641 6   -223937.63222
  21977099.4984    1909966.76846   1479021.43362
 93  9  1  0 56 29.9980000  0  8G21G 9G12G31G17G 1G28G23
  20233516.4754   -2995909.46747  -2304438.04463
  23723183.0534   -2426322.54245  -1852639.38761
  23590373.490    -5348164.504 5   -287718.92821
  21942858.818    -7974614.615 6  -6136480.31521
  23782345.857     5837934.379 5   4518308.63921
  19731557.5844   -8118667.65147  -6248263.04663
  21205233.475     -295665.221 6   -202724.62022
  21981312.639     1932099.503 6   1496267.69522
 93  9  1  0 56 59.9980000  0  8G21G 9G12G31G17G 1G28G23
  20230498.3574   -3011770.52947  -2316797.31463
  23724386.686    -2419998.566 5  -1847711.60321
  23582107.936    -5391618.400 5   -321579.09321
  21934992.2484   -8015950.74546  -6168690.26561
  23794612.0614    5902389.71744   4568533.48561
  19723118.9594   -8163011.86047  -6282816.95963
  21210500.256     -267993.408 6   -181162.20622
  21985542.693     1954333.271 6   1513592.68321
 93  9  1  0 57 29.9980000  0  8G21G 9G12G31G17G 1G28G23
  20227515.3504   -3027446.48547  -2329012.34863
  23725685.7794   -2413163.70045  -1842385.71961
  23573946.842    -5434483.275 5   -354980.20121
  21927231.3734   -8056737.24846  -6200471.94661
  23806905.193     5966993.350 5   4618873.86121
  19714781.022    -8206826.217 7  -6316957.99823
  21215850.522     -239875.197 6   -159251.95522
  21989791.6704    1976657.58046   1530988.23261
 93  9  1  0 57 59.9980000  0  8G21G 9G12G31G17G 1G28G23
  20224567.8894   -3042939.03747  -2341084.46863
  23727084.7874   -2405822.52945  -1836665.33761
  23565905.5064   -5476752.39145   -387917.09161
  21919574.6154   -8096979.80046  -6231829.75961
  23819226.225     6031754.004 4   4669336.61321
  19706543.6624   -8250111.08847  -6350686.45463
  21221288.506     -211305.890 6   -136990.20022
  21994056.2014    1999073.37346   1548455.05761
 93  9  1  0 58 29.9980000  0  8G21G 9G12G31G17G 1G28G23
  20221651.9284   -3058255.62247  -2353019.47363
  23728574.9824   -2397995.17445  -1830566.05861
  23557975.772    -5518429.744 5   -420392.92021
  21912018.3504   -8136679.46546  -6262764.54062
  23831582.7874    6096670.44444   4719920.73961
  19698404.1784   -8292889.12147  -6384019.97163
  21226810.045     -182295.412 6   -114384.67722
  21998335.7794    2021564.20446   1565980.36461
 93  9  1  0 58 59.9980000  0  8G21G 9G12G31G17G 1G28G23
  20218776.9434   -3073360.51947  -2364789.53463
  23730156.9044   -2389677.68645  -1824084.89961
  23550162.9434   -5559489.65045   -452387.57561
  21904573.936    -8175795.501 6  -6293244.55121
  23843967.5844    6161771.98842   4770649.10661
  19690359.7644   -8335162.57247  -6416960.30063
  21232415.436     -152821.660 6    -91418.15522
  22002633.240     2044140.137 6   1583571.98121
 93  9  1  0 59 29.9980000  0  7G21G 9G12G31G 1G28G23
  20215939.0764   -3088275.61447  -2376411.69063
  23731822.9044   -2380908.85545  -1817252.04661
  23542458.811    -5599954.302 5   -483918.39121
  21897237.8034   -8214361.23246  -6323295.75361
  19682405.2794   -8376963.56047  -6449532.48463
  21238108.334     -122914.763 6    -68114.12222
  22006944.4364    2066795.08646   1601225.17461
 93  9  1  0 59 59.9980000  0  8G21G 9G12G31G25G 1G28G23
  20213139.4434   -3102989.64447  -2387877.17264
  23733580.8894   -2371689.88645  -1810068.42961
  23534869.553    -5639808.031 5   -514973.21921
  21890008.490    -8252358.238 6  -6352903.79421
  23805568.0144         -0.10655
  19674545.6624   -8418263.30547  -6481714.08763
  21243881.068      -92576.217 6    -44473.73622
  22011268.7954    2089523.18846   1618935.36461
 93  9  1  1  0 29.9980000  0  8G21G 9G12G31G25G 1G28G23
  20210378.8654   -3117496.29947  -2399181.06663
  23735416.5374   -2362015.98945  -1802530.32761
  23527406.1314   -5679048.11445   -545549.83961
  21882893.0374   -8289766.12546  -6382052.78061
  23780778.295     -130249.782 4
  19666784.4434   -8459044.86247  -6513491.90463
  21249737.756      -61801.815 6    -20493.72522
  22015605.756     2112316.286 6   1636696.20821
 93  9  1  1  0 59.9980000  0  8G21G 9G12G31G25G 1G28G23
  20207657.0064   -3131804.27947  -2410330.14863
  23737351.811    -2351878.717 5  -1794631.10821
  23520054.9044   -5717678.28245   -575651.20061
  21875882.5224   -8326605.34646  -6410758.64761
  23755981.4284    -260562.36543        -0.15471
  19659125.1074   -8499296.04847  -6544856.44763
  21255675.654      -30588.010 6      3828.67622
  22019953.732     2135169.387 6   1654503.79021
 93  9  1  1  1 29.9980000  0  8G21G 9G12G31G25G 1G28G23
  20204967.0144   -3145935.23847  -2421341.29064
  23739367.7014   -2341272.73745  -1786366.70661
  23512823.436    -5755702.827 5   -605280.66321
  21868971.3184   -8362891.35046  -6439033.44961
  23731170.2094    -390947.31844   -101598.63061
  19651567.1394   -8539015.89247  -6575806.96063
  21261696.959        1049.073 6     28480.90622
  22024315.5224    2158083.60146   1672359.01361
 93  9  1  1  1 59.9980000  0  8G21G 9G12G31G25G 1G28G23
  20202309.6704   -3159903.68547  -2432225.80163
  23741472.904    -2330188.304 5  -1777729.47821
  23505702.9364   -5793126.64545   -634442.01761
  21862170.4824   -8398627.75946  -6466880.00061
  23706343.3734    -521418.43744   -203264.22061
  19644109.1234   -8578207.96547  -6606346.22263
  21267796.592       33101.076 6     53456.44622
  22028685.709     2181049.718 6   1690254.65621
 93  9  1  1  2 29.9970000  0  8G21G 9G12G31G25G 1G28G23
  20199681.5644   -3173708.55147  -2442982.84863
  23743682.0174   -2318610.43345  -1768707.73361
  23498696.6344   -5829943.27445   -663130.24761
  21855475.0094   -8433821.59646  -6494303.75461
  23681499.8844    -651972.43545   -304994.42361
  19636747.5794   -8616885.52747  -6636484.56563
  21273975.0644      65575.34146     78761.02062
  22033071.048     2204097.114 6   1708213.64221
 93  9  1  1  2 59.9970000  0  8G21G 9G12G31G25G 1G28G23
  20197088.9154   -3187337.63647  -2453602.92063
  23745976.6104   -2306533.79445  -1759297.36661
  23491805.173    -5866146.930 5   -691340.82721
  21848881.6574   -8468484.73346  -6521313.99161
  23656645.079     -782595.616 5   -406778.57621
  19629482.7674   -8655069.21247  -6666238.06863
  21280234.8214      98467.49346    104391.22162
  22037475.478     2227246.212 6   1726251.87721
 93  9  1  1  3 29.9970000  0  8G21G 9G12G31G25G 1G28G23
  20194529.7904   -3200782.77747  -2464079.65863
  23748369.7744   -2293971.15445  -1749508.28861
  23485033.712    -5901739.997 5   -719075.65321
  21842385.8684   -8502596.94746  -6547894.94561
  23631777.6894    -913271.00045   -508603.33761
  19622309.1424   -8692770.93047  -6695616.01363
  21286571.610      131770.328 6    130341.43222
  22041898.7744    2250484.47246   1744359.57461
 93  9  1  1  3 59.9970000  0  8G21G 9G12G31G25G 1G28G23
  20192010.2124   -3214024.52647  -2474397.90663
  23750854.9544   -2280917.99045  -1739336.98161
  23478379.009    -5936717.215 5   -746330.55221
  21836004.8214   -8536145.76346  -6574036.88461
  23606899.642    -1043993.359 5   -610464.73721
  19615228.0094   -8729973.50147  -6724605.01463
  21292991.610      165500.924 6    156624.96022
  22046334.048     2273800.095 6   1762527.57521
 93  9  1  1  4 29.9970000  0  8G21G 9G12G31G25G 1G28G23
  20189534.7284   -3227035.61547  -2484536.41863
  23753433.7354   -2267356.50145  -1728769.54561
  23471843.3374   -5971057.62545   -773089.28461
  21829732.7044   -8569106.19146  -6599720.33661
  23582024.3994   -1174722.37945   -712331.35261
  19608247.8454   -8766659.53547  -6753191.52163
  21299496.1894     199681.96546    183259.48362
  22050787.181     2297203.624 6   1780764.05421
 93  9  1  1  4 59.9970000  0  8G21G 9G12G31G25G 1G28G23
  20187099.1034   -3239831.98147  -2494507.61364
  23756104.0404   -2253299.78744  -1717816.28761
  23465421.806    -6004772.483 5   -799360.54721
  21823574.9314   -8601476.50846  -6624943.96861
  23557143.962    -1305457.049 5   -814202.34221
  19601364.5324   -8802831.61147  -6781377.54363
  21306083.3844     234300.95846    210235.26662
  22055254.634     2320666.474 6   1799046.76221
 93  9  1  1  5 29.9970000  0  8G21G 9G12G31G25G 1G28G23
  20184700.5244   -3252442.46547  -2504333.96663
  23758875.829    -2238758.555 5  -1706485.43721
  23459128.556    -6037875.714 5   -825155.20421
  21817521.7904   -8633269.80646  -6649717.98061
  23532262.1734   -1436212.67145   -916089.64761
  19594579.5874   -8838487.05247  -6809160.99163
  21312751.1104     269344.30446    237541.71462
  22059727.0174    2344174.76146   1817364.88761
 93  9  1  1  5 59.9970000  0  8G21G 9G12G31G25G 1G28G23
  20182336.3684   -3264863.09747  -2514012.38064
  23761737.4074   -2223723.67645  -1694769.92161
  23452944.7594   -6070354.90845   -850463.62561
  21811578.9784   -8664502.20546  -6674054.93361
  23507378.8534   -1566977.89645  -1017984.45861
  19587892.7984   -8873625.55547  -6836541.62663
  21319500.642      304810.449 6    265177.61822
  22064213.626     2367752.290 6   1835736.93521
 93  9  1  1  6 29.9970000  0  8G21G 9G12G31G25G 1G28G23
  20180006.0794   -3277108.96747  -2523554.61763
  23764687.251    -2208216.322 5  -1682686.26621
  23446881.298    -6102214.677 5   -875289.36321
  21805735.7124   -8695197.66346  -6697973.48761
  23482494.751    -1697746.954 5  -1119882.24521
  19581300.9704   -8908267.84347  -6863535.60763
  21326327.9544     340684.30546    293131.21362
  22068715.8214    2391406.33946   1854168.64961
 93  9  1  1  6 59.9970000  0  8G21G 9G12G31G25G 1G28G23
  20177708.6654   -3289183.28647  -2532963.17963
  23767726.6814   -2192257.87945  -1670251.11461
  23440934.6654   -6133459.87445   -899636.24461
  21799999.3844   -8725363.91946  -6721479.67561
  23457607.6264   -1828530.26845  -1221791.13961
  19574802.7284   -8942410.83647  -6890140.52663
  21333231.4624     376958.70646    321396.92162
  22073233.306     2415148.988 6   1872669.38321
 93  9  1  1  7 29.9970000  0  8G21G 9G12G31G25G 1G28G23
  20175447.3534   -3301064.92447  -2542221.59964
  23770848.954    -2175847.920 5  -1657464.12121
  23435109.618    -6164080.878 5   -923496.69321
  21794359.4544   -8754996.79746  -6744570.25261
  23432719.8604   -1959321.77645  -1323706.45661
  19568402.6814   -8976050.54047  -6916353.27063
  21340213.0324     413646.77646    349984.97562
  22077771.7744    2439000.27746   1891254.77661
 93  9  1  1  7 59.9970000  0  8G21G 9G12G31G25G 1G28G23
  20173225.8064   -3312737.87647  -2551317.41163
  23774055.5644   -2158982.42045  -1644322.18961
  23429402.3214   -6194068.97845   -946864.02561
  21788825.0794   -8784083.78246  -6767235.45361
  23407829.4314   -2090110.09745  -1425619.27861
  19562096.3214   -9009184.00747  -6942171.54763
  21347275.5874     450760.87746    378904.99462
  22082333.2594    2462965.32946   1909928.81661
 93  9  1  1  8 29.9970000  0  8G21G 9G12G31G25G 1G28G23
  20171041.7984   -3324216.94447  -2560262.14464
  23777353.1344   -2141659.41745  -1630823.70461
  23423813.829    -6223433.069 5   -969745.05421
  21783396.9544   -8812604.53246  -6789459.43661
  23382938.423    -2220904.723 5  -1527537.03321
  19555887.2514   -9041811.57847  -6967595.61663
  21354418.079      488297.178 6    408154.00622
  22086912.4074    2487030.46946   1928680.85361
 93  9  1  1  8 59.9970000  0  8G21G 9G12G31G25G 1G28G23
  20168892.3064   -3335501.96847  -2569055.67463
  23780736.9154   -2123863.93245  -1616957.09861
  23418347.4394   -6252171.64445   -992138.72761
  21778078.8294   -8840551.52446  -6811236.33361
  23358047.829    -2351717.092 5  -1629468.59821
  19549776.9314   -9073933.20147  -6992625.44063
  21361637.704      526238.955 6    437718.97122
  22091509.040     2511185.171 6   1947502.67721
 93  9  1  1  9 29.9970000  0  8G21G 9G12G31G25G 1G28G23
  20166781.9464   -3346595.93647  -2577700.33063
  23784216.2284   -2105583.12245  -1602712.28361
  23412998.540    -6280285.283 5  -1014045.42221
  21772868.0794   -8867928.75546  -6832569.26561
  23333152.931    -2482551.106 5  -1731417.03721
  19543756.2904   -9105566.14447  -7017274.47163
  21368933.5874     564573.94346    467590.33262
  22096117.9704    2535405.82546   1966375.88961
 93  9  1  1  9 59.9970000  0  8G21G 9G12G31G25G 1G28G23
  20164705.4544   -3357513.53547  -2586207.55963
  23787785.8994   -2086823.90645  -1588094.71661
  23407765.9704   -6307780.88945  -1035470.52961
  21767765.524    -8894745.908 6  -6853465.77421
  23308249.165    -2613405.431 5  -1833381.27621
  19537827.5714   -9136715.00347  -7041546.29963
  21376298.4394     603280.00946    497750.85062
  22100734.9854    2559668.00446   1985281.46961
 93  9  1  1 10 29.9970000  0  8G21G 9G12G31G25G 1G28G23
  20162662.1264   -3368251.06347  -2594574.47364
  23791447.7434   -2067592.62245  -1573109.27361
  23402652.985    -6334655.552 5  -1056411.77421
  21762770.087    -8921007.493 6  -6873929.37321
  23283343.4784   -2744276.63245  -1935358.69061
  19531991.9544   -9167378.75647  -7065440.11663
  21383734.6424     642354.58246    528198.51362
  22105358.962     2583969.933 6   2004218.00921
 93  9  1  1 10 59.9970000  0  8G21G15G12G31G25G 1G28G23
  20160653.6964   -3378800.34747  -2602794.70563
  23559420.5564         -0.70955
  23397652.290    -6360911.552 5  -1076870.96921
  21757874.946    -8946734.222 6  -6893976.19221
  23258438.228    -2875165.617 5  -2037349.97121
  19526249.6184   -9197560.31647  -7088958.20563
  21391237.8454     681784.76046    558923.26962
  22109993.0484    2608317.62346   2023190.21461
 93  9  1  1 11 29.9970000  0  8G21G15G12G31G25G 1G28G23
  20158687.3994   -3389144.23047  -2610854.88164
  23533284.9464    -137311.99245
  23392783.7904   -6386532.15145  -1096835.03661
  21753081.110    -8971901.853 6  -6913587.36521
  23233533.110    -3006040.916 5  -2139330.57721
  19520602.8764   -9227231.92847  -7112078.92463
  21398815.8684     721601.68046    589949.38761
  22114639.5324    2632742.34846   2042222.44461
 93  9  1  1 11 59.9970000  0  8G21G15G12G31G25G 1G28G23
  20156751.2674   -3399304.17747  -2618771.73064
  23507164.759     -274590.715 5        -0.42531
  23388021.509    -6411526.706 5  -1116311.28021
  21748399.134    -8996517.640 6  -6932768.52521
  23208630.962    -3136907.721 5  -2241304.58321
  19515054.1814   -9256393.94547  -7134802.55863
  21406461.720      761786.688 6    621262.33222
  22119304.8214    2657255.05646   2061323.22961
 93  9  1  1 12 29.9970000  0  8G21G15G12G31G25G 1G28G23
  20154852.2984   -3409284.11247  -2626548.30563
  23481048.360     -411841.345 5
  23383382.2204   -6435901.09745  -1135304.28061
  21743820.103    -9020586.718 6  -6951523.68021
  23183723.454    -3267786.261 5  -2343287.71621
  19509600.5714   -9285056.17147  -7157136.75063
  21414176.6034     802328.46446    652853.26962
  22123988.009     2681863.066 6   2080498.27421
 93  9  1  1 12 59.9970000  0  8G21G15G12G31G25G 1G28G23
  20152987.0484   -3419081.79347  -2634182.87064
  23454932.8924    -549055.24045        -0.26071
  23378861.8684   -6459648.14145  -1153808.47861
  21739342.821    -9044103.710 6  -6969848.64521
  23158817.048    -3398672.609 5  -2445276.95821
  19504243.3064   -9313210.65247  -7179075.29563
  21421958.228      843224.818 6    684720.50021
  22128690.509     2706568.705 6   2099749.39521
 93  9  1  1 13 29.9970000  0  8G21G15G12G31G25G 1G28G23
  20151159.0014   -3428698.78247  -2641676.63264
  23428835.6814    -686233.63845   -106892.47061
  23374466.3924   -6482771.09345
  21734975.470    -9067070.258 6
  23133909.9464   -3529566.50945  -2547272.08361
  19498978.0244   -9340877.30947  -7200633.71463
  21429809.6894     884476.66346    716864.73561
  22133407.290     2731361.834 6   2119068.67721
 93  9  1  1 13 59.9970000  0  8G21G15G12G31G25G 1G28G23
  20149365.7354   -3438120.68047  -2649018.37664
  23402730.7744    -823379.62745   -213759.41561
  23370178.946    -6505275.019 5
  21730708.899    -9089497.749 6
  23108999.3924   -3660474.17345  -2649277.90461
  19493800.8294   -9368077.90347  -7221828.97263
  21437725.5564     926079.46746    749282.45661
  22138138.0644    2756229.12046   2138445.75961
 93  9  1  1 14 29.9970000  0  8G21G15G12G31G25G 1G28G23
  20147617.6494   -3447315.10747  -2656182.86864
  23376646.6654    -960477.69945   -320589.03861
  23366021.790    -6527146.088 5
  21726542.798    -9111376.729 6
  23084090.446    -3791367.144 5  -2751272.32721
  19488716.7204   -9394793.92047  -7242646.63463
  21445713.2674     968055.25046    781990.79861
  22142885.3454    2781176.11746   2157884.92961
 93  9  1  1 14 59.9970000  0  8G21G15G12G31G25G 1G28G23
  20145908.1184   -3456293.05947  -2663178.68064
  23350564.1814   -1097537.84945   -427389.15461
  23361975.1344   -6548396.46245
  21722480.899    -9132712.182 6
  23059186.720    -3922229.132 5  -2853242.59121
  19483723.3374   -9421037.13747  -7263095.88563
  21453769.048     1010389.935 6    814978.80921
  22147649.0484    2806199.12246   2177383.33961
 93  9  1  1 15 29.9970000  0  8G21G15G12G31G25G 1G28G23
  20144240.0954   -3465053.51947  -2670005.01464
  23324484.8144   -1234554.72545   -534155.50161
  23358053.0174   -6569022.26045  -1239034.88361
  21718521.306    -9153507.975 6  -7055098.86621
  23034295.1344   -4053041.62845  -2955174.28361
  19478820.8604   -9446810.41047  -7283178.94163
  21461893.9074    1053084.77146    848247.45661
  22152425.032     2831301.960 6   2196943.95321
 93  9  1  1 15 59.9970000  0  8G21G15G12G31G25G 1G28G23
  20142609.7204   -3473624.88047  -2676683.99963
  23298421.4624   -1371536.16344   -640894.24261
  23354242.267    -6589033.254 5  -1254627.89121
  21714667.274    -9173781.351 6  -7070896.33621
  23009411.118    -4183809.606 5  -3057071.31321
  19474007.0014   -9472102.32147  -7302886.91163
  21470082.7744    1096111.56646    881774.77661
  22157213.415     2856466.519 6   2216552.66721
 93  9  1  1 16 29.9970000  0  8G21G15G12G31G25G 1G28G23
  20141009.1104   -3482040.32147  -2683241.48564
  23272365.915    -1508480.756 5   -747604.27121
  23350555.5404   -6608430.32145  -1269742.44261
  21710912.314    -9193532.672 6  -7086287.01121
  22984534.2434   -4314534.21245  -3158934.52561
  19469283.6034   -9496909.89647  -7322217.47563
  21478329.0714    1139446.93146    915542.53361
  22162012.7824    2881692.82746   2236209.48361
 93  9  1  1 16 59.9970000  0  8G21G15G12G31G25G 1G28G23
  20139434.7674   -3490309.59347  -2689685.07263
  23246311.6494   -1645384.71145   -854282.59561
  23346981.579    -6627211.602 5  -1284377.18421
  21707248.017    -9212762.648 6  -7101271.45421
  22959664.899    -4445230.043 5  -3260775.30921
  19464655.4394   -9521243.04747  -7341178.36163
  21486634.798     1183095.672 6    949554.49921
  22166825.5174    2906978.81846   2255912.82861
 93  9  1  1 17 29.9970000  0  8G21G15G12G31G25G 1G28G23
  20137887.9544   -3498432.37647  -2696014.51563
  23220267.939    -1782244.857 4   -960926.78221
  23343520.6034   -6645375.87845  -1298531.15861
  21703686.790    -9231486.817 6  -7115861.75921
  22934796.493    -4575910.504 5  -3362604.12921
  19460117.2044   -9545097.31447  -7359766.09563
  21495002.267     1227065.214 6    983816.42921
  22171646.720     2932309.242 6   2275650.78321
 93  9  1  1 17 59.9970000  0  8G21G15G12G31G25G 1G28G23
  20136375.1494   -3506384.86947  -2702211.26563
  23194234.1104   -1919049.72444  -1067527.89561
  23340185.657    -6662913.779 5  -1312197.01321
  21700225.368    -9249688.173 6  -7130044.68621
  22909931.3684   -4706576.46845  -3464421.65261
  19455670.0244   -9568459.71147  -7377970.54963
  21503431.9394    1271369.61946   1018339.29661
  22176478.6424    2957709.37346   2295443.06361
 93  9  1  1 18 29.9970000  0  8G21G15G12G31G25G 1G28G23
  20134897.9234   -3514149.42847  -2708261.57063
  23168210.2284   -2055798.30244  -1174085.12061
  23336967.8534   -6679826.60645  -1325375.81561
  21696856.0014   -9267363.47046  -7143817.69061
  22885065.6424   -4837235.43745  -3566233.73761
  19451316.9394   -9591344.11247  -7395802.54063
  21511928.8994    1316017.35746   1053129.69161
  22181327.3844    2983183.85346   2315293.27061
 93  9  1  1 18 59.9970000  0  8G21G15G12G31G25G 1G28G23
  20133462.5714   -3521706.33947  -2714150.07963
  23142202.6814   -2192494.14845  -1280601.27061
  23333869.446    -6696119.673 5  -1338071.66721
  21693591.1184   -9284528.37746  -7157192.99061
  22860205.7284   -4967887.43645  -3668040.37761
  19447048.5714   -9613754.26447  -7413264.98763
  21520492.767     1361010.157 6   1088188.96921
  22186186.946     3008717.722 6   2335189.75721
 93  9  1  1 19 29.9970000  0  8G21G15G12G31G25G 1G28G23
  20132061.1184   -3529056.06247  -2719877.13464
  23116197.3374   -2329144.16545  -1387081.72561
  23330883.9314   -6711802.61845  -1350292.11661
  21690421.8994   -9301190.31546  -7170176.36961
  22835346.767    -5098528.250 5  -3769838.28421
  19442876.1034   -9635698.95547  -7430364.73963
  21529111.4074    1406316.46846   1123492.52761
  22191055.5954    3034309.13246   2355131.09961
 93  9  1  1 19 59.9970000  0  8G21G15G12G31G25G 1G28G23
  20130707.2674   -3536179.18247  -2725427.62164
  23090201.978    -2465732.281 5  -1493513.92221
  23328017.204    -6726861.875 5  -1362026.58821
  21687350.360    -9317319.619 6  -7182744.71121
  22810491.204    -5229137.329 5  -3871611.47021
  19438786.6894   -9657179.08647  -7447102.49463
  21537793.853     1451933.623 6   1159038.31121
  22195943.212     3059991.179 6   2375143.04421
 93  9  1  1 20 29.9970000  0  8G21G15G12G31G25G 1G28G23
  20129393.3294   -3543085.22347  -2730808.95563
  23064219.5014   -2602253.00345  -1599893.63161
  23325269.860    -6741293.570 5  -1373272.01921
  21684388.5644   -9332907.86646  -7194891.45561
  22785649.3924   -5359687.20345  -3973338.52761
  19434786.0874   -9678199.27947  -7463481.85663
  21546533.2124    1497860.32246   1194825.29161
  22200846.814     3085760.471 6   2395222.97521
 93  9  1  1 20 59.9970000  0  8G21G15G12G31G25G 1G28G23
  20128116.1734   -3549801.37847  -2736042.33063
  23038260.509    -2738711.320 5  -1706224.68621
  23322640.0014   -6755105.56145  -1384034.58861
  21681516.3454   -9347963.58346  -7206623.23361
  22760817.306    -5490171.894 5  -4075014.81021
  19430872.7204   -9698763.77747  -7479506.13063
  21555330.524     1544091.460 6   1230849.49821
  22205768.0014    3111617.05046   2415370.94361
 93  9  1  1 21 29.9970000  0  8G21G15G12G31G25G 1G28G23
  20126872.2824   -3556335.35247  -2741133.74163
  23012305.1104   -2875094.35845  -1812497.12261
  23320131.860    -6768286.987 5  -1394305.82121
  21678760.8214   -9362460.98346  -7217919.97361
  22736000.962    -5620582.590 6  -4176633.40221
  19427048.2204   -9718870.05447  -7495173.35063
  21564189.3534    1590645.76546   1267125.51161
  22210709.814     3137587.601 6   2435607.71721
 93  9  1  1 21 59.9970000  0  8G21G15G12G31G25G 1G28G23
  20125660.4464   -3562692.21147  -2746087.14363
  22986365.7044   -3011392.09345  -1918703.07561
  23317747.6814   -6780830.48245  -1404079.92861
  21676113.212    -9376387.627 6  -7228771.95721
  22711202.0244   -5750907.81546  -4278185.42361
  19423310.1894   -9738517.80347  -7510483.27463
  21573112.0644    1637540.06546   1303666.46361
  22215672.884     3163667.811 6   2455929.93621
 93  9  1  1 22 29.9970000  0  8G21G15G12G31G25G 1G28G23
  20124481.7824   -3568896.10047  -2750921.34863
  22960444.7124   -3147612.09745  -2024848.46961
  23315474.446    -6792746.173 5  -1413364.85521
  21673567.8604   -9389775.07046  -7239203.79061
  22686416.751    -5881156.860 6  -4379678.06921
  19419655.7284   -9757707.40447  -7525436.20163
  21582101.2354    1684769.69246   1340468.70861
  22220649.064     3189823.945 6   2476311.27221
 93  9  1  1 22 59.9970000  0  8G21G15G12G31G25G 1G28G23
  20123333.8454   -3574932.85847  -2755625.32563
  22934541.7824   -3283749.96245  -2130929.87961
  23313327.0324   -6804032.18545  -1422159.11861
  21671118.306    -9402633.896 6  -7249223.71221
  22661640.2824   -6011347.04245  -4481124.84461
  19416092.9464   -9776435.21047  -7540029.28263
  21591150.4784    1732324.27446   1377524.15161
  22225642.1424    3216055.75946   2496751.64561
 93  9  1  1 23 29.9970000  0  8G21G15G12G31G25G 1G28G23
  20122218.3844   -3580784.37447  -2760184.94863
  22908647.2744   -3419807.54545  -2236948.69961
  23311305.0404   -6814692.51645  -1430465.83961
  21668769.2904   -9414969.94646  -7258836.27861
  22636880.6034   -6141472.65146  -4582521.31161
  19412616.1574   -9794713.78547  -7554272.31663
  21600256.6734    1780180.23746   1414814.44861
  22230646.3144    3242353.85846   2517243.62961
 93  9  1  1 23 59.9970000  0  8G21G15G12G31G25G 1G28G23
  20121142.1574   -3586445.39547  -2764596.13563
  22882771.5094   -3555788.73745  -2342908.01161
  23309387.626    -6824734.268 5  -1438290.52921
  21666515.0244   -9426813.42446  -7268065.01661
  22612131.845    -6271525.513 6  -4683861.09421
  19409221.4314   -9812544.18647  -7568166.12463
  21609413.3844    1828305.59946   1452314.65461
  22235661.290     3268702.452 6   2537774.93921
 93  9  1  1 24 29.9970000  0  8G21G15G12G31G25G 1G28G23
  20120100.4934   -3591919.54347  -2768861.70263
  22856909.7354   -3691697.67845  -2448811.02261
  23307596.509    -6834164.093 5  -1445638.42121
  21664349.4784   -9438189.06046  -7276929.21561
  22587395.1894   -6401514.17246  -4785150.84461
  19405915.8534   -9829918.75847  -7581704.73963
  21618621.4314    1876690.92846   1490017.43061
  22240685.845     3295115.899 6   2558356.83121
 93  9  1  1 24 59.9970000  0  8G21G15G12G31G25G 1G28G23
  20119096.2594   -3597191.18247  -2772969.47663
  22831062.954    -3827518.068 5  -2554645.02221
  23305921.103    -6842967.799 5  -1452498.42521
  21662279.5714   -9449070.70046  -7285408.47861
  22562675.204    -6531420.221 6  -4886376.23621
  19402700.2514   -9846822.75347  -7594876.67363
  21627882.9074    1925348.77146   1527932.55161
  22245730.7354    3321620.59446   2579009.80361
 93  9  1  1 25 29.9970000  0  8G21G15G12G31G25G 1G28G23
  20118125.5244   -3602291.01847  -2776943.37663
  22805233.6424   -3963260.45945  -2660418.24961
  23304359.993    -6851159.260 5  -1458881.34821
  21660307.0484   -9459460.82646  -7293504.73561
  22537967.735    -6661253.691 6  -4987545.05821
  19399568.6494   -9863271.47347  -7607693.84363
  21637191.0404    1974270.22346   1566053.08761
  22250790.5874    3348213.15946   2599731.24161
 93  9  1  1 25 59.9970000  0  8G21G15G12G31G25G 1G28G23
  20117185.5014   -3607236.64147  -2780797.10663
  22779417.181    -4098925.580 5  -2766131.28221
  23302920.1104   -6858741.59245  -1464789.64661
  21658420.9784   -9469365.13046  -7301222.43461
  22513272.1424   -6791031.14546  -5088670.22961
  19396524.3374   -9879256.61647  -7620149.79163
  21646552.540     2023464.931 6   1604386.54521
  22255868.4234    3374894.23546   2620521.64461
 93  9  1  1 26 29.9970000  0  8G21G15G12G31G25G 1G28G23
  20116272.8764   -3612028.79647  -2784531.24963
  22753618.9704   -4234502.11945  -2871775.26261
  23301596.360    -6865706.328 5  -1470216.69121
  21656634.5714   -9478759.09246  -7308542.47561
  22488586.540    -6920759.663 6  -5189757.27421
  19393572.7594   -9894771.44947  -7632239.25963
  21655970.1814    2072959.49146   1642953.64861
  22260962.446     3401670.418 6   2641386.18221
 93  9  1  1 26 59.9960000  0  8G21G15G12G31G25G 1G28G23
  20115391.2774   -3616654.01747  -2788135.31763
  22727833.2464   -4369985.58045  -2977346.72561
  23300387.137    -6872056.120 5  -1475164.55321
  21654947.7314   -9487632.77546  -7315457.09761
  22463908.965    -7050427.447 6  -5290796.98221
  19390709.7854   -9909828.77247  -7643972.22363
  21665444.8244    2122740.42046   1681743.91061
  22266072.949     3428520.016 6   2662307.89921
 93  9  1  1 27 29.9960000  0  8G21G15G12G31G25G 1G28G23
  20114547.0274   -3621103.53447  -2791602.47663
  22702069.3324   -4505385.80545  -3082853.31661
  23299294.5744   -6877795.31645  -1479636.65861
  21653355.1454   -9495993.95446  -7321972.35961
  22439246.7464   -7180035.72246  -5391790.32261
  19387929.0594   -9924436.55247  -7655354.89663
  21674968.676     2172797.854 6   1720749.62621
  22271195.6214    3455440.87446   2683285.18661
 93  9  1  1 27 59.9960000  0  8G21G15G12G31G25G 1G28G23
  20113736.8954   -3625349.93947  -2794911.36463
  22676322.2774   -4640691.91945  -3188286.58061
  23298317.5204   -6882920.20845  -1483630.02461
  21651856.0514   -9503857.57346  -7328099.92261
  22414597.981    -7309560.366 6  -5492718.51121
  19385237.0664   -9938591.15047  -7666384.44163
  21684548.8094    2223129.95146   1759969.36761
  22276328.1994    3482414.61746   2704303.62961
 93  9  1  1 28 29.9960000  0  8G21G15G12G31G25G 1G28G23
  20112975.0824   -3629369.38047  -2798043.39163
  22650596.1454   -4775893.87545  -3293638.69261
  23297460.8954   -6887423.84045  -1487139.33361
  21650456.4964   -9511213.46746  -7333831.84761
  22389972.1994   -7438971.91646  -5593558.55661
  19382626.1064   -9952297.19847  -7677064.46763
  21694173.2934    2273725.38246   1799394.30061
  22281472.082     3509447.536 6   2725368.21721
 93  9  1  1 28 59.9960000  0  8G21G15G12G31G25G 1G28G23
  20112255.2154   -3633149.05747
  22624884.371    -4910988.896 5  -3398907.48421
  23296723.4344   -6891305.96745
  21649153.3874   -9518056.70846  -7339164.29361
  22365371.918    -7568246.157 6  -5694291.61921
  19380103.0984   -9965561.51947  -7687400.28763
  21703848.6914    2324560.45046   1839005.96861
  22286630.7464    3536551.47046   2746488.12861
 93  9  1  1 29 29.9960000  0  8G21G15G12G31G25G 1G28G23
  20111579.4184   -3636702.96947  -2803757.87663
  22599197.035    -5045975.025 5  -3504091.39921
  23296105.0904   -6894568.07045  -1492706.21161
  21647948.2314   -9524391.71446  -7344100.72761
  22340797.746    -7697385.427 6  -5794919.50721
  19377659.9024   -9978394.36047  -7697399.89163
  21713568.4654    2375642.51846   1878810.10461
  22291800.246     3563726.169 6   2767663.21621
 93  9  1  1 29 59.9960000  0  8G21G15G12G31G25G 1G28G23
  20110940.1524   -3640057.24047  -2806371.59963
  22573530.816    -5180862.639 5  -3609198.59421
  23295599.4734   -6897223.55845  -1494775.41961
  21646841.348    -9530233.048 6  -7348652.47021
  22316246.6844   -7826405.36746  -5895454.41961
  19375294.9654   -9990814.49547  -7707077.91163
  21723334.4184    2426960.56146   1918798.12661
  22296984.7234    3590959.91646   2788884.25661
 93  9  1  1 30 29.9960000  0  8G21G15G12G31G25G 1G28G23
  20110337.2464   -3643221.02747  -2808836.89063
  22547881.5594   -5315635.71645  -3714216.52261
  23295209.4964   -6899259.42545  -1496361.79761
  21645821.5904   -9535561.85546  -7352804.85061
  22291717.2854   -7955299.37446  -5995891.20261
  19373016.0594  -10002809.99947  -7716425.04763
  21733146.4024    2478522.67546   1958976.33361
  22302183.3324    3618288.18546   2810178.97561
 93  9  1  1 30 59.9960000  0  8G21G15G12G31G25G 1G28G23
  20109767.0044   -3646208.15247  -2811164.51863
  22522262.488    -5450293.973 5  -3819144.97621
  23294937.941    -6900678.362 5  -1497467.43921
  21644907.2314   -9540388.63046  -7356566.02561
  22267209.559    -8084085.201 6  -6096243.68621
  19370813.4734  -10014387.26447  -7725446.28263
  21743006.8324    2530340.33846   1999353.66361
  22307401.3094    3645704.67446   2831542.46561
 93  9  1  1 31 29.9960000  0  8G21G15G12G31G25G 1G28G23
  20109230.4574   -3649033.76247  -2813366.29563
  22496656.598    -5584839.533 5  -3923985.62321
  23294791.7384   -6901485.76945  -1498096.55261
  21644079.2234   -9544738.72846  -7359955.77461
  22242721.3714   -8212782.69746  -6196527.33861
  19368688.8014  -10025540.52547  -7734137.12463
  21752918.5204    2582418.62746   2039934.08861
  22312635.629     3673206.412 6   2852972.38221
 93  9  1  1 31 59.9960000  0  8G21G15G12G31G25G 1G28G23
  20108727.2704   -3651690.07447  -2815436.15363
  22471073.504    -5719264.588 5  -4028732.37721
  23294746.762    -6901676.918 5
  21643337.3714   -9548613.42146  -7362975.07361
  22218246.082    -8341391.472 6  -6296741.86221
  19366648.7384  -10036254.41447  -7742485.60163
  21762874.941     2634739.854 6   2080703.82221
  22317890.6134    3700814.32546   2874484.99661
 93  9  1  1 32 29.9960000  0  8G21G15G12G31G25G 1G28G23
  20108257.5354   -3654156.43247  -2817357.99663
  22445520.9414   -5853565.47445  -4133382.37061
  23294828.6454   -6901251.82845
  21642697.2314   -9552004.70946  -7365617.69561
  22193788.348    -8469918.259 6  -6396892.50021
  19364696.0514  -10046520.26347  -7750484.94963
  21772877.012     2687300.480 6   2121660.09821
  22323161.441     3728528.317 6   2896080.28521
 93  9  1  1 32 59.9960000  0  8G21G15G12G31G25G 1G28G23
  20107828.2544   -3656421.39047  -2819122.90763
  22419987.7544   -5987739.16345  -4237933.23361
  23295026.8164   -6900210.59345  -1497102.86061
  21642141.2314   -9554905.12446  -7367877.81661
  22169347.410    -8598355.110 6  -6496973.06721
  19362829.0354  -10056329.19447  -7758128.26163
  21782920.4654    2740093.92246   2162797.78561
  22328456.6454    3756344.47946   2917755.19261
 93  9  1  1 33 29.9960000  0  8G21G15G12G31G25G 1G28G23
  20107430.3954   -3658493.63147  -2820737.65063
  22394478.6374   -6121791.67045  -4342389.68561
  23295346.2314   -6898562.54645  -1495818.65361
  21641682.9654   -9557320.98446  -7369760.36261
  22144923.059    -8726701.113 6  -6596982.83321
  19361049.9964  -10065688.75847  -7765421.42263
  21793009.840     2793093.713 6   2204096.26221
  22333765.6214    3784256.07145   2939504.44061
 93  9  1  1 33 59.9960000  0  8G21G15G12G31G25G 1G28G23
  20107075.5434   -3660358.94347
  22368989.4494   -6255724.64745  -4446753.00661
  23295771.1844   -6896312.65245  -1494065.45861
  21641314.2774   -9559247.35646
  22120520.4964   -8854942.30646  -6696910.92561
  19359352.1454  -10074611.40847  -7772374.12563
  21803132.7384    2846294.20546   2245551.12761
  22339093.012     3812238.863 6   2961309.17721
 93  9  1  1 34 29.9960000  0  8G21G15G12G31G25G 1G28G23
  20106762.1604   -3662001.68447  -2823471.20763
  22343530.4344   -6389523.33345  -4551011.67861
  23296308.2854   -6893449.10945  -1491834.10461
  21641047.1764   -9560667.62746  -7372368.25561
  22096142.449    -8983045.894 6  -6796731.80421
  19357738.2704  -10083097.82547  -7778986.90563
  21813299.668     2899728.566 6   2287188.24621
  22344431.3954    3840289.20946   2983166.56361
 93  9  1  1 34 59.9960000  0  8G21G15G12G31G25G 1G28G23
  20106492.1294   -3663438.44647  -2824590.76963
  22318096.582    -6523183.618 5  -4655162.50621
  23296976.285    -6889971.779 5  -1489124.49221
  21640870.965    -9561599.207 6  -7373094.21921
  22071797.1994   -9110982.63846  -6896422.66461
  19356200.8714  -10091158.04247  -7785267.58063
  21823513.770     2953398.093 6   2329008.60121
  22349779.3094    3868401.62846   3005072.31361
 93  9  1  1 35 29.9960000  0  8G21G15G12G31G25G 1G28G23
  20106255.6374   -3664677.61647  -2825556.36763
  22292683.481    -6656717.082 5  -4759214.51821
  23297752.6524   -6885895.77145  -1485948.36661
  21640775.6134   -9562065.43846
  22047483.152    -9238761.879 6  -6995990.80221
  19354746.2464  -10098817.66847  -7791236.10863
  21833768.4024    3007296.22146   2371007.09161
  22355135.660     3896551.326 6   3027007.12921
 93  9  1  1 35 59.9960000  0  8G21G15G12G31G25G 1G28G23
  20106055.4344   -3665716.24947  -2826365.69663
  22267298.1844   -6790123.73545  -4863167.71061
  23298643.7234   -6881224.61245  -1482308.48661
  21640778.8954   -9562076.71946
  22023198.621    -9366377.846 6  -7095431.71421
  19353364.1914  -10106076.82647  -7796892.58463
  21844068.5274    3061422.22246   2413183.13761
  22360498.902     3924741.860 5   3048973.72521
 93  9  1  1 36 29.9960000  0  8G21G15G12G31G25G 1G28G23
  20105898.6064   -3666562.30447  -2827024.95963
  22241937.652    -6923391.489 5  -4967012.67521
  23299646.7234   -6875949.38945  -1478197.90561
  21640863.793    -9561633.595 6
  21998945.934    -9493823.619 6  -7194740.00121
  19352059.0824  -10112928.83947  -7802231.80063
  21854414.731     3115778.995 6   2455539.01221
  22365878.996     3953009.220 6   3071000.19021
 93  9  1  1 36 59.9960000  0  8G21G15G12G31G25G 1G28G23
  20105775.5984   -3667201.25547  -2827522.84963
  22216607.496    -7056501.689 6  -5070734.87121
  23300767.0984   -6870055.43945  -1473605.18361
  21641029.5274   -9560730.42546  -7372417.44061
  21974727.309    -9621088.286 6  -7293907.18121
  19350837.1914  -10119346.48147  -7807232.55063
  21864800.4494    3170359.79745   2498069.43461
  22371279.9184    3981379.85746   3093107.18761
 93  9  1  1 37 29.9960000  0  8G21G15G12G31G25G 1G28G23
  20105688.1454   -3667637.60247  -2827862.85963
  22191306.340    -7189461.894 6  -5174340.18521
  23302001.7624   -6863553.70945  -1468538.90261
  21641294.184    -9559364.043 6  -7371352.77121
  21950538.309    -9748204.824 6  -7392958.93221
  19349701.6684  -10125341.07647  -7811903.65463
  21875225.0124    3225141.69445   2540756.57061
  22376698.2704    4009861.50946   3115300.65761
 93  9  1  1 37 59.9960000  0  8G21G15G12G31G25G 1G28G23
  20105646.1214   -3667884.19647
  22166035.465    -7322271.736 6  -5277828.34021
  23303357.645    -6856447.695 5  -1463001.71121
  21641642.043    -9557533.814 6  -7369926.66421
  21926376.348    -9875176.797 6  -7491898.02521
  19348635.1844  -10130920.57347  -7816251.29763
  21885685.5434    3280118.56645   2583595.64461
  22382139.106     4038455.621 5   3137581.77421
 93  9  1  1 38 29.9960000  0  8G21G15G12G31G25G 1G28G23
  20105633.4964   -3667957.46147
  22140788.738    -7454932.872 6  -5381200.62821
  23304820.5354   -6848742.46245  -1456997.63261
  21642081.0664   -9555228.67746  -7368130.50261
  21902240.699   -10002013.532 6  -7590731.74121
  19347651.3014  -10136095.64747  -7820283.81563
  21896185.551     3335287.354 5   2626584.25521
  22387601.2384    4067153.78046   3159943.90961
 93  9  1  1 38 59.9960000  0  8G21G15G12G31G25G 1G28G23
  20105646.1684   -3667861.01847
  22115573.168    -7587447.561 6  -5484458.80221
  23306399.9024   -6840444.30745  -1450531.51761
  21642612.941    -9552443.741 6  -7365960.46121
  21878127.027   -10128724.754 6  -7689467.65721
  19346744.4964  -10140870.30847  -7824004.31464
  21906720.1294    3390638.61346   2669715.02361
  22393078.8874    4095937.84546   3182373.03961
 93  9  1  1 39 29.9960000  0  8G21G15G12G31G25G 1G28G23
  20105699.832    -3667584.505 7
  22090386.4574   -7719806.12746  -5587595.32761
  23308093.941    -6831547.318 5  -1443598.78721
  21643236.176    -9549162.221 6  -7363403.47021
  21854040.1764  -10255304.87746  -7788101.44161
  19345912.6454  -10145239.66647  -7827409.00264
  21917289.2234    3446188.10246   2713000.26961
  22398572.879     4124808.537 6   3204869.66621
 93  9  1  1 39 59.9960000  0  8G21G15G12G31G25G 1G28G23
  20105789.8714   -3667126.54847  -2827464.63863
  22065226.887    -7852010.601 6  -5690611.76921
  23309899.8564   -6822057.00845  -1436203.71561
  21643955.176    -9545398.446 6  -7360470.70521
  21829979.965   -10381743.262 6  -7886624.75621
  19345157.1604  -10149206.35147  -7830499.91364
  21927896.9654    3501938.78846   2756442.30561
  22404077.4734    4153745.58545   3227417.98661
 93  9  1  1 40 29.9960000  0  8G21G15G12G31G25G 1G28G23
  20105912.4344   -3666473.51847  -2826955.78763
  22040100.738    -7984052.355 6  -5793501.41021
  23311816.5824   -6811969.00245  -1428342.92561
  21644763.981    -9541155.690 6  -7357164.69521
  21805948.074   -10508029.321 6  -7985029.38921
  19344478.9574  -10152759.39447  -7833268.51264
  21938545.621     3557888.366 6   2800039.30521
  22409601.168     4182767.019 6   3250032.04121
 93  9  1  1 40 59.9960000  0  8G21G15G12G31G25G 1G28G23
  20106077.6454   -3665600.22747  -2826275.30263
  22015006.543    -8115928.094 6  -5896261.70021
  23313852.160    -6801283.403 5  -1420016.46921
  21645656.816    -9536446.090 6  -7353494.91621
  21781947.387   -10634153.551 6  -8083307.90821
  19343886.3244  -10155889.44347  -7835707.50464
  21949227.6764    3614029.29845   2843785.41661
  22415139.8244    4211869.88346   3272709.61961
 93  9  1  1 41 29.9960000  0  8G21G15G12G31G25G 1G28G23
  20106288.9104   -3664500.31347  -2825418.21963
  21989942.7934   -8247638.81946  -5998893.40761
  23315999.004    -6790005.296 5  -1411228.31621
  21646639.957    -9531289.897 6  -7349477.13721
  21757980.746   -10760102.686 6  -8181449.99121
  19343366.2464  -10158611.56247  -7837828.62664
  21959945.418     3670351.392 5   2887672.67221
  22420693.6604    4241057.48146   3295453.19861
 93  9  1  1 41 59.9960000  0  8G21G15G12G31G25G 1G28G23
  20106536.2154   -3663175.92047  -2824386.22763
  21964908.4104   -8379179.97746  -6101392.97161
  23318259.691    -6778134.195 5  -1401978.08521
  21647699.199    -9525697.074 6  -7345119.13321
  21734049.410   -10885861.526 6  -8279443.79921
  19342929.7544  -10160927.43847  -7839633.20064
  21970695.0984    3726849.10446   2931696.78061
  22426267.4574    4270345.48145   3318274.99361
 93  9  1  1 42 29.9960000  0  8G21G15G12G31G25G 1G28G23
  20106829.0124   -3661648.19347  -2823195.79063
  21939909.731    -8510560.807 6  -6203767.59821
  23320626.2314   -6765683.28045  -1392276.05761
  21648843.176    -9519682.268 6  -7340432.31221
  21710152.4344  -11011434.15646  -8377292.51061
  19342562.4264  -10162846.91947  -7841128.88864
  21981475.7234    3783492.89046   2975834.72161
  22431858.184     4299732.306 5   3341173.80121
 93  9  1  1 42 59.9960000  0  8G21G15G12G31G25G 1G28G23
  20107163.9414   -3659901.49247  -2821834.71963
  21914946.918    -8641757.157 6  -6305998.48521
  23323111.9024   -6752632.31745  -1382106.46661
  21650072.027    -9513229.004 6  -7335403.83321
  21686298.035   -11136790.785 6  -8474972.90321
  19342274.8794  -10164348.31647  -7842298.80564
  21992287.6914    3840303.73846   3020102.83161
  22437471.598     4329223.311 5   3364153.77721
 93  9  1  1 43 29.9960000  0  8G21G15G12G31G25G 1G28G23
  20107531.5274   -3657964.62947  -2820325.47863
  21890009.543    -8772779.225 6  -6408093.56021
  23325705.3794   -6738995.64145  -1371480.45861
  21651384.746    -9506350.295 6  -7330043.83421
  21662480.848   -11261948.945 6  -8572498.64521
  19342063.2934  -10165454.92947  -7843161.09664
  22003126.2384    3897268.45845   3064490.83861
  22443102.762     4358808.680 5   3387207.23721
 93  9  1  1 43 59.9960000  0  8G21G15G12G31G25G 1G28G23
  20107933.2934   -3655842.39547  -2818671.78963
  21865114.035    -8903620.208 6  -6510047.52321
  23328414.0204   -6724770.59145  -1360396.00561
  21652775.816    -9499028.112 6  -7324338.27721
  21638700.332   -11386923.634 6  -8669881.41121
  19341931.7314  -10166155.14647  -7843706.71164
  22013997.7384    3954391.10745   3109001.91361
  22448745.809     4388471.317 5   3410320.90521
 93  9  1  1 44 29.9960000  0  8G21G15G12G31G25G 1G28G23
  20108373.7544   -3653529.46247  -2816869.51363
  21840247.207    -9034277.395 6  -6611858.27521
  23331229.566    -6709958.229 5  -1348853.87721
  21654253.668    -9491258.009 6  -7318283.69321
  21614951.676   -11511721.060 6  -8767126.07021
  19341876.6994  -10166454.14447
  22024897.5984    4011672.00345   3153636.29361
  22454399.1294    4418190.37945   3433478.61861
 93  9  1  1 44 59.9960000  0  8G21G15G12G31G25G 1G28G23
  20108857.0744   -3651011.37347  -2814907.36563
  21815421.324    -9164746.701 6  -6713522.62821
  23334162.1684   -6694558.75245  -1336854.28861
  21655817.879    -9483034.434 6  -7311875.75321
  21591235.035   -11636352.527 6  -8864241.39721
  19341890.7544  -10166358.76047
  22035829.473     4069123.056 5   3198403.25821
  22460065.738     4447965.411 5   3456679.91521
 93  9  1  1 45 29.9960000  0  8G21G15G12G31G25G 1G28G23
  20109371.1454   -3648292.60547  -2812788.86263
  21790630.270    -9295032.048 6  -6815043.62721
  23337200.066    -6678580.610 5  -1324403.74621
  21657469.723    -9474368.482 6  -7305123.10221
  21567548.379   -11760822.445 6  -8961230.84221
  19341986.5594  -10165877.47547
  22046793.9884    4126729.54845   3243291.34561
  22465747.7544    4477810.61745   3479935.87661
 93  9  1  1 45 59.9960000  0  8G21G15G12G31G25G 1G28G23
  20109926.8014   -3645368.59347  -2810510.42063
  21765874.738    -9425120.581 6  -6916411.29021
  23340356.863    -6662014.664 5  -1311495.21821
  21659202.426    -9465250.261 6  -7298018.03621
  21543898.582   -11885102.691 6  -9058072.49121
  19342151.1214  -10165005.52047  -7842810.88164
  22057786.0984    4184502.26645   3288308.95261
  22471442.4184    4507752.06346   3503266.83061
 93  9  1  1 46 29.9960000  0  8G21G15G12G31G25G 1G28G23
  20110523.9734   -3642248.09647  -2808078.87363
  21741155.941    -9555018.528 6  -7017630.42921
  23343614.551    -6644871.398 5  -1298136.82521
  21661021.652    -9455700.461 6  -7290576.67321
  21520288.988   -12009176.517 6  -9154753.30221
  19342387.4964  -10163757.03647  -7841838.03064
  22068809.676     4242435.520 5   3333451.66421
  22477164.137     4537810.438 6   3526688.89621
 93  9  1  1 46 59.9960000  0  8G21G15G12G31G25G 1G28G23
  20111155.7154   -3638934.07547  -2805496.52963
  21716472.949    -9684720.039 6  -7118696.51021
  23346989.2234   -6627149.52345  -1284327.56861
  21662924.027    -9445726.301 6  -7282804.63421
  21496718.090   -12133040.450 6  -9251270.54821
  19342693.4574  -10162137.13747  -7840575.76764
  22079862.762     4300519.757 5   3378712.01821
  22482910.3484    4568008.48746   3550219.82961
 93  9  1  1 47 29.9960000  0  8G21G15G12G31G25G 1G28G23
  20111822.1214   -3635429.35447  -2802765.58763
  21691833.223    -9814220.489 6  -7219605.91321
  23350469.066    -6608848.285 5  -1270066.83621
  21664894.363    -9435330.248 6  -7274703.86221
  21473190.293   -12256675.636 6  -9347609.55921
  19343074.0594  -10160144.10547  -7839022.75364
  22090944.3874    4358745.53045   3424082.66461
  22488684.4344    4598345.08146   3573858.75061
 93  9  1  1 47 59.9960000  0  8G21G15G12G31G25G 1G28G23
  20112524.7074   -3631728.06447  -2799881.46963
  21667227.668    -9943515.129 6  -7320354.94921
  23354067.2854   -6589967.57145  -1255354.57561
  21666962.176    -9424494.114 6  -7266260.15921
  21449705.715   -12380090.352 6  -9443776.76821
  19343523.4344  -10157783.35647  -7837183.20464
  22102048.207     4417110.294 5   3469561.59921
  22494478.848     4628797.826 6   3597588.17921
 93  9  1  1 48 29.9960000  0  8G21G15G12G31G25G 1G28G23
  20113265.6374   -3627817.43747  -2796834.25363
  21642664.285   -10072600.319 6  -7420940.78321
  23357769.3634   -6570508.31945  -1240191.52361
  21669103.715    -9413223.647 6  -7257478.01321
  21426259.582   -12503296.396 6  -9539781.37421
  19344047.0984  -10155045.61847  -7835049.89864
  22113179.543     4475597.595 5   3515136.03221
  22500291.2464    4659343.14845   3621389.69661
 93  9  1  1 48 59.9960000  0  8G21G15G12G31G25G 1G28G23
  20114053.160    -3623692.149 7  -2793619.75323
  21618138.027   -10201475.216 6  -7521362.73521
  23361578.1524   -6550473.75845  -1224580.15661
  21671332.941    -9401519.172 6  -7248357.67821
  21402853.988   -12626299.724 6  -9635628.02221
  19344638.5274  -10151930.82447  -7832622.78064
  22124332.6214    4534193.19745   3560794.84461
  22506118.613     4689966.937 5   3645252.32421
 93  9  1  1 49 29.9960000  0  8G21G15G12G31G25G 1G28G23
  20114879.9264   -3619352.72547  -2790238.39262
  21593655.098   -10330135.169 6  -7621617.21721
  23365503.809    -6529863.514 5  -1208520.23521
  21673646.754    -9389370.736 6  -7238891.39521
  21379489.356   -12749083.725 6  -9731303.76821
  19345301.9264  -10148436.89247  -7829900.23564
  22135500.5984    4592895.79545   3606537.03861
  22511957.5514    4720656.81045   3669166.52661
 93  9  1  1 49 59.9960000  0  8G21G15G12G31G25G 1G28G23
  20115740.7854   -3614820.50947  -2786706.80463
  21569211.801   -10458590.809 6  -7721712.47921
  23369534.637    -6508692.933 5  -1192023.67121
  21676033.637    -9376801.849 6  -7229097.49321
  21356163.246   -12871661.942 6  -9826819.15821
  19346037.9414  -10144580.30047  -7826895.09364
  22146690.738     4651693.083 5   3652353.01421
  22517809.832     4751403.331 5   3693124.77721
 93  9  1  1 50 29.9950000  0  8G21G15G12G31G25G 1G28G23
  20116640.6554   -3610086.51847  -2783017.98663
  21544808.374   -10586827.146 6  -7821636.86821
  23373669.7184   -6486956.07345  -1175085.83961
  21678504.640    -9363825.272 6  -7218985.90221
  21332880.663   -12994006.019 6  -9922152.10321
  19346842.8514  -10140352.87147  -7823600.99364
  22157897.3194    4710589.45345   3698246.20361
  22523675.6324    4782226.37946   3717142.71661
 93  9  1  1 50 59.9950000  0  8G21G15G12G31G25G 1G28G23
  20117582.5694   -3605147.59747  -2779169.48462
  21520447.046   -10714856.909 6  -7921400.27821
  23377909.5774   -6464660.17845  -1157712.42061
  21681052.804    -9350448.896 6  -7208562.78121
  21309643.757   -13116114.098 6 -10017301.16221
  19347712.3434  -10135770.21847  -7820030.09064
  22169124.929     4769591.022 5   3744221.36621
  22529556.3354    4813135.20045   3741227.52961
 93  9  1  1 51 29.9950000  0  8G21G15G12G31G25G 1G28G23
  20118562.9834   -3600004.35447
  21496123.046   -10842672.936 6  -8020997.14921
  23382257.991    -6441807.920 5  -1139905.47221
  21683667.905    -9336686.546 6  -7197838.90421
  21286455.366   -13237975.905 6 -10112258.31421
  19348651.6714  -10130828.07147
  22180375.8434    4828708.69945   3790286.99961
  22535453.8124    4844130.49145   3765379.63561
 93  9  1  1 51 59.9950000  0  8G21G15G12G31G25G 1G28G23
  20119583.1874   -3594649.49047
  21471841.710   -10970272.372 6  -8120425.24521
  23386712.2804   -6418400.90945  -1121666.24061
  21686360.804    -9322553.097 6  -7186825.85921
  21263310.148   -13359603.925 6 -10207033.30021
  19349663.0934  -10125520.92647
  22191645.4994    4887953.27045   3836451.50361
  22541372.054     4875225.214 5   3789609.22121
 93  9  1  1 52 29.9950000  0  8G21G15G12G31G25G 1G28G23
  20120642.804    -3589072.345 7  -2766643.30423
  21447602.319   -11097641.270 6  -8219673.70721
  23391275.5384   -6394429.89045  -1102987.52561
  21689125.4604   -9308035.71446  -7175513.64561
  21240211.108   -13480991.872 6 -10301621.21921
  19350745.6714  -10119825.83947  -7807605.89164
  22202950.788     4947344.383 5   3882730.20121
  22547310.4444    4906432.72445   3813926.73461
 93  9  1  1 52 59.9950000  0  8G21G15G12G31G25G 1G28G23
  20121741.5544   -3583287.12347  -2762135.32962
  21423407.257   -11224782.229 6  -8318744.54721
  23395941.601    -6369901.952 5  -1083874.83421
  21691959.6324   -9293132.85546  -7163901.05961
  21217154.108   -13602153.964 6 -10396033.14121
  19351901.6164  -10113759.61447  -7802878.95764
  22214280.679     5006878.935 5   3929120.66621
  22553268.937     4937747.849 5   3838328.05821
 93  9  1  1 53 29.9950000  0  8G21G15G12G31G25G 1G28G23
  20122874.5854   -3577326.86347  -2757490.97562
  21399257.890   -11351697.952 6  -8417639.87321
  23400713.7654   -6344824.34545  -1064333.84661
  21694866.8824   -9277843.23845  -7151987.09761
  21194137.140   -13723111.718 6 -10490285.84721
  19353126.2264  -10107337.54247  -7797874.73664
  22225632.499     5066538.427 5   3975608.48221
  22559247.9604    4969160.02046   3862805.02961
 93  9  1  1 53 59.9950000  0  8G21G15G12G31G25G 1G28G23
  20124042.6714   -3571201.98247  -2752718.33263
  21375148.038   -11478388.037 6  -8516359.38321
  23405588.9684   -6319201.69845  -1044368.14961
  21697851.843    -9262157.416 6  -7139764.41121
  21171156.038   -13843873.409 6 -10584385.77022
  19354409.9684  -10100571.20547  -7792602.25464
  22237005.062     5126299.853 5   4022175.73621
  22565239.8984    5000655.33346   3887346.84161
 93  9  1  1 54 29.9950000  0  8G21G15G12G31G25G 1G28G23
  20125240.7184   -3564894.71547  -2747803.58062
  21351087.460   -11604841.677 6  -8614894.64721
  23410567.413    -6293027.860 5  -1023972.96521
  21700916.944    -9246048.692 5  -7127212.18221
  21148217.640   -13964415.110 6 -10678314.27622
  19355766.7654  -10093461.35747  -7787062.10464
  22248394.5384    5186156.36945   4068817.06861
  22571248.812     5032226.448 6   3911947.75421
 93  9  1  1 54 59.9950000  0  8G21G15G12G31G25G 1G28G23
  20126482.3664   -3558384.75447  -2742730.87163
  21327071.280   -11731053.085 6  -8713241.15921
  23415658.6164   -6266301.44445  -1003147.17561
  21704065.9524   -9229520.92146  -7114333.42561
  21125325.382   -14084713.450 6 -10772053.14522
  19357179.9914  -10086013.58847  -7781258.63764
  22259800.663     5246091.983 5   4115520.04921
  22577269.1324    5063872.62845   3936607.10861
 93  9  1  1 55 29.9950000  0  8G21G15G12G31G25G 1G28G23
  20127760.3904   -3551665.11547  -2737494.79662
  21303097.616   -11857023.345 6  -8811399.74921
  23420847.374    -6239028.199 5   -981895.29821
  21707284.952    -9212589.786 5  -7101140.36321
  21102483.655   -14204753.007 6 -10865590.36522
  19358667.1714  -10078204.47947  -7775173.60964
  22271217.741     5306104.603 5   4162283.03121
  22583306.5304    5095587.80945   3961320.20161
 93  9  1  1 55 59.9950000  0  8G21G15G12G31G25G 1G28G23
  20129082.3274   -3544709.71847  -2732075.00562
  21279172.4834  -11982751.25646  -8909369.50161
  23426138.1554   -6211211.86845   -960220.25561
  21710583.054    -9195269.028 5  -7087643.69721
  21079693.038   -14324514.498 6 -10958910.90722
  19360227.5384  -10070018.35147  -7768794.79764
  22282658.608     5366204.130 5   4209113.73421
  22589354.694     5127371.027 5   3986086.31321
 93  9  1  1 56 29.9950000  0  8G21G15G12G31G25G 1G28G23
  20130450.1084   -3537510.84947  -2726465.50162
  21255293.0694  -12108236.29346  -9007149.99961
  23431538.179    -6182857.035 5   -938125.57121
  21713952.921    -9177574.975 5  -7073856.15321
  21056957.077   -14443989.351 6 -11052008.10622
  19361855.5624  -10061459.70447  -7762125.71164
  22294112.233     5426396.190 5   4256016.54921
  22595420.9374    5159245.35645   4010923.41661
 93  9  1  1 56 59.9950000  0  8G21G15G12G31G25G 1G28G23
  20131866.5694   -3530070.51747  -2720667.83662
  21231461.6164  -12233466.65946  -9104732.04361
  23437034.890    -6153956.438 5   -915605.64821
  21717386.038    -9159517.823 5  -7059785.66821
  21034278.952   -14563167.700 6 -11144874.25122
  19363556.0774  -10052524.90247  -7755163.52164
  22305583.835     5486690.866 5   4302999.31521
  22601506.8124    5191239.66545   4035853.96861
 93  9  1  1 57 29.9950000  0  8G21G15G12G31G25G 1G28G23
  20133326.9834   -3522398.04647  -2714689.29662
  21207680.2804  -12358443.99346  -9202116.91961
  23442639.616    -6124516.773 5   -892665.64421
  21720892.8044   -9141088.68945  -7045425.32561
  21011653.4374  -14682067.54547 -11237523.39562
  19365323.7334  -10043234.54747  -7747924.27364
  22317079.7104    5547081.86145   4350057.13661
  22607619.069     5223354.204 5   4060878.22621
 93  9  1  1 57 59.9950000  0  8G21G15G12G31G25G 1G28G23
  20134828.5154   -3514514.21047  -2708546.05462
  21183945.1404  -12483177.71846  -9299311.96961
  23448339.7734   -6094551.94745   -869316.42161
  21724467.944    -9122288.541 5  -7030775.89821
  20989074.452   -14800714.010 7 -11329975.09222
  19367150.1404  -10033636.73447  -7740445.45564
  22328580.1324    5607534.78645   4397163.21461
  22613753.530     5255587.319 5   4085994.96921
 93  9  1  1 58 29.9950000  0  8G21G15G12G31G25G 1G28G23
  20136370.4054   -3506422.58147  -2702240.88962
  21160256.5694  -12607653.24146  -9396305.81861
  23454142.7494   -6064052.07445   -845550.29261
  21728118.7334   -9103100.65745  -7015824.32261
  20966548.0934  -14919094.36747 -11422219.44462
  19369032.6084  -10023734.78647  -7732729.64264
  22340093.710     5668037.596 5   4444308.18421
  22619912.421     5287952.717 5   4111214.69921
 93  9  1  1 58 59.9950000  0  8G21G15G12G31G25G 1G28G23
  20137947.7804   -3498137.20347  -2695784.76062
  21136620.2184  -12731869.11646  -9493097.35061
  23460048.6874   -6033021.05245   -821370.28761
  21731842.085    -9083519.975 5  -7000566.67121
  20944070.866   -15037211.431 7 -11514258.62622
  19370972.2414  -10013528.94747  -7724777.03864
  22351615.0544    5728571.55145   4491477.40661
  22626092.9834    5320430.59145   4136522.10461
 93  9  1  1 59 29.9950000  0  8G21G15G12G31G25G 1G28G23
  20139554.1794   -3489675.47047  -2689191.20462
  21113031.5234  -12855829.88946  -9589690.09161
  23466056.4764   -6001468.49645   -796783.88261
  21735647.577    -9063557.186 5  -6985011.27621
  20921641.9294  -15155075.15247 -11606100.40762
  19372977.8904  -10003008.83647  -7716579.54264
  22363136.007     5789127.657 5   4538663.87721
  22632289.210     5353002.452 5   4161902.75121
 93  9  1  1 59 59.9950000  0  8G21G15G12G31G25G 1G28G23
  20141199.2334   -3481043.00247  -2682464.61562
  21089493.4604  -12979527.37146  -9686077.67861
  23472153.6244   -5969390.55144   -771788.09761
  21739513.9054   -9043233.12245  -6969174.36461
  20899266.3354  -15272659.09246 -11697724.18162
  19375042.6164   -9992149.98247  -7708118.09564
  22374668.3124    5849720.61045   4585879.06561
  22638506.905     5385671.387 5   4187359.09921
 93  9  1  2  0 29.9950000  0  8G21G15G12G31G25G 1G28G23
  20142874.1714   -3472224.70047  -2675593.21062
  21066007.8274  -13102949.28446  -9782250.53861
  23478362.296    -5936779.961 4
  21743447.343    -9022553.284 6  -6953060.23521
  20876948.796   -15389938.114 7 -11789110.34022
  19377179.6634   -9980930.22947  -7699375.43064
  22386208.4834    5910367.95645   4633136.63561
  22644742.8124    5418433.61744
 93  9  1  2  0 59.9950000  0  8G21G15G12G31G25G 1G28G23
  20144592.3984   -3463221.06247  -2668577.38762
  21042571.249   -13226101.412 6  -9878213.18121
  23484666.5774   -5903647.99144   -720560.14661
  21747448.444    -9001536.509 6  -6936683.55421
  20854685.640   -15506929.608 7 -11880272.46322
  19379377.7414   -9969361.55047  -7690360.87064
  22397758.851     5971080.077 5   4680444.67321
  22650990.007     5451285.920 2
 93  9  1  2  1 29.9950000  0  8G21G15G12G31G25G 1G28G23
  20146341.3904   -3454019.92747  -2661407.66962
  21019189.4444  -13348982.22746  -9973964.40961
  23491070.038    -5869998.067 4   -694339.46721
  21751505.663    -8980192.082 5  -6920051.57121
  20832478.3044  -15623628.41447 -11971206.52162
  19381645.2574   -9957451.91247  -7681080.62964
  22409326.6244    6031853.98545   4727800.85861
  22657262.0544    5484226.65542
 93  9  1  2  1 59.9950000  0  7G21G15G12G31G25G 1G28
  20148130.9054   -3444606.23247  -2654072.32662
  20995855.8514  -13471591.85946 -10069504.33861
  23497573.523    -5835835.481 4   -667719.27121
  21755633.226    -8958518.411 6  -6903163.02421
  20810327.9604  -15740029.37047 -12061908.48862
  19383974.0304   -9945229.67947  -7671556.81564
  22420902.2734    6092676.66745   4775195.04361
 93  9  1  2  2 29.9950000  0  8G21G15G12G31G25G 1G28G23
  20149966.6484   -3434957.16147  -2646553.56762
  20972576.593   -13593922.115 6 -10164826.57321
  23504172.694    -5801157.133 3   -640697.20421
  21759822.983    -8936497.127 5  -6886003.60621
  20788232.694   -15856143.338 7 -12152386.82222
  19386357.7494   -9932700.43947  -7661793.76064
  22432482.1714    6153534.29345   4822616.46461
  22669846.5464         -0.72153
 93  9  1  2  2 59.9950000  0  8G21G15G12G31G25G 1G28G23
  20151845.3044   -3425080.45347  -2638857.42862
  20949351.616   -13715972.308 6 -10259930.57921
  23510871.710    -5765966.949 4   -613276.29821
  21764083.0384   -8914123.62746  -6868569.72361
  20766189.1404  -15971983.89847 -12242652.11962
  19388800.5384   -9919864.28747  -7651791.56664
  22444067.202     6214409.306 5   4870051.42621
  22676161.991       33189.445 3        -0.31531
 93  9  1  2  3 29.9950000  0  7G21G15G12G31G25G 1G28
  20153767.6794   -3414984.24547  -2630990.25062
  20926177.429   -13837751.735 6 -10354823.60521
  23517653.905    -5730279.889 4   -585468.20621
  21768400.015    -8891404.007 5  -6850866.14221
  20744197.4054  -16087553.16547 -12332706.01462
  19391301.7414   -9906720.07747  -7641549.32164
  22455649.890     6275280.095 5   4917483.10421
 93  9  1  2  3 59.9950000  0  7G21G15G12G31G25G 1G28
  20155732.7264   -3404651.85947  -2622939.03162
  20903059.538   -13959240.550 6 -10449490.19321
  23524547.5154   -5694080.75244   -557261.09961
  21772794.741    -8868326.572 5  -6832883.75321
  20722259.7494  -16202837.96147 -12422538.24762
  19393865.2804   -9893249.83447  -7631053.02764
  22467236.148     6336169.105 5   4964928.98121
 93  9  1  2  4 29.9950000  0  7G21G15G12G31G25G 1G28
  20157743.0934   -3394091.89447  -2614710.48962
  20879994.7574  -14080442.64146 -10543933.36461
  23531523.2734   -5657378.77143   -528662.19261
  21777254.405    -8844894.764 5  -6814625.23021
  20700374.3584  -16317846.14947 -12512154.94362
  19396490.6874   -9879452.12047  -7620301.55764
  22478827.8274    6397077.35145   5012389.82961
 93  9  1  2  4 59.9950000  0  8G21G15G12G31G25G 1G28G23
  20159796.1404   -3383315.18847  -2606313.03862
  20856984.0074  -14201359.41246 -10638154.20861
  23538605.2414   -5620180.62744   -499676.62661
  21781779.710    -8821122.313 5  -6796101.26921
  20678542.9684  -16432568.56447 -12601548.94962
  19399175.4684   -9865332.99047  -7609299.62964
  22490425.7654    6458023.67245   5059880.36361
  22701591.6714         -0.90052
 93  9  1  2  5 29.9950000  0  8G21G15G12G31G25G 1G28G23
  20161890.0694   -3372317.39247  -2597743.33362
  20834027.6714  -14321992.87546 -10732154.29661
  23545782.8664   -5582493.37844   -470309.94661
  21786364.6874   -8797029.07245  -6777327.34561
  20656768.4374  -16546995.31347 -12690712.58062
  19401917.9604   -9850916.43547  -7598065.94964
  22502032.9054    6519018.94245   5107409.03161
  22707999.3044      33672.70242        -0.47471
 93  9  1  2  5 59.9950000  0  8G21G15G12G31G25G 1G28G23
  20164022.2334   -3361104.61647  -2589006.10262
  20811127.8824  -14442334.85646 -10825927.25662
  23553047.3984   -5544314.02744   -440559.83561
  21791004.085    -8772633.804 5  -6758318.07221
  20635052.8744  -16661111.01847 -12779633.83862
  19404715.5074   -9836220.64747  -7586614.67564
  22513648.5694    6580059.40345   5154972.89661
  22714429.9054      67448.89443     26318.60061
 93  9  1  2  6 29.9950000  0  8G21G15G12G31G25G 1G28G23
  20166191.5074   -3349686.21647  -2580108.65162
  20788281.8274  -14562383.64246 -10919471.75762
  23560405.155    -5505646.084 4   -410428.95021
  21795706.718    -8747942.110 6  -6739077.80521
  20613397.4374  -16774911.59647 -12868309.53262
  19407565.2414   -9821248.15747  -7574947.80264
  22525269.319     6641142.996 5   5202570.37621
  22720871.5934     101318.60243     52710.59261
 93  9  1  2  6 59.9950000  0  8G21G15G12G31G25G 1G28G23
  20168408.8824   -3338064.00147  -2571052.37362
  20765496.4214  -14682131.32246 -11012781.62861
  23567852.187    -5466486.882 5   -379915.30621
  21800456.1014   -8722966.66346  -6719616.44361
  20591803.3194  -16888389.33947 -12956733.67662
  19410465.7264   -9805998.15847  -7563064.67664
  22536900.624     6702258.209 5   5250192.50821
  22727332.468      135270.926 2     79166.95321
 93  9  1  2  7 29.9950000  0  8G21G15G12G31G25G 1G28G23
  20170654.1944   -3326246.14247  -2561843.66262
  20742765.8904  -14801580.19146 -11105858.66162
  23575398.3584   -5426844.01345   -349024.76061
  21805263.726    -8697702.921 6  -6699930.45021
  20570269.9994  -17001544.22447 -13044906.24262
  19413422.0934   -9790470.91747  -7550965.52464
  22548532.5384    6763370.08245   5297812.02361
  22733806.2804     169291.36342    105676.31761
 93  9  1  2  7 59.9950000  0  8G21G15G12G31G25G 1G28G23
  20172943.2884   -3314227.06947  -2552478.13462
  20720096.5694  -14920714.42746 -11198690.51762
  23583036.3124   -5386707.15345   -317749.25161
  21810133.155    -8672113.039 5  -6679990.31021
  20548800.8194  -17114366.62847 -13132819.72562
  19416435.2184   -9774630.77547  -7538622.55064
  22560159.788     6824481.214 5   5345430.96621
  22740301.687      203397.911 3    132252.85721
 93  9  1  2  8 29.9950000  0  8G21G15G12G31G25G 1G28G23
  20175265.9914   -3302010.30647  -2542958.60462
  20697486.5624  -15039535.46446 -11291278.32762
  23590766.9444   -5346082.68045   -286093.82261
  21815068.2804   -8646177.44845  -6659780.77361
  20527392.0694  -17226867.51147 -13220482.67762
  19419510.5074   -9758474.60747  -7526033.31964
  22571790.335     6885589.926 5   5393048.02221
  22746803.280      237600.224 3    158903.97621
 93  9  1  2  8 59.9950000  0  8G21G15G12G31G25G 1G28G23
  20177632.5464   -3289591.73747  -2533281.78362
  20674935.0304  -15158042.27046 -11383621.27362
  23598588.8124   -5304975.01445   -254061.87361
  21820070.6634   -8619880.57745  -6639289.73361
  20506046.405   -17339036.483 7 -13307886.99222
  19422642.8274   -9742002.01647  -7513197.52664
  22583415.0154    6946680.58045   5440651.00961
  22753335.608      271909.940 5    185638.78221
 93  9  1  2  9 29.9950000  0  8G21G15G12G31G25G 1G28G23
  20180029.7104   -3276980.91747  -2523455.18662
  20652442.507   -15276241.870 6 -11475724.83022
  23606501.7414   -5263396.42245   -221662.95661
  21825146.2414   -8593219.09145  -6618514.57761
  20484761.8124  -17450883.99347 -13395040.82462
  19425839.9054   -9725220.69647  -7500121.16464
  22595035.2574    7007747.47545   5488235.48761
  22759882.9684     306333.71444    212462.46761
 93  9  1  2  9 59.9950000  0  8G21G15G12G31G25G 1G28G23
  20182465.1084   -3264169.74447  -2513472.46262
  20630008.687   -15394123.162 6 -11567580.35622
  23614507.5384   -5221341.52345   -188892.88961
  21830286.2884   -8566209.44745  -6597468.13761
  20463540.218   -17562405.595 7 -13481940.68922
  19429090.1164   -9708132.76447  -7486805.88464
  22606656.2804    7068813.22945   5535819.07061
  22766459.671      340882.688 5    239383.69621
 93  9  1  2 10 29.9950000  0  8G21G15G12G31G25G 1G28G23
  20184943.8274   -3251155.72747  -2503331.65862
  20607636.062   -15511686.767 6 -11659188.32022
  23622596.2414   -5178815.72845   -155755.86761
  21835486.952    -8538879.200 5  -6576171.87721
  20442382.2414  -17673598.26547 -13568584.25562
  19432396.4524   -9690755.45647  -7473265.11364
  22618272.780     7129867.092 4   5583393.37021
  22773056.4214     375545.84545    266393.87761
 93  9  1  2 10 59.9950000  0  8G21G15G12G31G25G 1G28G23
  20187460.8824   -3237937.26047  -2493031.58162
  20585324.499   -15628933.767 6 -11750549.58222
  23630776.1404   -5135825.63545   -122257.07261
  21840743.0694   -8511246.31245  -6554639.77361
  20421286.4604  -17784461.38347 -13654971.01862
  19435755.6944   -9673098.69947  -7459506.59664
  22629889.390     7190907.680 4   5630957.32021
  22779670.0854     410315.19445    293486.84061
 93  9  1  2 11 29.9950000  0  8G21G15G12G31G25G 1G28G23
  20190013.0854   -3224526.26247  -2482581.43962
  20563074.507   -15745865.077 6 -11841664.84022
  23639049.194    -5092377.675 5    -88401.47821
  21846057.241    -8483341.046 5  -6532895.46221
  20400250.5234  -17895005.69547 -13741109.37262
  19439165.7964   -9655177.94447  -7445542.35964
  22641503.960     7251939.995 4   5678514.82621
  22786304.4444     445164.50145    320642.11661
 93  9  1  2 11 59.9950000  0  8G21G15G12G31G25G 1G28G23
  20192606.819    -3210902.198 7  -2471965.31622
  20540886.913   -15862464.878 6 -11932521.78222
  23647401.8044   -5048461.59345    -54181.11761
  21851419.476    -8455159.105 5  -6510935.53321
  20379279.5154  -18005198.64547 -13826973.93262
  19442627.2574   -9636984.67747  -7431365.78164
  22653118.335     7312976.417 4   5726075.56221
  22792955.0624     480096.70945    347862.03861
 93  9  1  2 12 29.9950000  0  8G21G15G12G31G25G 1G28G23
  20195240.0074   -3197061.22947  -2461180.14362
  20518763.319   -15978731.414 6 -12023119.02922
  23655849.976    -5004080.501 5    -19598.42721
  21856837.780    -8426691.892 5  -6488753.31921
  20358377.788   -18115034.516 7 -13912560.24222
  19446141.2414   -9618522.42647  -7416979.60664
  22664729.6634    7374006.65144   5773631.48361
  22799614.3514     515108.99742    375144.34561
 93  9  1  2 12 59.9950000  0  8G21G15G12G31G25G 1G28G23
  20197916.3354   -3182999.52747  -2450222.98762
  20496703.3354  -16094656.08946 -12113449.89062
  23664385.5234   -4959231.61044     15348.82061
  21862305.171    -8397941.852 5  -6466350.73021
  20337545.8584  -18224510.97047 -13997866.49662
  19449705.2734   -9599793.93247  -7402385.96964
  22676345.991     7435027.674 4   5821180.20721
  22806293.546      550207.635 1
 93  9  1  2 13 29.9950000  0  7G21G15G12G31G25G 1G28
  20200633.6634   -3168713.12047  -2439090.73862
  20474706.093   -16210237.514 6 -12203513.28722
  23673005.437    -4913919.047 4     50657.33921
  21867831.663    -8368917.171 5  -6443734.13021
  20316782.9524  -18333625.72047 -14082890.90962
  19453319.8124   -9580797.39548  -7387583.46464
  22687951.937     7496012.475 3   5868700.69821
 93  9  1  2 13 59.9950000  0  7G21G15G12G31G25G 1G28
  20203392.7494   -3154206.21647  -2427786.65462
  20452776.1014  -16325485.32047 -12293316.72062
  23681711.7964   -4868157.97844     86315.34561
  21873402.468    -8339623.701 5  -6420908.09121
  20296086.7654  -18442389.97747 -14167642.20662
  19456984.9524   -9561542.01047  -7372579.26164
  22699545.405     7556939.409 3   5916176.11121
 93  9  1  2 14 29.9940000  0  8G21G15G12G31G25G 1G28G23
  20206191.955    -3139487.172 7  -2416317.28622
  20430910.041   -16440394.995 7 -12382856.67622
  23690503.5334   -4821954.71943    122317.95261
  21879030.830    -8310070.070 5  -6397879.32021
  20275450.6584  -18550823.98247 -14252136.17062
  19460697.5884   -9542035.02048  -7357379.00064
  22711123.2134    7617783.88544   5963587.24361
  22826443.1744         -0.03452
 93  9  1  2 14 59.9940000  0  8G21G15G12G31G25G 1G28G23
  20209037.057    -3124535.794 7  -2404666.86522
  20409111.447   -16554955.748 7 -12472124.74522
  23699377.510    -4775292.994 3    158677.73421
  21884704.8224   -8280241.95445  -6374636.66661
  20254879.9084  -18658918.85847 -14336365.87162
  19464462.9554   -9522254.06847  -7341965.26364
  22722687.8694    7678564.18144   6010948.39561
  22833201.557       35528.339 2        -0.30431
 93  9  1  2 15 29.9940000  0  8G21G15G12G31G25G 1G28G23
  20211925.768    -3109363.928 7  -2392844.64422
  20387374.190   -16669175.177 6 -12561126.85022
  23708354.565    -4728191.139 4    195380.50621
  21890435.299    -8250145.842 5  -6351185.18021
  20234374.6114  -18766677.48247 -14420333.56962
  19468278.9244   -9502199.50147  -7326338.32064
  22734240.1354    7739282.21444   6058261.03361
  22839984.455       71171.395 3     27773.41721
 93  9  1  2 15 59.9940000  0  8G21G15G12G31G25G 1G28G23
  20214857.5804   -3093970.95147  -2380850.12662
  20365705.010   -16783042.610 7 -12649854.67722
  23717396.533    -4680644.105 3    232430.20521
  21896212.338    -8219780.297 5  -6327523.75621
  20213938.0184  -18874078.90747 -14504022.92762
  19472147.7604   -9481857.20647  -7310487.17064
  22745789.4474    7799965.47944   6105546.57261
  22846791.354      106929.717 4     55636.93021
 93  9  1  2 16 29.9940000  0  8G21G15G12G31G25G 1G28G23
  20217828.2214   -3078355.83247  -2368682.50062
  20344103.369   -16896558.989 7 -12738308.95622
  23726521.8544   -4632658.27342    269821.78161
  21902041.252    -8189157.136 5  -6303661.58821
  20193569.4004  -18981117.67247 -14587429.69463
  19476071.3774   -9461234.53347  -7294417.54164
  22757330.7524    7860614.94444   6152805.78261
  22853612.275      142779.658 4     83571.88421
 93  9  1  2 16 59.9940000  0  8G21G15G12G31G25G 1G28G23
  20220837.5494   -3062527.66347  -2356348.85862
  20322569.916   -17009725.886 7 -12826490.92022
  23735743.7914   -4584241.22843    307549.38561
  21907910.627    -8158278.347 5  -6279600.23921
  20173271.7054  -19087777.47747 -14670541.17363
  19480050.0104   -9440337.88647  -7278134.43364
  22768868.440     7921245.179 4   6200049.99521
  22860451.6194     178708.78043
 93  9  1  2 17 29.9940000  0  8G21G15G12G31G25G 1G28G23
  20223891.010    -3046491.599 7  -2343853.22822
  20301105.963   -17122531.934 7 -12914391.70122
  23745037.4084   -4535386.86343    345617.78661
  21913844.229    -8127142.246 5  -6255338.38521
  20153048.1974  -19194047.11847 -14753348.62063
  19484078.1354   -9419166.54247  -7261637.26464
  22780400.400     7981853.176 4   6247276.86721
  22867303.268      214728.393 2
 93  9  1  2 17 59.9940000  0  8G21G15G12G31G25G 1G28G23
  20226984.5654   -3030244.83947  -2331193.40362
  20279706.330   -17234975.149 7 -13002009.76522
  23754419.0184   -4486098.39743    384024.36061
  21919810.979    -8095743.895 5  -6230872.16821
  20132900.260   -19299931.715 7 -14835856.04723
  19488154.1584   -9397742.73747  -7244943.38764
  22791926.1274    8042419.81045   6294471.52061
  22874176.3464     250847.48442        -0.34671
 93  9  1  2 18 29.9940000  0  8G21G15G12G31G25G 1G28G23
  20230114.9324   -3013776.81847  -2318361.18762
  20258378.5804  -17347048.26347 -13089339.43962
  23763880.408    -4436374.401 3    422770.38921
  21925844.111    -8064075.059 5  -6206195.20621
  20112820.8384  -19405454.52447 -14918081.54963
  19492277.1274   -9376085.43847  -7228067.55864
  22803445.690     8102934.524 5   6341625.72521
  22881064.752      287081.436 1     28233.97521
 93  9  1  2 18 59.9940000  0  7G21G15G12G31G25G 1G28
  20233292.5964   -2997094.62147  -2305362.06162
  20237124.322   -17458749.137 7 -13176379.05522
  23773422.6744   -4386218.17343    461853.18261
  21931915.1044   -8032137.26145  -6181308.65861
  20092807.8304  -19510617.13647 -15000026.38663
  19496440.0184   -9354202.65347  -7211016.02764
  22814947.5104    8163383.21245   6388728.50661
 93  9  1  2 19 29.9940000  0  7G21G15G12G31G25G 1G28
  20236506.7134   -2980196.84847  -2292194.96062
  20215939.3934  -17570081.34847 -13263131.40762
  23783048.4324   -4335638.92943    501265.59161
  21938051.7054   -7999934.25045  -6156215.43761
  20072861.1114  -19615433.54847 -15081701.45063
  19500645.5654   -9332101.99647  -7193794.72764
  22826435.838     8223754.668 4   6435771.08921
 93  9  1  2 19 59.9940000  0  7G21G15G12G31G25G 1G28
  20239761.5104   -2963082.14947  -2278858.84662
  20194821.2214  -17681054.03847 -13349603.61062
  23792756.5964   -4284651.33744    540996.20561
  21944220.580    -7967485.592 5  -6130930.82221
  20052979.5494  -19719915.46147 -15163115.87263
  19504893.2444   -9309792.19047  -7176410.44964
  22837905.1504    8284042.50644   6482748.53561
 93  9  1  2 20 29.9940000  0  7G21G15G12G31G25G 1G28
  20243063.369    -2945749.950 7  -2265353.21922
  20173773.0494  -17791650.80347 -13435782.88962
  23802538.197    -4233244.524 4    581053.53221
  21950443.830    -7934798.317 5  -6105460.25721
  20033167.5184  -19824033.75847 -15244246.95363
  19509179.6354   -9287250.06947  -7158845.15064
  22849369.190     8344264.163 4   6529674.39021
 93  9  1  2 20 59.9940000  0  7G21G15G12G31G25G 1G28
  20246398.2754   -2928202.62746  -2251679.98062
  20152800.760   -17901864.218 7 -13521663.44522
  23812396.377    -4181416.834 4    621438.75721
  21956709.7364   -7901868.85845  -6079800.99561
  20013430.5104  -19927751.77147 -15325066.13163
  19513520.0964   -9264454.77947  -7141082.58064
  22860815.1664    8404434.24244   6576560.06261
 93  9  1  2 21 29.9940000  0  7G21G15G12G31G25G 1G28
  20249782.5804   -2910437.02647  -2237836.65862
  20131902.721   -18011697.404 7 -13607247.71622
  23822333.361    -4129176.663 4    662145.44321
  21963017.557    -7868710.363 5  -6053963.24621
  19993767.9794  -20031067.46647 -15405571.81263
  19517904.8384   -9241403.00647  -7123120.15264
  22872256.2604    8464546.20944   6623400.46961
 93  9  1  2 21 59.9940000  0  7G21G15G12G31G25G 1G28
  20253206.0104   -2892439.22146  -2223812.37362
  20111073.760   -18121142.810 7 -13692529.82122
  23832357.510    -4076522.105 4    703174.98521
  21969369.6044   -7835339.23445  -6027959.82261
  19974188.197   -20133961.332 7 -15485748.79823
  19522342.4794   -9218090.44247  -7104954.51464
  22883682.1664    8524590.13844   6670187.85761
 93  9  1  2 22 29.9940000  0  7G21G15G12G31G25G 1G28
  20256675.9404   -2874205.82047  -2209604.53762
  20090321.588   -18230194.982 7 -13777505.50422
  23842454.3774   -4023453.28744    744527.34661
  21975759.268    -7801746.767 5  -6001783.91121
  19954692.4474  -20236421.06247 -15565587.49563
  19526826.2444   -9194522.98847  -7086590.26364
  22895098.065     8584568.420 4   6716924.07221
 93  9  1  2 22 59.9940000  0  7G21G15G12G31G25G 1G28
  20260190.4714   -2855731.54046  -2195208.98462
  20069643.252   -18338863.578 7 -13862182.30322
  23852624.9864   -3969985.74044    786190.38861
  21982196.690    -7767929.444 5  -5975432.80821
  19935275.6434  -20338453.07647 -15645092.90163
  19531357.2994   -9170709.41447  -7068034.22964
  22906489.9084    8644451.09444   6763585.80261
 93  9  1  2 23 29.9940000  0  7G21G15G12G31G25G 1G28
  20263755.4404   -2836996.03546  -2180609.90562
  20049041.299   -18447136.181 7 -13946550.53322
  23862881.268    -3916112.692 5    828169.45721
  21988675.205    -7733883.179 5  -5948903.30621
  19915938.010   -20440062.533 7 -15724269.05523
  19535937.0884   -9146649.21647  -7049286.02164
  22917869.205     8704230.200 4   6810166.82721
 93  9  1  2 23 59.9940000  0  7G21G15G12G31G25G 1G28
  20267369.760    -2818021.238 6  -2165824.32222
  20028508.807   -18555015.732 7 -14030612.48422
  23873210.190    -3861842.680 5    870457.85621
  21995198.283    -7699604.607 5  -5922192.79121
  19896682.5654  -20541259.60747 -15803123.86363
  19540558.7134   -9122357.67647  -7030357.55264
  22929223.861     8763899.523 3   6856662.31721
 93  9  1  2 24 29.9940000  0  7G21G15G12G31G25G 1G28
  20271017.0334   -2798833.26046  -2150872.66062
  20008056.619   -18662504.990 7 -14114370.31122
  23883608.6744   -3807183.89345    913049.12061
  22001767.518    -7665082.594 5  -5895292.58121
  19877501.8774  -20642056.24447 -15881666.65063
  19545227.2994   -9097832.34947  -7011246.90264
  22940554.5574    8823456.81043   6903070.46061
 93  9  1  2 24 59.9940000  0  8G21G15G12G31G25G 1G28G23
  20274714.6664   -2779425.48446  -2135749.70462
  19987682.721   -18769581.443 7 -14197806.46922
  23894088.9474   -3752119.48444    955956.52161
  22008381.3854   -7630305.65845  -5868193.73061
  19858398.815   -20742437.288 7 -15959885.59823
  19549941.5254   -9073049.00047  -6991935.20864
  22951868.721     8882910.932 3   6949398.26121
  22972579.3774         -0.24753
 93  9  1  2 25 29.9940000  0  8G21G15G12G31G25G 1G28G23
  20278438.0104   -2759836.25047  -2120485.38062
  19967378.690   -18876256.334 7 -14280929.72222
  23904641.4794   -3696666.22244    999166.88761
  22015043.658    -7595300.851 5  -5840917.29621
  19839372.455   -20842428.695 7 -16037800.92623
  19554702.6354   -9048036.69047  -6972445.09364
  22963157.166     8942255.732 3   6995640.88221
  22979753.1044      37714.40443
 93  9  1  2 25 59.9940000  0  8G21G15G12G31G25G 1G28G23
  20282197.6664   -2740089.08046  -2105097.96862
  19947157.697   -18982534.343 7 -14363743.71722
  23915263.088    -3640834.875 4   1042671.86321
  22021751.0184   -7560071.73045  -5813466.08961
  19820419.4714  -20942021.15847 -16115405.39663
  19559504.8154   -9022796.37847  -6952777.31864
  22974440.7444    9001489.58744   7041797.01861
  22986947.869       75512.848 3        -0.17331
 93  9  1  2 26 29.9940000  0  8G21G15G12G31G25G 1G28G23
  20285990.6744   -2720156.16046  -2089565.80662
  19927013.979   -19088392.473 7 -14446230.53022
  23925966.8614   -3584607.78244   1086485.24661
  22028496.377    -7524609.496 5  -5785833.24421
  19801547.244   -21041188.586 7 -16192678.67223
  19564354.3304   -8997308.93047  -6932916.97064
  22985692.7524    9060630.12844   7087880.47361
  22994160.7134     113423.48343     29540.52761
 93  9  1  2 26 59.9940000  0  8G21G15G12G31G25G 1G28G23
  20289818.2754   -2700031.66146  -2073884.39262
  19906946.229   -19193838.424 7 -14528396.17422
  23936739.541    -3527998.195 4   1130596.61621
  22035288.940    -7488940.827 5  -5758039.53921
  19782757.143   -21139943.484 7 -16269630.49123
  19569245.9634   -8971609.05147  -6912891.09264
  22996922.690     9119671.136 3   7133886.34221
  23001393.2444     151429.94241     59155.91761
 93  9  1  2 27 29.9940000  0  7G21G15G12G31G25G 1G28
  20293693.2754   -2679688.20946  -2058032.35262
  19886963.252   -19298857.990 7 -14610229.56622
  23947585.971    -3470997.204 4   1175013.04721
  22042113.236    -7453056.314 5  -5730077.65121
  19764046.557   -21238266.935 7 -16346246.11823
  19574177.2604   -8945690.03147  -6892694.45764
  23008140.783     9178624.778 2   7179824.15121
 93  9  1  2 27 59.9940000  0  7G21G15G12G31G25G 1G28
  20297604.5494   -2659112.11646  -2041999.03561
  19867058.666   -19403458.618 7 -14691736.51522
  23958501.5724   -3413618.47743
  22048978.9004   -7416975.65845  -5701962.91761
  19745415.119   -21336168.678 7 -16422533.14223
  19579150.7054   -8919557.99247  -6872331.82764
  23019345.025     9237484.626 3   7225688.85521
 93  9  1  2 28 29.9940000  0  7G21G15G12G31G25G 1G28
  20301571.1114   -2638285.21746  -2025770.28361
  19847231.846   -19507637.713 7 -14772915.00322
  23969493.0494   -3355864.80543
  22055879.807    -7380713.535 5  -5673706.78521
  19726864.502   -21433659.692 7 -16498500.12123
  19584159.8464   -8893228.50447  -6851815.34764
  23030527.1434    9296242.92543   7271474.44661
 93  9  1  2 28 59.9940000  0  7G21G15G12G31G25G 1G28
  20305585.1274   -2617180.57146  -2009325.10362
  19827493.127   -19611372.372 7 -14853747.17823
  23980559.518    -3297718.884 4
  22062821.9324   -7344246.47445  -5645290.95761
  19708393.4714  -21530718.83947 -16574130.57663
  19589213.0574   -8866677.59247  -6831126.32564
  23041684.8154    9354919.30142   7317196.21161
 93  9  1  2 29 29.9940000  0  7G21G15G12G31G25G 1G28
  20309646.8934   -2595831.83346  -1992689.73062
  19807833.502   -19714683.249 7 -14934249.13622
  23991694.190    -3239207.135 3
  22069799.205    -7307588.826 5  -5616726.62621
  19690003.338   -21627361.746 7 -16649436.69423
  19594306.9004   -8839908.43947  -6810267.25064
  23052841.572     9413487.291 3
 93  9  1  2 29 59.9940000  0  7G21G15G31G25G 1G28G23
  20313758.7994   -2574237.17046  -1975862.73061
  19788251.635   -19817571.924 7 -15014422.10423
  22076806.885    -7270745.974 5  -5588017.97921
  19671692.572   -21723595.106 7 -16724423.67923
  19599442.0724   -8812923.19347  -6789239.78864
  23063955.440     9471950.095 3   7408388.84921
  23045291.104       38737.265 3
 93  9  1  2 30 29.9940000  0  7G21G15G31G25G 1G28G23
  20317916.5964   -2552383.07146  -1958833.55961
  19768760.721   -19920015.554 7 -15094248.28622
  22083852.479    -7233705.617 5  -5559155.43421
  19653461.096   -21819387.516 7 -16799067.07123
  19604621.3224   -8785705.14147  -6768030.91964
  23075065.8074    9530320.84843   7453872.48261
  23052681.1584      77580.26143
 93  9  1  2 30 59.9940000  0  7G21G15G31G25G 1G28G23
  20322116.6504   -2530307.73046  -1941632.00362
  19749345.3464  -20022037.34847 -15173745.76663
  22090935.0884   -7196496.13045  -5530161.10161
  19635314.182   -21914751.770 7 -16873376.84123
  19609842.4554   -8758270.27947  -6746653.10464
  23086149.8464    9588573.78143
  23060094.2444     116513.40143
 93  9  1  2 31 29.9940000  0  8G21G15G14G31G25G 1G28G23
  20326361.9634   -2508005.87046  -1924253.92362
  19730011.322   -20123623.398 7 -15252903.70023
  23553555.8224         -0.15753
  22098045.900    -7159127.457 5  -5501042.74221
  19617254.486   -22009673.182 7 -16947341.53823
  19615105.6504   -8730610.71947  -6725100.19864
  23097213.6354         -0.37953
  23067518.690      155551.520 2
 93  9  1  2 31 59.9940000  0  8G21G15G14G31G25G 1G28G23
  20330645.7294   -2485477.99546  -1906699.74061
  19710766.822   -20224774.116 7 -15331722.41423
  23531923.2364    -113688.16744
  22105186.174    -7121620.735 5  -5471816.81621
  19599273.197   -22104150.643 7 -17020960.28723
  19620408.6974   -8702748.49847  -6703389.37664
  23108249.049       57989.996 3        -0.33731
  23074969.5104     194684.00441        -0.09371
 93  9  1  2 32 29.9940000  0  8G21G15G14G31G25G 1G28G23
  20334974.4634   -2462744.05446  -1888984.98362
  19691602.9794  -20325483.99847 -15410197.62663
  23510269.3614    -227442.77242
  22112353.979    -7083970.411 5  -5442478.97221
  19581381.221   -22198170.387 7 -17094222.38223
  19625746.4714   -8674688.30647  -6681524.28964
  23119253.697      115821.968 3     45063.47121
  23082435.4634     233927.86741
 93  9  1  2 32 59.9940000  0  8G21G15G14G31G25G 1G28G23
  20339338.4084   -2439804.81246  -1871110.25761
  19672521.080   -20425747.449 7 -15488324.95823
  23488609.5964    -341269.08043        -0.01971
  22119545.111    -7046153.727 5  -5413011.51621
  19563579.908   -22291729.355 7 -17167125.43423
  19631126.6584   -8646424.90547  -6659500.85364
  23130229.9864     173494.78443     90003.22161
  23089925.1354     273297.98243
 93  9  1  2 33 29.9940000  0  8G21G15G14G31G25G 1G28G23
  20343747.3384   -2416659.01346  -1853074.56861
  19653527.447   -20525573.324 7 -15566111.32323
  23466932.955     -455195.598 3    -88773.83821
  22126775.9794   -7008171.40045  -5383414.97661
  19545858.986   -22384841.988 7 -17239680.69723
  19636536.4944   -8617990.49847  -6637344.16464
  23141172.1044     230996.83643    134809.92761
  23097439.041      312773.541 4
 93  9  1  2 33 59.9940000  0  8G21G15G14G31G25G 1G28G23
  20348190.541    -2393284.723 6  -1834860.85422
  19634615.455   -20624944.662 7 -15643543.49423
  23445236.565     -569217.493 2   -177622.04221
  22134034.1194   -6969998.42045  -5353669.87761
  19528230.010   -22477482.629 7 -17311868.16823
  19641981.5804   -8589382.71347  -6615052.37764
  23152086.4864     288350.62643    179501.15761
  23104976.502      352372.589 4
 93  9  1  2 34 29.9940000  0  8G21G15G14G31G25G 1G28G23
  20352685.7604   -2369674.42346  -1816463.24161
  19615791.338   -20723860.513 7 -15720620.74123
  23423523.7134    -683317.78843   -266531.28061
  22141343.0494   -6931622.71545  -5323766.78761
  19510692.346   -22569652.357 7 -17383688.69623
  19647459.5654   -8560593.15547  -6592618.94464
  23162975.791      345560.154 3    224079.92121
  23112536.158      392103.523 3
 93  9  1  2 34 59.9940000  0  8G21G15G14G31G25G 1G28G23
  20357227.0254   -2345811.93046  -1797869.07761
  19597059.322   -20822320.473 7 -15797342.74923
  23401792.393     -797495.230 4   -355500.61521
  22148682.1504   -6893060.07445  -5293718.05461
  19493238.643   -22661354.264 7 -17455144.68223
  19652970.1354   -8531624.95247  -6570046.31364
  23173829.8074     402632.71443    268551.95161
  23120117.6974     431944.25843
 93  9  1  2 35 29.9940000  0  8G21G15G14G31G25G 1G28G23
  20361811.3154   -2321704.86946  -1779084.35961
  19578403.455   -20920338.773 7 -15873720.60123
  23380044.6664    -911769.56643   -444545.55061
  22156044.5654   -6854343.62445  -5263549.47061
  19475876.666   -22752608.744 7 -17526252.02923
  19658514.2994   -8502498.37647  -6547350.26664
  23184666.541      459543.620 3    312898.06021
  23127717.6354     471872.77143
 93  9  1  2 35 59.9940000  0  8G21G15G14G31G25G 1G28G23
  20366448.4404   -2297336.42246  -1760095.96761
  19559841.096   -21017890.344 7 -15949734.77423
  23358287.6274   -1026104.79342   -533637.81561
  22163445.846    -6815447.687 5  -5233241.02021
  19458600.033   -22843389.835 7 -17596990.50323
  19664096.2364   -8473168.67247  -6524495.94063
  23195473.0884     516316.69843    357136.77661
  23135336.752      511922.445 4
 93  9  1  2 36 29.9940000  0  7G21G15G14G31G25G 1G23
  20371135.2364   -2272715.33546  -1740910.70962
  19541365.666   -21114978.830 7 -16025388.09423
  23336522.533    -1140505.877 2   -622781.40521
  22170882.3224   -6776382.01345  -5202800.30461
  19441411.830   -22933716.708 7 -17667375.03923
  19669717.2444   -8443627.44847  -6501476.79463
  23142976.510      552077.337 4        -0.18031
 93  9  1  2 36 59.9940000  0  8G21G15G14G31G25G 1G28G23
  20375869.791    -2247848.453 6  -1721533.95821
  19522978.299   -21211600.004 7 -16100677.27423
  23314738.4554   -1254977.78244   -711980.30361
  22178352.791    -6737153.378 5  -5172232.60721
  19424310.525   -23023596.383 7 -17737411.11523
  19675377.0494   -8413879.12647  -6478296.26863
  23216986.5414         -0.82052
  23150637.635      592330.366 4     31365.83621
 93  9  1  2 37 29.9940000  0  7G21G15G14G31G25G 1G23
  20380645.0884   -2222748.15446  -1701975.28961
  19504682.596   -21307750.939 7 -16175600.03623
  23292944.541    -1369513.679 3   -801229.03321
  22185845.5334   -6697761.77945  -5141537.92961
  19407287.291   -23113033.168 7 -17807102.07723
  19681075.9944   -8383927.54047  -6454957.34363
  23158318.783      632695.563 3     62819.22321
 93  9  1  2 37 59.9930000  0  7G21G15G14G31G25G 1G28
  20385460.786    -2197426.871 6  -1682244.42921
  19486474.614   -21403423.793 7 -16250150.26623
  23271139.9504   -1484096.12442   -890513.98061
  22193369.3724   -6658222.26245  -5110727.97261
  19390355.130   -23202017.400 7 -17876440.40823
  19686815.4274   -8353775.13947  -6431461.96364
  23238397.771          -0.41713
 93  9  1  2 38 29.9930000  0  7G21G15G14G31G25G 1G28
  20390318.3574   -2171904.37146  -1662356.76561
  19468355.989   -21498631.075 7 -16324337.71523
  23249327.2244   -1598745.57943   -979851.20361
  22200913.872    -6618562.929 5  -5079824.66121
  19373506.224   -23290573.056 7 -17945444.77723
  19692586.8174   -8323442.03847  -6407825.75863
  23249051.7474      56010.20243
 93  9  1  2 38 59.9930000  0  8G21G15G14G31G25G 1G28G23
  20395207.607    -2146204.667 6  -1642330.99321
  19450330.692   -21593371.754 7 -16398161.58623
  23227496.396    -1713463.582 2  -1069241.83221
  22208480.505    -6578806.394 5  -5048845.59121
  19356733.732   -23378699.652 7 -18014114.80823
  19698390.950    -8292954.547 7  -6384069.26123
  23259680.107      111863.994 3        -0.37931
  23181478.7634         -0.85653
 93  9  1  2 39 29.9930000  0  7G21G15G14G31G25G 1G23
  20400129.888    -2120330.624 6  -1622169.42521
  19432391.091   -21687648.069 7 -16471623.60623
  23205646.9664   -1828248.42343  -1158684.44961
  22216064.5674   -6538959.62445  -5017796.22761
  19340047.935   -23466380.162 7 -18082437.25223
  19704219.0914   -8262320.03647  -6360198.19763
  23189232.3414      40745.99244        -0.44271
 93  9  1  2 39 59.9930000  0  8G21G15G14G31G25G 1G28G23
  20405092.1534   -2094267.00046  -1601860.12761
  19414538.185   -21781443.918 7 -16544711.24623
  23183794.2944   -1943086.06141  -1248168.29561
  22223667.927    -6499005.548 5  -4986663.23321
  19323456.060   -23553587.637 7 -18150391.09223
  19710081.5994   -8231512.71447  -6336192.48963
  23280841.052          -0.62113
  23197002.6384      81587.77544     31824.30461
 93  9  1  2 40 29.9930000  0  7G21G15G14G31G25G 1G23
  20410089.942    -2068006.683 6  -1581397.58721
  19396783.505   -21874757.419 7 -16617423.03123
  23161938.1384   -2057980.10142  -1337696.11861
  22231285.177    -6458943.622 5  -4955446.18121
  19306952.739   -23640309.086 7 -18217966.20723
  19715975.4354   -8200536.76847  -6312055.37163
  23204793.0134     122524.42944     63722.98061
 93  9  1  2 40 59.9930000  0  7G21G15G14G31G25G 1G28
  20415127.8104   -2041532.74546  -1560768.53261
  19379119.575   -21967596.308 7 -16689764.99123
  23140066.208    -2172923.563 1  -1427262.42821
  22238931.8724   -6418780.09145  -4924149.96761
  19290540.966   -23726537.563 7 -18285157.19724
  19721901.4824   -8169397.03247  -6287790.63563
  23301844.8024         -0.45152
 93  9  1  2 41 29.9930000  0  7G21G15G14G31G25G 1G28
  20420216.497    -2014795.645 6  -1539934.39621
  19361544.567   -22059933.419 7 -16761715.95423
  23118184.9354   -2287887.73142  -1516844.78661
  22246601.8024   -6378473.62745  -4892742.41161
  19274235.482   -23812233.886 7 -18351933.51623
  19727864.9584   -8138060.10747  -6263372.24763
  23312306.5914      54905.84442
 93  9  1  2 41 59.9930000  0  5G21G15G31G25G 1
  20425349.2554   -1987816.27546  -1518911.50761
  19344066.825   -22151778.447 7 -16833283.48123
  22254296.653    -6338047.372 5  -4861241.48121
  19258025.646   -23897423.805 7 -18418315.23924
  19733861.3804   -8106548.33547  -6238817.60863
 93  9  1  2 42 29.9930000  0  6G21G15G14G31G25G 1
  20430530.1694   -1960587.75046  -1497694.45961
  19326685.388   -22243134.799 7 -16904470.22223
  23074405.560          -0.69112
  22262009.1694   -6297509.93544  -4829653.92661
  19241905.794   -23982116.957 7 -18484309.86624
  19739886.0284   -8074891.89947  -6214150.26063
 93  9  1  2 42 59.9930000  0  5G21G15G31G25G 1
  20435759.7474   -1933106.80146  -1476280.71961
  19309392.044   -22334000.317 7 -16975274.49923
  22269749.880    -6256846.858 4  -4797968.48521
  19225882.739   -24066324.381 7 -18549926.00423
  19745935.8024   -8043096.76347  -6189374.82263
 93  9  1  2 43 29.9930000  0  5G21G15G31G25G 1
  20441033.3724   -1905406.26746  -1454695.89361
  19292192.192   -22424380.069 7 -17045700.25623
  22277506.489    -6216065.290 4  -4766190.69921
  19209951.403   -24150056.467 7 -18615171.75224
  19752008.7164   -8011177.43647  -6164502.61963
 93  9  1  2 43 59.9930000  0  6G21G15G14G31G25G 1
  20446344.1464   -1877491.90446  -1432944.41661
  19275090.6774  -22514266.89347 -17115741.91563
  23008622.083          -0.73513
  22285288.872    -6175176.477 5  -4734329.32821
  19194104.067   -24233317.911 7 -18680050.76324
  19758110.5054   -7979117.76647  -6139521.05963
 93  9  1  2 44 29.9930000  0  5G21G15G31G25G 1
  20451702.263    -1849331.898 6  -1411001.57921
  19258080.1384  -22603655.00147 -17185394.97163
  22293091.4114   -6134176.42745  -4702381.29061
  19178352.091   -24316099.806 7 -18744556.10024
  19764241.3574   -7946899.29147  -6114415.75263
 93  9  1  2 44 59.9930000  0  6G21G15G14G31G25G 1
  20457109.6224   -1820926.14246  -1388867.26062
  19241163.6144  -22692530.07347 -17254648.25763
  22964674.958          -0.58213
  22300913.021    -6093061.498 5  -4670343.72721
  19162694.419   -24398396.585 7 -18808683.42824
  19770408.3254   -7914486.93247  -6089159.36863
 93  9  1  2 45 29.9930000  0  6G21G15G14G31G25G 1
  20462558.341    -1792275.120 6  -1366541.82521
  19224351.8964  -22780888.08447 -17323498.64063
  22942677.8644    -115580.55743        -0.24871
  22308754.8884   -6051845.56444  -4638227.45061
  19147125.528   -24480201.770 7 -18872427.69524
  19776616.6144   -7881871.17847  -6063744.50363
 93  9  1  2 45 59.9930000  0  6G21G15G14G31G25G 1
  20468062.8494   -1763374.79246  -1344022.09361
  19207638.4034  -22868739.18347 -17391954.03463
  22920674.3024    -231218.71443    -90107.77761
  22316619.153    -6010545.657 4  -4606045.78921
  19131649.153   -24561519.068 7 -18935791.79124
  19782855.9114   -7849070.49647  -6038185.54163
 93  9  1  2 46 29.9930000  0  6G21G15G14G31G25G 1
  20473604.1614   -1734233.60346  -1321314.67161
  19191013.903   -22956087.152 7 -17460017.35723
  22898655.333     -346914.438 2   -180260.34421
  22324494.271    -5969163.680 4  -4573800.15621
  19116268.310   -24642349.095 7 -18998776.19724
  19789129.9584   -7816114.68547  -6012505.68763
 93  9  1  2 46 59.9930000  0  6G21G15G14G31G25G 1
  20479195.2944   -1704863.48446  -1298428.85861
  19174488.3494  -23042917.91747 -17527677.67463
  22876630.0754    -462654.78444
  22332388.200    -5927683.793 4  -4541478.22121
  19100985.263   -24722673.232 7 -19061366.40524
  19795427.3804   -7783005.20647  -5986706.09763
 93  9  1  2 47 29.9930000  0  7G21G15G14G31G25G 1G29
  20484824.817    -1675262.936 6  -1275363.54721
  19158062.8174  -23129234.19147 -17594937.09463
  22854599.122          -0.72414
  22340299.1614   -5886108.18844  -4509081.74061
  19085798.442   -24802482.225 7 -19123555.19724
  19801755.1224   -7749764.71147  -5960804.41563
  23210942.5994         -0.40153
 93  9  1  2 47 59.9930000  0  7G21G15G14G31G25G 1G29
  20490501.286    -1645443.163 6  -1252127.36121
  19141737.521   -23215042.501 7 -17661800.69123
  22832558.692     -115835.016 4
  22348225.450    -5844438.494 4  -4476611.89721
  19070705.661   -24881780.687 7 -19185346.17424
  19808101.6384   -7716414.29647  -5934817.08463
  23188978.8104    -115419.64243
 93  9  1  2 48 29.9930000  0  7G21G15G14G31G25G 1G29
  20496222.9744   -1615387.41146  -1228707.29661
  19125508.1854  -23300325.45047 -17728254.91763
  22810507.7244    -231713.35243
  22356175.9974   -5802667.17144  -4444062.87861
  19055713.958   -24960558.574 7 -19246731.50724
  19814471.8254   -7682931.28847  -5908726.43163
  23167045.0914         -0.25953
 93  9  1  2 48 59.9930000  0  6G21G15G14G31G25G 1
  20501988.4974   -1585093.02046  -1205101.29261
  19109376.864   -23385087.743 7 -17794303.43823
  22788444.7634    -347647.53144        -0.40771
  22364135.4114   -5760815.31544  -4411451.06461
  19040825.208   -25038816.372 7 -19307711.58024
  19820868.4354   -7649312.05247  -5882529.62263
 93  9  1  2 49 29.9930000  0  6G21G15G14G31G25G 1
  20507798.4114   -1554558.35946  -1181308.05761
  19093345.7554  -23469330.61747 -17859947.21963
  22766372.8724    -463639.45444    -90383.72361
  22372114.6534   -5718901.50544  -4378791.00461
  19026030.536   -25116560.711 7 -19368291.55624
  19827290.3334   -7615567.79647  -5856235.40163
 93  9  1  2 49 59.9930000  0  6G21G15G14G31G25G 1
  20513653.3964   -1523785.51946  -1157329.22661
  19077414.739   -23553049.781 7 -17925182.89723
  22744285.857     -579697.513 4   -180818.48221
  22380097.5834   -5676934.93643  -4346089.81461
  19011334.411   -25193785.901 7 -19428466.99824
  19833737.6144   -7581691.80847  -5829838.52663
 93  9  1  2 50 29.9930000  0  6G21G15G14G31G25G 1
  20519557.8414   -1492754.46446  -1133149.20461
  19061588.607   -23636224.804 7 -17989994.57623
  22722192.7784    -695801.76844   -271289.31061
  22388105.4744   -5634917.17043  -4313348.79061
  18996740.286   -25270470.117 7 -19488220.90424
  19840213.7474   -7547657.14147  -5803318.00863
 93  9  1  2 50 59.9930000  0  6G21G15G14G31G25G 1
  20525504.9744   -1461508.35346  -1108801.59161
  19045859.552   -23718877.504 7 -18054399.24923
  22700091.169     -811970.310 5   -361810.21021
  22396101.716    -5592863.440 3  -4280579.73521
  18982247.708   -25346636.147 7 -19547571.02124
  19846714.5134   -7513492.63447  -5776696.30963
 93  9  1  2 51 29.9930000  0  8G21G15G14G31G25G 1G29G20
  20531489.1694   -1430057.79046  -1084294.65561
  19030229.872   -23801001.421 7 -18118391.87623
  22677967.528     -928196.291 4   -452375.84521
  22404107.5604   -5550754.45643  -4247767.59161
  18967852.357   -25422290.496 7 -19606522.43424
  19853241.6854   -7479196.14147  -5749971.77063
  23036032.3644         -0.20053
  23169282.6534         -0.37553
 93  9  1  2 51 59.9930000  0  8G21G15G14G31G25G 1G29G20
  20537511.2394   -1398398.02646  -1059624.71061
  19014704.630   -23882586.007 7 -18181964.25223
  22655845.341    -1044468.609 4   -542977.61121
  22412141.6924   -5508580.59044  -4214904.91061
  18953556.349   -25497418.169 7 -19665063.44424
  19859798.6924   -7444743.97547  -5723125.92663
  23014290.185     -114219.979 4
  23155098.622      -74576.326 3
 93  9  1  2 52 29.9930000  0  8G21G15G14G31G25G 1G29G20
  20543573.396    -1366535.230 6  -1034796.60321
  18999283.060   -23963636.902 7 -18245120.76223
  22633709.9664   -1160786.89745   -633615.19361
  22420175.091    -5466349.346 5  -4181997.48421
  18939354.357   -25572040.752 7 -19723210.88124
  19866380.9974   -7410147.74847  -5696167.82263
  22992573.521     -228332.355 4        -0.49831
  23140962.372     -148823.052 4        -0.45531
 93  9  1  2 52 59.9930000  0  8G21G15G14G31G25G 1G29G20
  20549680.4744   -1334456.34846  -1009800.09461
  18983966.107   -24044140.216 7 -18307850.58423
  22611567.8254   -1277143.99444   -724282.95361
  22428227.6694   -5424042.67745  -4149031.27061
  18925250.013   -25646153.364 7
  19872990.8024   -7375410.14647  -5669099.56463
  22970888.192     -342324.404 5    -88825.28921
  23126903.7634    -222726.22345
 93  9  1  2 53 29.9930000  0  8G21G15G14G31G25G 1G29G20
  20555828.2164   -1302148.51446   -984625.14961
  18968749.6304  -24124097.08747 -18370154.61163
  22589414.2394   -1393546.32243   -814986.00861
  22436287.067    -5381676.412 4  -4116018.64621
  18911244.732   -25719749.063 7
  19879626.7394   -7340544.18347  -5641931.28063
  22949221.638     -456192.555 5   -177553.50121
  23112907.3494    -296286.33844
 93  9  1  2 53 59.9930000  0  8G21G15G14G31G25G 1G29G20
  20562021.2324   -1269602.46646   -959264.60161
  18953637.521   -24203509.466 7 -18432034.36523
  22567254.669    -1510001.297 3   -905730.03421
  22444359.9744   -5339265.75544  -4082971.40461
  18897340.317   -25792821.148 7 -19895247.45824
  19886285.1304   -7305553.87147  -5614666.10163
  22927571.2784    -569914.02444   -266167.45561
  23098974.958     -369504.981 3
 93  9  1  2 54 29.9930000  0  7G21G15G14G31G25G 1G29
  20568260.927    -1236822.501 6   -933721.76621
  18938628.067   -24282386.467 7 -18493496.93824
  22545081.3024   -1626523.15043   -996526.19261
  22452435.0524   -5296819.73843  -4049896.63061
  18883531.450   -25865392.904 7 -19951796.84423
  19892962.1534   -7270461.89847  -5587321.70863
  22905962.169     -683489.957 4   -354668.03121
 93  9  1  2 54 59.9930000  0  7G21G15G14G31G25G 1G29
  20574542.9034   -1203803.72946   -907992.84261
  18923719.950   -24360715.811 7 -18554532.76224
  22522896.255    -1743100.447 4  -1087365.53221
  22460523.6854   -5254319.84743  -4016779.87061
  18869820.255   -25937447.730 7 -20007943.43324
  19899662.0674   -7235257.33047  -5559889.57463
  22884379.9424    -796886.87043   -443029.05661
 93  9  1  2 55 29.9930000  0  8G21G15G14G31G25G 1G29G20
  20580872.8724   -1170539.84446   -882072.93961
  18908918.489   -24438488.126 7 -18615134.53624
  22500708.872    -1859715.494 3  -1178234.30021
  22468619.3494   -5211766.72244  -3983621.63761
  18856209.857   -26008974.823 7 -20063678.79724
  19906387.5364   -7199916.27847  -5532351.08963
  22862838.013     -910108.671 2   -531253.65121
  23057563.8804         -0.10153
 93  9  1  2 55 59.9930000  0  8G21G15G14G31G25G 1G29G20
  20587248.880    -1137043.955 6   -855972.23721
  18894223.255   -24515719.219 7 -18675314.57123
  22478506.7944   -1976385.61143  -1269145.98761
  22476723.146    -5169184.999 4  -3950441.10821
  18842693.966   -26080002.382 7 -20119024.91523
  19913138.0364   -7164436.03347  -5504704.15063
  22841316.4194   -1023180.06642
  23043895.7394     -71846.25843
 93  9  1  2 56 29.9930000  0  8G21G15G14G31G25G 1G29G20
  20593668.396    -1103301.656 6   -829679.54721
  18879632.567   -24592390.652 7 -18735058.50924
  22456299.857    -2093088.190 3  -1360082.90121
  22484836.278    -5126561.071 4  -3917227.72221
  18829277.622   -26150504.772 7 -20173961.81124
  19919918.5214   -7128803.90747  -5476938.84963
  22819843.974    -1136099.165 2
  23030291.536     -143333.153 3        -0.21531
 93  9  1  2 56 59.9930000  0  6G21G15G14G31G25G 1
  20600133.8724   -1069315.60546   -803196.90761
  18865148.411   -24668504.325 7 -18794367.84224
  22434079.349    -2209828.103 3  -1451048.93421
  22492948.575    -5083912.183 4  -3883994.88121
  18815965.716   -26220460.261 7 -20228472.55824
  19926729.4424   -7093018.93747  -5449054.46563
 93  9  1  2 57 29.9930000  0  7G21G15G14G31G25G 1G29
  20606649.099    -1035072.669 6   -776514.12321
  18850770.5214  -24744061.69547 -18853243.69264
  22411854.216    -2326622.789 3  -1542057.71121
  22501064.271    -5041253.320 4  -3850754.24721
  18802758.278   -26289864.320 7 -20282553.61224
  19933566.6464   -7057089.49747  -5421057.48863
  22776924.419          -0.52513
 93  9  1  2 57 59.9930000  0  8G21G15G14G31G25G 1G29G20
  20613214.528    -1000570.639 6   -749629.45721
  18836497.630   -24819057.559 7 -18911682.00624
  22389615.677    -2443481.036 3  -1633115.96221
  22509189.5524   -4998569.52544  -3817494.20461
  18789657.7944  -26358711.56447 -20336200.78363
  19940428.8334   -7021029.18347  -5392958.55362
  22755513.2714    -112551.61843
  22989885.2784     -70411.90843
 93  9  1  2 58 29.9930000  0  8G21G15G14G31G25G 1G29G20
  20619827.2554    -965824.35746   -722554.45661
  18822336.958   -24893490.142 7 -18969681.39424
  22367376.185    -2560399.248 3  -1724220.99521
  22517317.6074   -4955852.95344  -3784208.64561
  18776661.528   -26427005.544 7 -20389416.84623
  19947309.3174   -6984867.23247  -5364780.40863
  22734115.661     -224968.382 4        -0.31831
  22976546.8724    -140458.48642        -0.47771
 93  9  1  2 58 59.9930000  0  8G21G15G14G31G25G 1G29G20
  20626482.3884    -930859.63946   -695309.23061
  18808277.0524  -24967370.76247 -19027250.69364
  22345107.6854   -2677389.82642  -1815382.36761
  22525452.341    -4913126.699 3  -3750915.52821
  18763764.185   -26494776.236 7 -20442225.15124
  19954207.1614   -6948619.70447  -5336535.58263
  22712744.349     -337245.608 4    -87488.94521
  22963296.692     -210151.491 3    -54306.60221
 93  9  1  2 59 29.9930000  0  8G21G15G14G31G25G 1G29G20
  20633182.052     -895664.067 6   -667884.13121
  18794327.7714  -25040673.35547 -19084369.58164
  22322837.2944   -2794419.83143  -1906574.50161
  22533581.849    -4870363.959 3  -3717593.98321
  18750967.325   -26562022.616 7 -20494624.90423
  19961122.4894   -6912276.44047  -5308216.15863
  22691420.6854    -449332.13943   -174828.92461
  22950106.317     -279464.037 4   -108316.36021
 93  9  1  2 59 59.9930000  0  8G21G15G14G31G25G 1G29G20
  20639916.419     -860258.973 6   -640295.76621
  18780490.5054  -25113396.51347 -19141036.97163
  22300567.9354   -2911461.61344  -1997775.85061
  22541727.982    -4827572.620 3  -3684250.15621
  18738269.357   -26628741.678 7 -20546613.75223
  19968058.2554   -6875835.49347  -5279820.61262
  22670138.1614    -561214.15443   -262009.56861
  22936985.521     -348394.548 3   -162028.36521
 93  9  1  3  0 29.9930000  0  8G21G15G14G31G25G 1G29G20
  20646691.0054    -824660.80046   -612556.96061
  18766761.7554  -25185552.63847 -19197262.52664
  22278292.5524   -3028513.36344  -2088984.95661
  22549870.997    -4784791.641 4  -3650914.38621
  18725672.6854  -26694934.62547 -20598192.64964
  19975010.5054   -6839295.41447  -5251347.83163
  22648865.911     -672912.192 2   -349046.81521
  22923935.739     -416954.443 3   -215451.55621
 93  9  1  3  0 59.9930000  0  8G21G15G14G31G25G 1G29G20
  20653506.474     -788851.901 6   -584653.96621
  18753140.0994  -25257139.27147 -19253044.30263
  22256007.622    -3145581.389 3  -2180206.79821
  22558010.3414   -4742027.47044  -3617591.71961
  18713181.052   -26760578.470 7 -20649343.66724
  19981985.4034   -6802644.03647  -5222788.31563
  22627649.1144    -784431.34342   -435944.65461
  22910967.841     -485140.889 4   -268583.79721
 93  9  1  3  1 29.9920000  0  8G21G15G14G31G25G 1G29G20
  20660361.4454    -752821.71546   -556578.50861
  18739622.1254  -25328160.21947 -19308385.29564
  22233731.805    -3262684.501 4  -2271455.95021
  22566148.727    -4699270.394 4  -3584274.60121
  18700798.258   -26825660.253 7 -20700056.72024
  19988979.6094   -6765889.09547  -5194148.10363
  22606449.2274    -895798.51442   -522724.07261
  22898057.039     -552957.328 3   -321427.76921
 93  9  1  3  1 59.9920000  0  8G21G15G14G31G25G 1G29G20
  20667268.234     -716523.617 6   -528294.29121
  18726217.2344  -25398596.89047 -19363271.01064
  22211440.891    -3379828.398 5  -2362736.90121
  22574286.8594   -4656490.71144  -3550939.85561
  18688529.024   -26890145.310 7 -20750304.79023
  19995999.8594   -6728999.59347  -5165403.03963
  22585294.6724   -1007018.54542   -609388.81661
  22885227.5944    -620384.09943   -373968.09061
 93  9  1  3  2 29.9920000  0  8G21G15G14G31G25G 1G29G20
  20674227.5944    -679963.30846   -499805.75961
  18712922.1804  -25468463.96947 -19417712.88864
  22189128.734    -3497054.210 4  -2454081.69021
  22582423.3594   -4613703.42543  -3517599.19061
  18676368.399   -26954053.317 7 -20800103.21324
  20003037.9144   -6692008.76847  -5136579.01863
  22564158.7664   -1118125.80443   -695965.71861
  22872466.6174    -687435.89744   -426216.12561
 93  9  1  3  2 59.9920000  0  8G21G15G14G31G25G 1G29G20
  20681237.9844    -643127.88946
  18699739.0864  -25537745.61547 -19471698.58264
  22166812.3754   -3614357.77645  -2545487.05661
  22590580.4304   -4570876.95143  -3484228.01961
  18664315.1884  -27017383.63647 -20849451.49363
  20010097.8204   -6654913.21847
  22543027.9384   -1229099.44843   -782438.53961
  22859786.180     -754095.943 4   -478158.99221
 93  9  1  3  3 29.9920000  0  8G21G15G14G31G25G 1G29G20
  20688294.9694    -606036.96745
  18686665.5634  -25606447.86147 -19525232.79664
  22144473.1804   -3731732.40045  -2636947.80261
  22598740.2664   -4528026.20642  -3450837.97261
  18652366.242   -27080163.695 7 -20898370.99024
  20017174.8994   -6617720.07047
  22521947.4694   -1339943.10744   -868810.02161
  22847172.7744    -820369.92743   -529801.02161
 93  9  1  3  3 59.9920000  0  8G21G15G14G31G25G 1G29G20
  20695400.695     -568694.141 5
  18673706.2344  -25674562.77847 -19578309.34964
  22122130.6254   -3849139.65645  -2728433.98561
  22606879.078    -4485175.514 2  -3417447.94121
  18640521.6414  -27142404.36447 -20946870.19363
  20024272.7974   -6580421.80147
  22500877.7114   -1450634.81544   -955063.12661
  22834628.492     -886249.097 3   -581135.35521
 93  9  1  3  4 29.9920000  0  8G21G15G14G31G25G 1G29G20
  20702550.2344    -531126.05945   -383828.67161
  18660855.9384  -25742089.42447 -19630927.51164
  22099787.719    -3966552.748 5  -2819924.63221
  22615046.9694   -4442342.66043  -3384071.82461
  18628778.789   -27204121.974 7 -20994961.80723
  20031389.4774   -6543018.96047  -5020483.07862
  22479841.188    -1561162.048 3  -1041188.08221
  22822177.1024    -951732.06244   -632160.99561
 93  9  1  3  4 59.9920000  0  8G21G15G14G31G25G 1G29G20
  20709739.2744    -493346.22146   -354389.84861
  18648113.6724  -25809034.13647 -19683092.21464
  22077442.219    -4083964.330 5  -2911414.12621
  22623179.9614   -4399550.05443  -3350727.01561
  18617132.8134  -27265333.44347 -21042659.03363
  20038527.0084   -6505514.28947  -4991258.65462
  22458832.336    -1671524.329 3  -1127184.51521
  22809785.469    -1016824.656 3   -682882.42321
 93  9  1  3  5 29.9920000  0  8G21G15G14G31G25G 1G29G20
  20716966.5784    -455353.90346   -324785.45461
  18635486.2114  -25875403.35547 -19734808.48264
  22055108.3524   -4201380.12045  -3002906.87761
  22631305.9304   -4356825.16343  -3317434.97061
  18605578.047   -27326038.419 7 -21089961.58424
  20045681.6334   -6467919.33547  -4961963.89662
  22437865.7344   -1781731.48743  -1213060.02161
  22797476.391    -1081532.570 3   -733304.17021
 93  9  1  3  5 59.9920000  0  8G21G15G14G31G25G 1G29G20
  20724238.4064    -417148.72046   -295015.19261
  18622968.1174  -25941189.22247 -19786070.19464
  22032754.4534   -4318810.87345  -3094411.23361
  22639434.016    -4314154.885 4  -3284185.47521
  18594125.570   -27386218.516 7 -21136855.13924
  20052852.6644   -6430232.94047  -4932597.87662
  22416929.664    -1891779.630 3  -1298811.63821
  22785234.7034   -1145847.10343   -783419.33461
 93  9  1  3  6 29.9920000  0  8G21G15G14G31G25G 1G29G20
  20731547.6254    -378735.76946   -265083.04161
  18610557.0314  -26006389.04447 -19836875.24264
  22010400.2504   -4436292.44245  -3185955.25461
  22647544.508    -4271519.643 4  -3250963.27021
  18582779.9924  -27445859.01747 -21183328.23464
  20060039.1094   -6392467.16947  -4903170.00262
  22396012.6254   -2001679.60643  -1384447.77761
  22773072.0554   -1209764.95345   -833225.42861
 93  9  1  3  6 59.9920000  0  8G21G15G14G31G25G 1G29G20
  20738900.4384    -340097.05246   -234974.95461
  18598267.7194  -26070995.38947 -19887217.84264
  21988037.1884   -4553840.37945  -3277550.92461
  22655657.2974   -4228905.80144
  18571534.0944  -27504938.82147 -21229364.41663
  20067241.7194   -6354622.63447  -4873680.76362
  22375132.125    -2111432.370 3  -1469969.23621
  22760984.2194   -1273278.24443   -882716.25561
 93  9  1  3  7 29.9920000  0  7G21G15G14G31G25G 1G29
  20746296.5394    -301231.07746   -204689.78861
  18586084.3524  -26135004.48547 -19937095.04764
  21965642.0314   -4671458.77945  -3369201.51161
  22663764.0554   -4186298.98743        -0.21971
  18560404.516   -27563441.680 7 -21274951.02924
  20074458.1724   -6316701.18747  -4844131.58262
  22354272.570    -2221046.468 4  -1555382.65321
 93  9  1  3  7 59.9920000  0  8G21G15G14G31G25G 1G29G20
  20753736.8914    -262143.07746   -174231.63361
  18574016.5244  -26198424.95947 -19986513.58864
  21943252.9534   -4789153.53445  -3460911.58161
  22671869.7504   -4143691.28443     33200.50361
  18549377.258   -27621375.465 7 -21320094.21423
  20081685.6254   -6278711.73147  -4814529.42062
  22333435.2274   -2330536.98144  -1640699.76061
  22737040.844          -0.11213
 93  9  1  3  8 29.9920000  0  8G21G15G14G31G25G 1G29G20
  20761221.5864    -222803.14346   -143577.14461
  18562060.6254  -26261246.23947 -20035465.21464
  21920845.9534   -4906891.26145  -3552655.14061
  22679979.5864   -4101084.13042     66400.77761
  18538465.289   -27678728.086 7 -21364784.54523
  20088930.7664   -6240642.47747  -4784865.06062
  22312632.227    -2439892.283 5  -1725911.51221
  22725189.625      -62291.098 4
 93  9  1  3  8 59.9920000  0  8G21G15G14G31G25G 1G29G20
  20768757.6644    -183199.27046   -112717.00861
  18550220.9844  -26323467.07647 -20083948.97064
  21898440.7034   -5024643.79045  -3644410.25061
  22688073.2504   -4058495.99242     99586.20361
  18527662.359   -27735494.004 7 -21409017.70023
  20096192.0554   -6202483.41047  -4755130.72562
  22291837.695    -2549104.566 4  -1811011.79721
  22713417.250     -124167.612 4
 93  9  1  3  9 29.9920000  0  8G21G15G14G31G25G 1G29G20
  20776345.2664    -143331.60646    -81651.31961
  18538496.0784  -26385087.75447
  21876033.797    -5142401.692 5  -3736169.50421
  22696186.0244   -4015933.03443    132752.02961
  18516969.024   -27791681.980 7 -21452800.51024
  20103473.1954   -6164219.66547  -4725314.81762
  22271087.0314   -2658165.85244  -1895994.49761
  22701713.516     -185629.257 2
 93  9  1  3  9 59.9920000  0  8G21G15G14G31G25G 1G29G20
  20783981.563     -103206.686 6    -50385.15621
  18526879.4694  -26446116.57747
  21853617.813    -5260174.877 5  -3827940.72021
  22704271.234    -3973417.544 3    165880.85621
  18506385.625   -27847304.556 7 -21496142.74824
  20110774.1254   -6125851.58747  -4695417.60962
  22250364.8524   -2767062.34744  -1980848.76061
  22690104.328     -246683.233 4
 93  9  1  3 10 29.9920000  0  8G21G15G14G31G25G 1G29G20
  20791663.516      -62827.047 6    -18920.52721
  18515384.5084  -26506536.89947 -20226600.72864
  21831212.6954   -5377952.58345  -3919715.44861
  22712349.953    -3930953.074 4    198969.93721
  18495909.633   -27902353.855 7 -21539038.28023
  20118097.6804   -6087367.70247  -4665430.16262
  22229680.7424   -2875770.41344  -2065556.16761
  22678562.906     -307312.891 4
 93  9  1  3 10 59.9920000  0  8G21G15G14G31G25G 1G29G20
  20799390.2034     -22214.96946     12725.23261
  18504001.4224  -26566350.04547 -20273208.34964
  21808783.945    -5495755.450 5  -4011509.80321
  22720428.1254   -3888536.46044    232021.71961
  18485540.711   -27956840.643 7 -21581495.49824
  20125443.7194   -6048771.15547  -4635354.91962
  22209023.1564   -2984294.88743  -2150120.52761
  22667107.078     -367518.701 3
 93  9  1  3 11 29.9920000  0  8G21G15G14G31G25G 1G29G20
  20807162.047       18616.674 6     44542.09421
  18492733.0554  -26625568.52047 -20319352.59264
  21786366.2424   -5613611.51445  -4103345.63961
  22728484.1564   -3846172.85944    265032.21661
  18475276.6724  -28010789.01547 -21623533.16564
  20132803.0314   -6010088.63147  -4605212.69462
  22188409.570    -3092658.078 4  -2234559.18121
  22655725.539     -427312.224 3
 93  9  1  3 11 59.9920000  0  8G21G15G14G31G25G 1G29G20
  20814971.195       59658.874 6     76523.00121
  18481580.102   -26684188.277 7 -20365030.30824
  21763925.391    -5731511.448 5  -4195215.62821
  22736532.172    -3803878.641 4    297988.64821
  18465110.422   -28064191.744 7 -21665145.65623
  20140177.0164   -5971348.58347  -4575025.63062
  22167814.727    -3200863.442 4  -2318874.89221
  22644436.688          -0.25915
 93  9  1  3 12 29.9920000  0  8G21G15G14G31G25G 1G29G20
  20822824.8754     100909.71246    108666.48061
  18470535.8284  -26742200.95847 -20410234.97564
  21741489.4384   -5849441.14345  -4287108.79361
  22744570.8444   -3761658.38545    330887.42561
  18455056.891   -28117044.358 7 -21706329.48624
  20147557.3284   -5932552.02447  -4544794.54362
  22147253.2584   -3308917.77544  -2403072.93461
  22633215.0554     -58951.29845
 93  9  1  3 12 59.9920000  0  8G21G15G14G31G25G 1G29G20
  20830713.602      142382.764 5    140983.13021
  18459618.1174  -26799597.32647 -20454959.39564
  21719035.609    -5967395.551 5  -4379021.22321
  22752594.2974   -3719501.96744
  18445106.281   -28169328.777 7 -21747070.56724
  20154953.6254   -5893694.20647  -4514515.71762
  22126721.852    -3416818.761 4  -2487151.48921
  22622075.9224    -117466.46044        -0.30571
 93  9  1  3 13 29.9920000  0  8G21G15G14G31G25G 1G29G20
  20838645.9924     184074.42345    173470.12261
  18448814.039   -26856380.421 7 -20499205.93924
  21696594.742    -6085366.463 5  -4470946.55321
  22760599.516    -3677420.071 4        -0.03931
  18435263.4454  -28221039.76947 -21787364.82363
  20162356.7814   -5854784.75547  -4484196.66262
  22106214.3594   -3524561.28844  -2571106.56061
  22611024.5164    -175548.00744    -45258.59661
 93  9  1  3 13 59.9920000  0  8G21G15G14G31G25G 1G29G20
  20846615.4454     225952.71445
  18438118.305   -26912566.921 7 -20542987.60524
  21674136.9844   -6203355.59245  -4562886.05261
  22768589.9224   -3635439.68143
  18425533.063   -28272183.477 7 -21827217.03723
  20169770.1494   -5815834.56647  -4453845.85762
  22085747.984    -3632154.679 4  -2654945.40421
  22600052.953     -233211.919 5    -90191.47921
 93  9  1  3 14 29.9920000  0  8G21G15G14G31G25G 1G29G20
  20854624.484      268038.027 5    238896.28621
  18427539.6094  -26968151.29447 -20586300.07864
  21651682.250    -6321366.686 5  -4654842.70721
  22776562.4454   -3593529.16342
  18415912.570   -28322755.421 7 -21866623.72024
  20177193.2344   -5776820.99147  -4423445.66262
  22065295.563    -3739601.373 3  -2738669.96521
  22589159.672     -290451.682 4   -134793.81721
 93  9  1  3 14 59.9920000  0  8G21G15G14G31G25G 1G29G20
  20862674.0944     310333.56845    271853.83761
  18417080.359   -27023136.032 7 -20629145.30724
  21629223.555    -6439397.716 5  -4746814.84721
  22784534.5004   -3551677.56442
  18406394.8134  -28372756.06847 -21905585.24263
  20184630.1724   -5737742.32747  -4392994.75662
  22044886.274    -3846898.125 4  -2822277.66221
  22578348.914     -347268.920 5   -179066.98021
 93  9  1  3 15 29.9920000  0  8G21G15G14G31G25G 1G29G20
  20870766.2274     352861.61745    304992.58961
  18406736.0004  -27077503.67447 -20671509.68064
  21606757.234    -6557422.300 5  -4838782.00121
  22792486.297    -3509879.447 3        -0.40631
  18396989.086   -28422173.369 7 -21944092.20524
  20192082.1564   -5698571.54547  -4362472.05662
  22024497.4774   -3954028.12444  -2905755.46261
  22567617.406     -403645.769 4   -222996.98521
 93  9  1  3 15 59.9920000  0  8G21G15G14G31G25G 1G29G20
  20878904.0394     395618.83445    338309.89761
  18396501.305   -27131267.643 7 -20713403.65024
  21584295.1024   -6675466.59745  -4930764.53061
  22800424.5944   -3468146.53243     32518.63761
  18387692.4384  -28471034.08047 -21982165.46264
  20199553.3994   -5659319.00647  -4331885.66862
  22004129.5164   -4061011.71344  -2989119.16761
  22556970.3754    -459594.92744   -266593.63361
 93  9  1  3 16 29.9920000  0  8G21G15G14G31G25G 1G29G20
  20887090.0944     438647.39345    371838.62161
  18386389.578   -27184401.517 7 -20754806.64824
  21561833.516    -6793518.041 5  -5022752.61821
  22808367.9144                         -0.80554
  18378506.0554  -28519319.48947 -22019790.43763
  20207042.8834   -5619962.37147  -4301218.15862
  21983805.0474   -4167819.81344  -3072346.11961
  22546415.7894    -515089.05645   -309835.78761
 93  9  1  3 16 59.9920000  0  8G21G15G14G31G25G 1G29G20
  20895328.4694     481929.35845    405564.82661
  18376394.703   -27236918.390 7 -20795728.85824
  21539365.9064   -6911591.29745  -5114757.71461
  22816280.203       41637.803 4        -0.30531
  18369426.352   -28567037.967 7 -22056973.63723
  20214545.8364   -5580526.20247  -4270488.67962
  21963510.836    -4274461.362 4  -3155443.32721
  22535936.359     -570140.621 5   -352733.08421
 93  9  1  3 17 29.9920000  0  8G21G15G14G31G25G 1G29G20
  20903609.7974     525465.24445    439488.90061
  18366517.774   -27288823.119 7 -20836174.07424
  21516890.8914   -7029708.34645  -5206796.95161
  22824195.6804      83199.88544     32385.62561
  18360452.875   -28614192.671 7 -22093717.54224
  20222061.9774   -5541033.20547  -4239714.92762
  21943256.274    -4380952.043 4  -3238422.95121
  22525541.891     -624753.452 4   -395288.52721
 93  9  1  3 17 59.9920000  0  8G21G15G14G31G25G 1G29G20
  20911944.9774     569248.94245    473606.03261
  18356757.8204  -27340115.21647 -20876141.93064
  21494399.203    -7147870.419 5  -5298871.26021
  22832082.602      124690.066 4     64715.51021
  18351585.6254  -28660788.87447 -22130026.24964
  20229585.0314   -5501498.78847  -4208908.88062
  21923020.805    -4487282.164 5  -3321277.52321
  22515235.367     -678926.164 5   -437500.97221
 93  9  1  3 18 29.9920000  0  8G21G15G14G31G25G 1G29G20
  20920323.938      613281.225 5    507916.88421
  18347114.1954  -27390787.19147 -20915626.56364
  21471909.797    -7266059.144 5  -5390966.32121
  22839970.0784     166096.47044     96980.13061
  18342827.414   -28706815.460 7 -22165891.10024
  20237116.2504   -5461924.08347  -4178071.45962
  21902813.3444   -4593445.63144  -3404002.09761
  22505013.1494    -732650.10945   -479363.73561
 93  9  1  3 18 59.9920000  0  8G21G15G14G31G25G 1G29G20
  20928748.6254     657558.70845    542418.84061
  18337593.141   -27440826.450 7 -20954618.17824
  21449418.813    -7384264.020 5  -5483073.99021
  22847822.6094     207401.61744    129165.87861
  18334177.5314  -28752271.80247 -22201311.60964
  20244655.7344   -5422301.31847  -4147196.58162
  21882643.234    -4699443.943 4  -3486598.08921
  22494872.547     -785912.287 4   -520866.68221
 93  9  1  3 19 29.9920000  0  8G21G15G14G31G25G 1G29G20
  20937214.2424     702054.42745    577090.83361
  18328185.7504  -27490250.49247 -20993130.40164
  21426919.820    -7502490.586 5  -5575198.57221
  22855664.9144     248579.05443    161252.06361
  18325630.1414  -28797191.18747 -22236313.70764
  20252201.1804   -5382645.86347  -4116296.22762
  21862507.008    -4805285.449 4  -3569071.85021
  22484823.2344    -838729.05145   -562022.55161
 93  9  1  3 19 59.9920000  0  8G21G15G14G31G25G 1G29G20
  20945720.774      746755.620 5    611922.91921
  18318898.8134  -27539059.02547 -21031163.01064
  21404420.7114   -7620718.46145  -5667324.18461
  22863473.0474     289619.14843    193231.27261
  18317180.2034  -28841583.43547 -22270905.05164
  20259758.0634   -5342946.33647  -4085361.53562
  21842396.531    -4910962.126 4  -3651417.25921
  22474856.0244    -891099.48645   -602830.61061
 93  9  1  3 20 29.9920000  0  8G21G15G14G31G25G 1G29G20
  20954270.3444     791674.31745    646924.44861
  18309732.4774  -27587240.71047 -21068707.16964
  21381926.2504   -7738937.71045  -5759443.04261
  22871262.383      330536.492 3    225114.81221
  18308835.7744  -28885423.89047 -22305066.42864
  20267321.5314   -5303188.22347  -4054381.18762
  21822315.047    -5016481.137 4  -3733639.61821
  22464981.750     -943011.041 5   -643281.17521
 93  9  1  3 20 59.9920000  0  8G21G15G14G31G25G 1G29G20
  20962857.234      836801.574 5    682088.51821
  18300685.6954  -27634797.89347 -21105764.70264
  21359429.406    -7857149.947 5  -5851556.42521
  22879028.6334     371338.94642
  18300598.4614  -28928703.17147 -22338790.53264
  20274899.0784   -5263371.85047  -4023355.43362
  21802260.2344   -5121850.34944  -3815745.38161
  22455184.258     -994465.658 4   -683375.63621
 93  9  1  3 21 29.9920000  0  7G21G15G14G25G 1G29G20
  20971482.813      882135.501 4    717413.67121
  18291751.2894  -27681734.02047 -21142338.29664
  21336941.8054   -7975344.62645  -5943656.12761
  18292473.7814  -28971415.31947 -22372072.70664
  20282489.4774   -5223490.57747  -3992279.11062
  21782238.649    -5227063.600 4  -3897729.58121
  22445484.086    -1045465.835 5   -723115.95521
 93  9  1  3 21 59.9920000  0  7G21G15G14G25G 1G29G20
  20980150.539      927683.690 5    752905.77321
  18282936.4924  -27728047.78547 -21178426.93364
  21314450.8834   -8093530.75745  -6035749.14561
  18284457.5244  -29013547.88147 -22404903.25964
  20290090.3524   -5183539.85947  -3961148.67862
  21762243.7664   -5332137.87445  -3979605.51461
  22435873.3674   -1096009.72245   -762500.74261
 93  9  1  3 22 29.9920000  0  8G21G15G14G31G25G 1G29G20
  20988860.766      973453.514 5    788570.52921
  18274244.5164  -27773737.73247 -21214029.47964
  21291956.508    -8211725.838 5  -6127849.12021
  22902215.8674         -0.42152
  18276549.2194  -29055087.83147 -22437272.03163
  20297705.5394   -5143523.58247  -3929967.15762
  21742279.8524   -5437078.10545  -4061376.99161
  22426337.0704   -1146094.53845   -801527.87061
 93  9  1  3 22 59.9920000  0  7G21G15G14G25G 1G29G20
  20997613.5084    1019441.18545    824405.07961
  18265668.7034  -27818801.24547 -21249143.90064
  21269460.9614   -8329929.21145  -6219955.54961
  18268757.852   -29096039.566 7 -22469182.45123
  20305334.3444   -5103430.80647  -3898726.02162
  21722339.9844   -5541875.19645  -4143036.93961
  22416891.547    -1195716.941 5   -840194.58721
 93  9  1  3 23 29.9920000  0  7G21G15G14G25G 1G29G20
  21006405.219     1065646.190 5    860409.00421
  18257209.8054  -27863235.31547 -21283767.83764
  21246965.094    -8448148.377 5  -6312074.25821
  18261078.7274  -29136404.05547 -22500635.28163
  20312978.0704   -5063265.81647  -3867428.62562
  21702418.7274   -5646520.89145  -4224578.89461
  22407540.789    -1244872.839 5   -878497.89121
 93  9  1  3 23 59.9920000  0  7G21G15G14G25G 1G29G20
  21015243.102     1112066.173 5    896580.39821
  18248877.9064  -27907045.01247 -21317905.25764
  21224463.711    -8566401.078 5  -6404219.09821
  18253508.063   -29176169.089 7 -22531620.99823
  20320631.0164   -5023047.56747  -3836089.71962
  21682532.7114   -5751024.50745  -4306010.14461
  22398277.2584   -1293566.29945   -916440.80661
 93  9  1  3 24 29.9920000  0  7G21G15G14G25G 1G29G20
  21024114.4694    1158698.04845    932916.89961
  18240658.3204  -27950221.67447 -21351549.40364
  21201959.0704   -8684678.92545  -6496383.53861
  18246060.3834  -29215326.07947 -22562132.92463
  20328293.8204   -4982779.96746  -3804712.36762
  21662681.234    -5855366.182 5  -4387315.19421
  22389098.7194   -1341787.88345   -954015.98661
 93  9  1  3 24 59.9910000  0  8G21G15G14G31G25G 1G29G20
  21033020.886     1205523.277 5    969404.12521
  18232562.3944  -27992773.94547 -21384707.00864
  21179448.3944   -8802977.59845  -6588564.17861
  22940506.5114      40028.47142
  18238719.3314  -29253894.74247 -22592186.40263
  20335965.5424   -4942470.58446  -3773302.46662
  21642858.792    -5959544.183 5  -4468492.70821
  22380008.886    -1389545.096 5   -991229.35121
 93  9  1  3 25 29.9910000  0  8G21G15G14G31G25G 1G29G20
  21041972.4564    1252557.09945   1006053.82261
  18224583.5814  -28034710.07847 -21417384.50764
  21156927.3394   -8921302.36145  -6680765.14861
  22948110.401       79920.784 4        -0.23531
  18231486.4564  -29291898.48847 -22621799.69063
  20343640.6204   -4902133.45246  -3741870.92762
  21623058.7144   -6063557.66145  -4549542.05661
  22371004.941    -1436845.492 4  -1028086.80921
 93  9  1  3 25 59.9910000  0  7G21G15G14G25G 1G29G20
  21050967.128     1299827.482 5   1042887.85421
  18216721.4414  -28076011.83347 -21449567.68564
  21134410.7064   -9039619.17245  -6772959.92961
  18224364.8394  -29329330.34047 -22650967.34963
  20351324.4254   -4861751.77446  -3710404.69562
  21603304.167    -6167385.416 5  -4630446.67621
  22362097.222    -1483670.127 5  -1064573.50321
 93  9  1  3 26 29.9910000  0  7G21G15G14G25G 1G29G20
  21060005.5264    1347324.68345   1079898.69461
  18208983.5974  -28116684.54847 -21481260.70264
  21111896.933    -9157927.104 5  -6865147.77021
  18217343.6054  -29366222.39747 -22679714.38363
  20359018.0974   -4821320.49346  -3678899.79961
  21583575.839    -6271030.149 5  -4711208.67421
  22353277.0584   -1530023.24845  -1100692.76761
 93  9  1  3 26 59.9910000  0  7G21G15G14G25G 1G29G20
  21069092.6834    1395064.17545   1117098.32061
  18201362.6754  -28156728.96247 -21512464.13164
  21089390.120    -9276220.779 5  -6957324.52521
  18210422.776   -29402583.842 7 -22708047.95324
  20366723.7064   -4780834.09646  -3647351.95762
  21563887.9094   -6374491.78445  -4791828.03161
  22344550.425    -1575904.381 5  -1136444.21621
 93  9  1  3 27 29.9910000  0  7G21G15G14G25G 1G29G20
  21078225.6364    1443063.52846   1154500.39961
  18193861.0894  -28196134.77147 -21543169.94864
  21066882.9874   -9394495.73345  -7049486.71261
  18203611.9334  -29438396.00647 -22735953.52163
  20374437.7144   -4740293.35746  -3615761.78762
  21544240.2374   -6477762.39745  -4872298.51661
  22335906.050    -1621302.607 5  -1171819.43621
 93  9  1  3 27 59.9910000  0  7G21G15G14G25G 1G29G20
  21087404.675     1491299.373 5   1192086.72721
  18186486.4804  -28234903.12547 -21573379.04864
  21044376.6284   -9512762.36245  -7141642.40661
  18196901.378   -29473646.274 7 -22763421.24324
  20382163.3084   -4699692.74346  -3584124.94261
  21524620.066    -6580860.142 5  -4952634.31821
  22327358.0114   -1666217.99444  -1206818.45261
 93  9  1  3 28 29.9910000  0  7G21G15G14G25G 1G29G20
  21096624.925     1539758.382 5   1229846.97521
  18179231.9484  -28273040.14847 -21603096.19764
  21021872.0264   -9631040.15945  -7233806.81461
  18190297.4644  -29508338.89747 -22790454.43863
  20389899.6674   -4659036.69146  -3552444.90761
  21505033.9174   -6683793.65745  -5032842.14561
  22318903.0584   -1710655.76845  -1241445.20661
 93  9  1  3 28 59.9910000  0  7G21G15G14G25G 1G29G20
  21105890.026     1588450.856 4   1267789.24121
  18172093.3864  -28310542.12947 -21632318.50764
  20999363.089    -9749322.840 5  -7325975.04621
  18183806.8944  -29542458.78347 -22817041.34063
  20397645.6444   -4618339.52247  -3520732.83361
  21485478.550    -6786563.302 5  -5112922.28621
  22310536.300    -1754610.975 5  -1275695.99521
 93  9  1  3 29 29.9910000  0  7G21G15G14G25G 1G29G20
  21115200.550     1637362.247 5   1305902.00221
  18165075.3394  -28347410.88147 -21661047.39564
  20976850.401    -9867613.451 5  -7418149.42921
  18177427.878   -29575994.217 7 -22843172.82723
  20405396.3554   -4577604.78446  -3488991.48061
  21465948.769    -6889186.760 5  -5192888.51421
  22302266.9334   -1798084.39245  -1309571.31561
 93  9  1  3 29 59.9910000  0  7G21G15G14G25G 1G29G20
  21124546.870     1686484.660 5   1344179.13521
  18158178.3784  -28383648.89747 -21689284.79864
  20954341.948    -9985899.581 5  -7510320.34321
  18171156.737   -29608950.353 7 -22868852.91023
  20413153.9644   -4536835.33546  -3457223.08961
  21446441.659    -6991675.964 5  -5272750.14121
  22294084.034    -1841077.184 5  -1343072.17121
 93  9  1  3 30 29.9910000  0  7G21G15G14G25G 1G29G20
  21133937.4644    1735830.58045   1382630.47061
  18151405.2374  -28419251.59447 -21717027.14964
  20931832.8864  -10104165.97745  -7602475.88761
  18164997.3704  -29641314.00847 -22894071.32363
  20420915.5034   -4496049.60946  -3425442.00161
  21426972.5664   -7094023.13645  -5352501.07261
  22285995.5034   -1883583.97345  -1376194.30861
 93  9  1  3 30 59.9910000  0  8G21G15G14G22G25G 1G29G20
  21143366.2064    1785388.49745   1421247.02661
  18144750.8554  -28454223.79347 -21744278.20164
  20909336.1674  -10222402.60145  -7694608.22861
  22543450.6284    -115249.97244
  18158950.7694  -29673086.28647 -22918828.92363
  20428677.7694   -4455259.63946  -3393657.61961
  21407519.4724   -7196236.58045  -5432147.84261
  22277998.0424   -1925608.80645  -1408940.86161
 93  9  1  3 31 29.9910000  0  8G21G15G14G22G25G 1G29G20
  21152834.9804    1835139.78945   1460014.27561
  18138215.1984  -28488572.62447 -21771043.51464
  20886841.034   -10340611.898 5  -7786719.29221
  22521486.4094    -230667.30944
  18153012.5344  -29704284.71047 -22943139.36663
  20436441.7224   -4414461.72146  -3361867.04461
  21388092.2614   -7298318.65045  -5511692.23961
  22270092.4484   -1967158.09845  -1441316.93161
 93  9  1  3 31 59.9910000  0  8G21G15G14G22G25G 1G29G20
  21162339.573     1885094.725 5   1498940.23921
  18131799.0734  -28522293.22047 -21797319.29364
  20864353.3314  -10458785.78845  -7878802.75861
  22499491.230     -346242.117 4
  18147184.1284  -29734915.84247 -22967007.76964
  20444206.6444   -4373657.54946  -3330071.58961
  21368695.9094   -7400253.28345  -5591121.73861
  22262280.2614   -2008225.65845  -1473317.58161
 93  9  1  3 32 29.9910000  0  8G21G15G14G22G25G 1G29G20
  21171886.3784    1935254.83345   1538025.98161
  18125502.2844  -28555378.88447 -21823100.32064
  20841871.3704  -10576932.89745  -7970865.36761
  22477470.081     -461970.819 4        -0.04031
  18141463.1754  -29764980.22247 -22990434.54363
  20451975.6364   -4332829.36746  -3298257.44061
  21349329.605    -7502030.081 5  -5670428.23121
  22254557.831    -2048803.649 5  -1504936.76121
 93  9  1  3 32 59.9910000  0  8G21G15G14G22G25G 1G29G20
  21181469.1834    1985616.05345   1577268.51761
  18119323.2454  -28587837.19047 -21848392.49564
  20819390.4484  -10695063.03045  -8062914.73961
  22455419.5504    -577851.82043    -90296.77661
  18135847.261   -29794501.276 7 -23013437.94423
  20459751.6514   -4291963.07046  -3266413.57561
  21329990.2924   -7603654.20145  -5749615.79461
  22246923.8864   -2088898.67445  -1536179.53061
 93  9  1  3 33 29.9910000  0  8G21G15G14G22G25G 1G29G20
  21191093.800     2036194.544 5   1616680.30921
  18113265.5664  -28619663.56447 -21873192.25864
  20796915.3944  -10813183.00645  -8154956.19461
  22433343.253     -693860.745 3   -180693.26421
  18130335.5264  -29823467.72847 -23036009.18764
  20467537.1204   -4251048.48846  -3234532.09161
  21310676.8004   -7705121.69645  -5828681.28861
  22239388.276    -2128504.975 5  -1567041.60421
 93  9  1  3 33 59.9910000  0  8G21G15G14G22G25G 1G29G20
  21200761.7374    2086987.63345   1656259.32561
  18107330.0814  -28650866.62547 -21897506.32464
  20774439.511   -10931309.187 6  -8247002.49021
  22411242.3004    -810000.53543   -271191.69761
  18124927.7064  -29851874.83747 -23058144.58263
  20475330.3234   -4210099.58946  -3202623.86461
  21291398.6984   -7806443.68445  -5907633.42861
  22231940.6284   -2167630.31345  -1597528.82561
 93  9  1  3 34 29.9910000  0  8G21G15G14G22G25G 1G29G20
  21210469.448     2138013.437 5   1696019.68921
  18101517.9874  -28681426.18547 -21921318.96064
  20751959.7304  -11049414.92745  -8339032.86061
  22389118.683     -926262.427 3   -361785.24921
  18119631.4644  -29879693.41547 -23079821.38363
  20483134.6754   -4169087.44846  -3170666.35561
  21272152.183    -7907591.957 5  -5986450.22021
  22224596.042    -2206253.085 5  -1627624.42321
 93  9  1  3 34 59.9910000  0  7G21G15G14G25G 1G29G20
  21220222.0974    2189268.70245   1735958.89161
  18095821.3624  -28711354.42147 -21944639.65164
  20729490.628   -11167503.621 6  -8431049.96021
  18114450.7534  -29906927.59747 -23101042.81363
  20490947.4954   -4128030.49346  -3138673.92961
  21252940.597    -8008569.636 5  -6065134.03521
  22217341.6444   -2244384.42645  -1657337.16861
 93  9  1  3 35 29.9910000  0  8G21G15G14G22G25G 1G29G20
  21230018.0194    2240740.52345   1776066.77961
  18090243.9094  -28740649.37547 -21967466.87964
  20707019.8394  -11285570.32445  -8523049.92261
  22344801.339          -0.91012
  18109381.8554  -29933578.55747 -23121809.77863
  20498767.9954   -4086934.80946  -3106651.31761
  21233754.8944   -8109374.99745  -6143683.60861
  22210174.441    -2282021.552 5  -1686664.72821
 93  9  1  3 35 59.9910000  0  7G21G15G14G25G 1G29G20
  21239850.394     2292408.172 5   1816327.25821
  18084790.6754  -28769316.72647 -21989805.06664
  20684560.855   -11403609.658 6  -8615028.56421
  18104415.0034  -29959662.10047 -23142134.60263
  20506591.9644   -4045811.86446  -3074607.46961
  21214602.917    -8210009.773 5  -6222100.27021
  22203105.331    -2319169.180 5  -1715610.92721
 93  9  1  3 36 29.9910000  0  7G21G15G14G25G 1G29G20
  21249722.2764    2344284.78045   1856750.58961
  18079458.1204  -28797345.96747 -22011646.03264
  20662103.6054  -11521613.15646  -8706979.27161
  18099559.5264  -29985178.30247 -23162017.33763
  20514425.2144   -4004652.07446  -3042534.90461
  21195484.8314   -8310468.02745  -6300379.38561
  22196133.7224   -2355815.77145  -1744166.66561
 93  9  1  3 36 59.9910000  0  7G21G15G14G25G 1G29G20
  21259634.8554    2396380.40545   1897344.66761
  18074242.4644  -28824731.72047 -22032985.56764
  20639655.144   -11639578.797 6  -8798900.48521
  18094812.6984  -30010134.51347 -23181463.73163
  20522264.4874   -3963460.91746  -3010437.88861
  21176405.5894   -8410757.53345  -6378526.97361
  22189249.206    -2391954.183 5  -1772326.43521
 93  9  1  3 37 29.9910000  0  7G21G15G14G25G 1G29G20
  21269589.2694    2448690.19145   1938105.49061
  18069157.9334  -28851477.70547 -22053826.58864
  20617210.1514  -11757520.34746  -8890802.92161
  18090164.2614  -30034545.29447 -23200485.10664
  20530106.6364   -3922246.06546  -2978322.41561
  21157352.284    -8510895.907 5  -6456556.81221
  22182481.9564   -2427587.35445  -1800092.46261
 93  9  1  3 37 59.9910000  0  7G21G15G14G25G 1G29G20
  21279586.8394    2501231.93545   1979047.03261
  18064184.1124  -28877587.98347 -22074172.25664
  20594771.5584  -11875446.21446  -8982693.15361
  18085625.8624  -30058408.04547 -23219079.44764
  20537954.4414   -3881011.53146  -2946191.62261
  21138314.831    -8610895.916 5  -6534478.85421
  22175786.9094   -2462718.04644  -1827467.00961
 93  9  1  3 38 29.9910000  0  8G21G15G14G22G25G 1G29G20
  21289632.5664    2554013.44445   2020175.51261
  18059339.8314  -28903065.59547 -22094024.93664
  20572332.4564  -11993362.17146  -9074575.66361
  22211265.386          -0.03711
  18081185.8784  -30081734.54347 -23237255.92764
  20545803.6914   -3839754.56046  -2914043.32261
  21119311.995    -8710763.066 5  -6612297.35321
  22169199.667    -2497348.844 5  -1854452.01821
 93  9  1  3 38 59.9910000  0  8G21G15G14G22G25G 1G29G20
  21299718.0034    2607025.49744   2061483.58461
  18054612.1054  -28927911.68747 -22113385.52564
  20549898.167   -12111258.492 6  -9166442.86721
  22188938.112     -117355.632 2        -0.31831
  18076847.0504  -30104526.33247 -23255015.74764
  20553659.1594   -3798471.14746  -2881874.41661
  21100340.425    -8810488.448 5  -6690005.39121
  22162705.019    -2531479.227 5  -1881047.08121
 93  9  1  3 39 29.9910000  0  8G21G15G14G22G25G 1G29G20
  21309848.839     2660251.025 5   2102958.05421
  18050000.0264  -28952129.10047 -22132256.23264
  20527469.597   -12229132.445 6  -9258292.66221
  22166578.222     -234845.005 2    -91550.41321
  18072617.6054  -30126769.76747 -23272348.28464
  20561521.6054   -3757166.82346  -2849689.24261
  21081385.0584   -8910060.39045  -6767593.83861
  22156308.605    -2565111.169 5  -1907253.75821
 93  9  1  3 39 59.9910000  0  8G21G15G14G22G25G 1G29G20
  21320015.683     2713679.577 5   2144590.62821
  18045511.7764  -28975720.22047 -22150638.91664
  20505044.706   -12346964.393 6
  22144195.495     -352471.389 3
  18068493.1124  -30148445.70447 -23289238.60864
  20569383.7844   -3715845.92846  -2817491.12461
  21062470.120    -9009470.400 5  -6845056.14221
  22150001.0974   -2598245.75245  -1933072.89561
 93  9  1  3 40 29.9910000  0  8G21G15G14G22G25G 1G29G20
  21330217.1834    2767294.70145   2186368.63861
  18041145.7924  -28998681.59547 -22168530.89564
  20482631.4254  -12464745.82746
  22121787.706     -470212.627 3
  18064473.4564  -30169550.91247 -23305684.21264
  20577249.3554   -3674510.62746  -2785281.79361
  21043586.3084   -9108697.17545  -6922375.64261
  22143784.659    -2630878.167 5  -1958500.71721
 93  9  1  3 40 59.9910000  0  8G21G15G14G22G25G 1G29G20
  21340453.1054    2821079.94445   2228279.22961
  18036894.6284  -29021019.36747 -22185936.94164
  20460225.964   -12582485.290 6
  22099361.901     -588069.467 4
  18060566.7924  -30190078.85547 -23321679.99864
  20585114.9484   -3633181.64046  -2753077.38361
  21024742.2454   -9207748.72845  -6999558.63361
  22137678.362    -2663013.769 5  -1983541.40121
 93  9  1  3 41 29.9910000  0  8G21G15G14G22G25G 1G29G20
  21350720.4484    2875043.06645   2270328.40761
  18032763.5344  -29042728.21547 -22202852.92564
  20437831.230   -12700187.838 6  -9625348.62921
  22076915.3704    -706024.88844   -282646.69961
  18056771.1444  -30210025.92447 -23337223.15564
  20592978.1984   -3591854.41446  -2720874.34261
  21005917.4014   -9306639.28445  -7076616.13461
  22131650.347    -2694645.825 5  -2008189.75621
 93  9  1  3 41 59.9910000  0  8G21G15G14G22G25G 1G29G20
  21361028.628     2929205.579 5   2312532.97021
  18028750.0734  -29063806.80147 -22219277.79664
  20415434.847   -12817860.994 6  -9717041.95321
  22054456.972     -824045.989 4   -374611.12721
  18053084.9644  -30229407.91447 -23352325.98764
  20600845.4644   -3550512.23446  -2688659.64661
  20987133.144    -9405383.424 5  -7153559.56521
  22125736.276    -2725772.251 5  -2032444.07521
 93  9  1  3 42 29.9910000  0  8G21G15G14G22G25G 1G29G20
  21371373.5264    2983564.59145   2354890.61861
  18024857.4954  -29084261.12347 -22235216.22464
  20393046.691   -12935522.596 6  -9808726.27721
  22031987.245     -942126.974 5
  18049501.3474  -30248244.51547 -23367003.84464
  20608716.1674   -3509149.59846  -2656429.02561
  20968368.4954   -9503991.62245  -7230397.03061
  22119905.0264   -2756397.50545  -2056307.87361
 93  9  1  3 42 59.9910000  0  8G21G15G14G22G25G 1G29G20
  21381755.0734    3038124.00444   2397404.43061
  18021083.4334  -29104091.30647 -22250668.31364
  20370655.886   -13053168.837 6  -9900398.62221
  22009503.855    -1060276.130 5
  18046021.3474  -30266532.51747 -23381254.22164
  20616590.5664   -3467765.29846  -2624181.51061
  20949619.7144   -9602477.62645  -7307139.31261
  22114173.3784   -2786520.56645  -2079780.35261
 93  9  1  3 43 29.9910000  0  8G21G15G14G22G25G 1G29G20
  21392176.8624    3092887.13445   2440076.99461
  18017427.8864  -29123300.28747 -22265636.34864
  20348276.198   -13170792.130 6  -9992053.09021
  21987008.644    -1178497.837 5        -0.19531
  18042642.0194  -30284284.17147 -23395086.66664
  20624471.9724   -3426354.56346  -2591913.39961
  20930906.862    -9700839.070 5  -7383784.53421
  22108537.2844   -2816143.50245  -2102863.10661
 93  9  1  3 43 59.9910000  0  8G21G15G14G22G25G 1G29G20
  21402637.6754    3147864.70945   2482916.67761
  18013895.6674  -29141873.17547 -22280108.72164
  20325899.534   -13288370.876 6 -10083672.84121
  21964498.167    -1296783.018 5
  18039368.4254  -30301481.88447 -23408487.46964
  20632357.4484   -3384911.80246  -2559620.33861
  20912225.175    -9799046.588 6  -7460309.77321
  22102997.7534   -2845250.06245  -2125543.54061
 93  9  1  3 44 29.9910000  0  8G21G15G14G22G25G 1G29G20
  21413134.4484    3203026.09145   2525899.58861
  18010482.6204  -29159818.69547 -22294092.24164
  20303533.7144  -13405903.80946 -10175256.89061
  21941969.839    -1415162.953 4
  18036200.6754  -30318127.74847 -23421458.26064
  20640245.0814   -3343465.57246  -2527324.57461
  20893559.816    -9897094.749 5  -7536710.88121
  22097556.276    -2873847.791 5  -2147827.46921
 93  9  1  3 44 59.9910000  0  8G21G15G14G22G25G 1G29G20
  21423668.066     3258376.897 5   2569030.01821
  18007186.3234  -29177138.60147 -22307588.26764
  20281176.706   -13523394.825 6 -10266808.28021
  21919426.808    -1533637.396 5
  18033134.9804  -30334240.75447 -23434013.83964
  20648130.9094   -3302030.07646  -2495037.17561
  20874936.4254   -9994983.66245  -7612987.88561
  22092209.441    -2901937.082 5  -2169715.18221
 93  9  1  3 45 29.9910000  0  8G21G15G14G22G25G 1G29G20
  21434236.839     3313927.740 3   2612316.39621
  18004006.7844  -29193834.02247 -22320597.68464
  20258825.323   -13640846.594 6 -10358329.08821
  21896865.386    -1652196.681 5
  18030172.8004  -30349820.19847 -23446153.64864
  20656013.8234   -3260599.01246  -2462753.21761
  20856335.511   -10092706.490 5  -7689135.44921
  22086966.3554   -2929517.98845  -2191206.78961
 93  9  1  3 45 59.9910000  0  8G21G15G14G22G25G 1G29G20
  21444846.698     3369689.190 3   2655766.84821
  18000951.2614  -29209899.84147 -22333116.49664
  20236485.112   -13758251.379 6 -10449813.28621
  21874288.769    -1770829.577 4
  18027310.5264  -30364844.94147 -23457861.22864
  20663899.3084   -3219160.82346  -2430463.73361
  20837778.7924  -10190254.86446  -7765147.08261
  22081809.456    -2956583.752 5  -2212296.95721
 93  9  1  3 46 29.9910000  0  8G21G15G14G22G25G 1G29G20
  21455497.206     3425655.686 3   2699377.07421
  17998013.8864  -29225346.84747 -22345153.12264
  20214154.019   -13875605.383 6 -10541257.91621
  21851700.917    -1889536.268 3
  18024556.8314  -30379318.74347 -23469139.50264
  20671785.5194   -3177723.16446  -2398174.64561
  20819242.5424  -10287637.38145  -7841029.46061
  22076754.8784   -2983144.20745  -2232993.40061
 93  9  1  3 46 59.9910000  0  8G21G15G14G22G25G 1G29G20
  21466193.9804    3481857.90344   2743170.99961
  17995189.3004  -29240163.19947 -22356698.32864
  20191835.3314  -13992884.51246 -10632644.20661
  21829103.362    -2008287.522 4
  18021913.0034  -30393224.95847 -23479975.50064
  20679675.1834   -3136264.45346  -2365869.15661
  20800741.823   -10384857.185 6  -7916785.05521
  22071800.136    -3009186.280 5  -2253285.89321
 93  9  1  3 47 29.9910000  0  8G21G15G14G22G25G 1G29G20
  21476934.597     3538284.372 4   2787139.64421
  17992493.8944  -29254352.05747 -22367754.57664
  20169536.261   -14110071.178 6 -10723958.44521
  21806496.6984   -2127085.05445        -0.42871
  18019375.1834  -30406544.25647 -23490354.16164
  20687566.9644   -3094783.20346  -2333546.10061
  20782275.019   -10481918.143 5  -7992416.87521
  22066946.5034   -3034712.10245  -2273176.09961
 93  9  1  3 47 59.9910000  0  8G21G15G14G22G25G 1G29G20
  21487710.698     3594920.820 5   2831271.96221
  17989909.3554  -29267907.91847 -22378317.58664
  20147258.7144  -14227151.63446 -10815189.91761
  21783881.144    -2245926.249 4    -92603.90521
  18016956.8084  -30419274.42547 -23500273.76464
  20695462.4804   -3053294.17846  -2301216.99961
  20763832.073   -10578817.389 5  -8067922.68421
  22062184.6054   -3059714.94345  -2292658.83761
 93  9  1  3 48 29.9900000  0  8G21G15G14G22G25G 1G29G20
  21498518.693     3651727.447 4   2875536.85621
  17987451.6154  -29280850.58047 -22388402.77764
  20124993.725   -14344145.061 6 -10906353.59521
  21761255.865    -2364832.589 3   -185258.21121
  18014634.3184  -30431456.90947 -23509766.59764
  20703354.287    -3011827.651 6  -2268905.40621
  20745420.2564  -10675575.78545  -8143318.74161
  22057518.8184   -3084213.07245  -2311748.24461
 93  9  1  3 48 59.9900000  0  8G21G15G14G22G25G 1G29G20
  21509365.5454    3708717.54244   2919944.69561
  17985102.1314  -29293169.21447 -22398001.72164
  20102744.1004  -14461063.21346 -10997458.59861
  21738612.7794   -2483804.15343   -277963.31461
  18012426.0534  -30443088.56047 -23518830.20664
  20711242.9674   -2970365.08546  -2236596.92261
  20727037.1864  -10772188.61346  -8218601.36061
  22052953.404    -3108194.774 5  -2330435.28221
 93  9  1  3 49 29.9900000  0  8G21G15G14G22G25G 1G29G20
  21520241.6544    3765872.16945   2964480.75661
  17982882.6004  -29304858.83147 -22407110.51064
  20080508.5224  -14577920.69746 -11088516.34161
  21715964.100    -2602834.116 3   -370713.90021
  18010312.0294  -30454175.44347 -23527469.32864
  20719134.9594   -2928897.27246  -2204284.33261
  20708680.6934  -10868630.39245  -8293750.71861
  22048492.1624   -3131653.62545  -2348714.90861
 93  9  1  3 49 59.9900000  0  8G21G15G14G22G25G 1G29G20
  21531147.3974    3823183.80545   3009139.17261
  17980774.6864  -29315927.06447 -22415735.10864
  20058277.834   -14694743.320 6 -11179546.91221
  21693300.7724   -2721933.69243   -463518.76361
  18008301.8184  -30464736.90547 -23535699.02764
  20727028.0764   -2887416.50646  -2171961.64861
  20690363.639   -10964909.162 6  -8368773.04721
  22044125.787    -3154596.054 5  -2366592.08621
 93  9  1  3 50 29.9900000  0  8G21G15G14G22G25G 1G29G20
  21542084.154     3880659.279 4   3053925.24421
  17978784.0534  -29326375.77047 -22423876.95764
  20036052.404   -14811535.855 6 -11270554.03821
  21670624.404    -2841095.155 3   -556371.79721
  18006394.7404  -30474777.57047 -23543522.90964
  20734927.3264   -2845907.12946  -2139616.66661
  20672068.584   -11061026.954 5  -8443669.93621
  22039860.6074   -3177022.63045  -2384067.30861
 93  9  1  3 50 59.9900000  0  8G21G15G14G22G25G 1G29G20
  21553053.5454    3938312.40345   3098849.75761
  17976912.2324  -29336211.37747 -22431541.06764
  20013830.006   -14928305.151 6 -11361543.06021
  21647941.0374   -2960307.03043   -649264.08361
  18004583.0224  -30484294.82047 -23550938.93664
  20742831.9364   -2804364.01646  -2107245.40561
  20653809.1314  -11156996.90346  -8518451.63161
  22035691.639    -3198938.842 5  -2401144.84221
 93  9  1  3 51 29.9900000  0  8G21G15G14G22G25G 1G29G20
  21564063.1624    3996156.19745   3143922.78861
  17975161.1004  -29345431.49047
  19991619.3264  -15045030.20846 -11452497.59361
  21625247.6154   -3079560.59143   -742188.89361
  18002868.3034  -30493291.62747
  20750745.389    -2762783.341 6  -2074844.86921
  20635572.170   -11252818.999 5  -8593118.12821
  22031624.5844   -3220340.52945  -2417821.49161
 93  9  1  3 51 59.9900000  0  8G21G15G14G22G25G 1G29G20
  21575110.9824    4054214.96245   3189163.33861
  17973525.2404  -29354032.47847
  19969420.8424  -15161684.80846 -11543397.23561
  21602544.162    -3198851.622 3   -835142.86221
  18001257.0614  -30501757.76047
  20758663.7724   -2721170.35946  -2042419.16061
  20617368.217   -11348501.202 6  -8667675.59821
  22027642.795    -3241222.986 5  -2434093.48521
 93  9  1  3 52 29.9900000  0  8G21G15G14G22G25G 1G29G20
  21586203.0764    4112503.62645   3234583.11561
  17972006.6004  -29362013.60247
  19947237.3344  -15278257.70446 -11634233.20361
  21579840.115    -3318163.532 3   -928113.16321
  17999745.1624  -30509697.10147
  20766585.4124   -2679540.96846  -2009980.67261
  20599187.2484  -11444040.94346  -8742122.09461
  22023774.6784   -3261584.28445  -2449959.45561
 93  9  1  3 52 59.9900000  0  8G21G15G14G22G25G 1G29G20
  21597340.8034    4171027.70245   3280186.20461
  17970603.3184  -29369383.41147
  19925069.553   -15394753.801 6 -11725009.33521
  21557130.045    -3437508.544 3  -1021109.18421
  17998333.2174  -30517120.22247
  20774509.2014   -2637907.10746  -1977538.70061
  20581028.7564  -11539447.13846  -8816464.51061
  22019994.9284   -3281431.41445  -2465424.70161
 93  9  1  3 53 29.9900000  0  8G21G15G14G22G25G 1G29G20
  21608517.928     4229769.189 5   3325958.84721
  17969315.6934  -29376144.36747
  19902916.4284  -15511167.65946 -11815721.38261
  21534414.1784   -3556892.87144  -1114135.93061
  17997020.9364  -30524020.57847
  20782431.1474   -2596278.05146  -1945100.46361
  20562900.6314  -11634713.89245  -8890698.28461
  22016311.8814   -3300766.02845  -2480490.62261
 93  9  1  3 53 59.9900000  0  8G21G15G14G22G25G 1G29G20
  21619734.0064    4288711.11544   3371887.59861
  17968142.7174  -29382303.83147 -22467457.28364
  19880774.154   -15627522.137 6 -11906387.15421
  21511688.1234   -3676317.14944  -1207193.66561
  17995809.5454  -30530393.51947 -23586859.95164
  20790345.2484   -2554678.38746  -1912685.13461
  20544796.2794  -11729852.35845  -8964832.08361
  22012735.2484   -3319594.14345  -2495161.86861
 93  9  1  3 54 29.9900000  0  8G21G15G14G22G25G 1G29G20
  21630989.3894    4347854.81544   3417973.61761
  17967085.2724  -29387846.82747 -22471776.50364
  19858646.2404  -15743811.74946 -11997002.38061
  21488959.6624   -3795750.45044  -1300258.45461
  17994702.7174  -30536219.40447 -23591399.59164
  20798258.764    -2513094.423 6  -1880282.07421
  20526724.6474  -11824841.25346  -9038849.32361
  22009246.8734   -3337898.92245  -2509425.32461
 93  9  1  3 54 59.9900000  0  8G21G15G14G22G25G 1G29G20
  21642278.2324    4407170.50843   3464193.62361
  17966149.4124  -29392778.28047 -22475619.19664
  19836530.467   -15860027.348 6 -12087559.94421
  21466229.0064   -3915200.15443  -1393336.08061
  17993697.2644  -30541487.90947 -23595504.91764
  20806170.8184   -2471519.83846  -1847886.28861
  20508676.2014  -11919678.80546  -9112748.65761
  22005861.982    -3355684.369 5  -2523284.07721
 93  9  1  3 55 29.9900000  0  8G21G15G14G22G25G 1G29G20
  21653593.053     4466640.911 3   3510534.24021
  17965330.6934  -29397095.34647 -22478983.14964
  19814430.9204  -15976160.09046 -12178052.93061
  21443498.014    -4034651.478 3  -1486414.97221
  17992799.2954  -30546194.87847 -23599172.68164
  20814080.9364   -2429954.43446  -1815497.64661
  20490659.248   -12014354.075 6  -9186521.53521
  22002579.6544   -3372946.55145  -2536735.11261
 93  9  1  3 55 59.9900000  0  8G21G15G14G22G25G 1G29G20
  21664938.4124    4526248.50643   3556981.67761
  17964620.1074  -29400811.30647 -22481878.70464
  19792344.811   -16092225.863 6 -12268493.75221
  21420762.8734   -4154117.22844  -1579505.08961
  17992008.8974  -30550366.76947 -23602423.50064
  20821986.764    -2388404.821 6  -1783121.35121
  20472673.326   -12108879.337 6  -9260177.51221
  21999394.5224   -3389697.23545  -2549787.57361
 93  9  1  3 56 29.9900000  0  8G21G15G14G22G25G 1G29G20
  21676307.6704    4585994.56844   3603537.01061
  17964026.4434  -29403925.70647 -22484305.51264
  19770275.9824  -16208199.82846 -12358863.01661
  21398027.5224   -4273600.57245  -1672608.91861
  17991315.3034  -30554016.33647 -23605267.31164
  20829896.4984   -2346840.03146  -1750733.20761
  20454715.334   -12203230.573 6  -9333697.89221
  21996303.0454   -3405934.84645  -2562440.23561
 93  9  1  3 56 59.9900000  0  8G21G15G14G22G25G 1G29G20
  21687703.514     4645891.360 5   3650209.83821
  17963553.4434  -29406429.99447 -22486256.90664
  19748227.436   -16324053.641 6 -12449138.68021
  21375287.9674   -4393097.70144  -1765723.47061
  17990715.5764  -30557148.28847 -23607707.79164
  20837810.5684   -2305245.51846  -1718321.89661
  20436798.0764  -12297397.80046  -9407074.89661
  21993314.0144   -3421649.53545  -2574685.42361
 93  9  1  3 57 29.9900000  0  8G21G15G14G22G25G 1G29G20
  21699131.9824    4705949.96445   3697008.72461
  17963186.8424  -29408333.95947 -22487740.52064
  19726199.889   -16439814.813 6 -12539342.13621
  21352541.842    -4512616.463 4  -1858854.91221
  17990217.6474  -30559782.11147 -23609760.11464
  20845729.7564   -2263633.24646  -1685896.78561
  20418911.123   -12391390.243 6  -9480315.67821
  21990420.6624   -3436849.59545  -2586529.60961
 93  9  1  3 57 59.9900000  0  8G21G15G14G22G25G 1G29G20
  21710596.100     4766187.178 5   3743946.79121
  17962944.9754  -29409636.78747 -22488755.71364
  19704187.662   -16555490.168 6 -12629478.73521
  21329797.8344   -4632151.46044  -1951998.97561
  17989807.3814  -30561924.76047 -23611429.70264
  20853653.5924   -2222002.71146  -1653457.39361
  20401056.6864  -12485211.96446  -9553423.45161
  21987626.8184   -3451532.84545  -2597971.08361
 93  9  1  3 58 29.9900000  0  8G21G15G14G22G25G 1G29G20
  21722094.654     4826620.389 5   3791037.55421
  17962807.6934  -29410339.17247 -22489303.03064
  19682193.8574  -16671075.41846 -12719545.11661
  21307051.6624   -4751684.85744  -2045141.85461
  17989495.2874  -30563574.22747 -23612714.99664
  20861575.7954   -2180359.86846  -1621008.44361
  20383232.2954  -12578865.53446  -9626400.17461
  21984930.9204   -3465698.61745  -2609009.30461
 93  9  1  3 58 59.9900000  0  8G21G15G14G22G25G 1G29G20
  21733632.2324    4887252.17844   3838283.09461
  17962784.9284  -29410448.21347
  19660209.068   -16786592.684 6 -12809558.53121
  21284306.3654   -4871206.60844  -2138275.62961
  17989277.7724  -30564723.86147 -23613610.80864
  20869497.3814   -2138738.91146  -1588576.54661
  20365441.5224  -12672386.77146  -9699273.81061
  21982329.1624   -3479353.03445  -2619649.09561
 93  9  1  3 59 29.9900000  0  8G21G15G14G22G25G 1G29G20
  21745210.8424    4948094.30944   3885692.51861
  17962882.1704  -29409963.86847
  19638238.264   -16902058.999 6 -12899532.24421
  21261566.6314   -4990707.45145  -2231393.12361
  17989152.8264  -30565367.43947 -23614112.28564
  20877411.6864   -2097149.58546  -1556169.27461
  20347668.8034  -12765785.12546  -9772051.68561
  21979827.670    -3492494.810 4  -2629889.44721
 93  9  1  3 59 59.9900000  0  8G21G15G14G22G25G 1G29G20
  21756825.9904    5009144.34344   3933264.01561
  17963089.3344  -29408878.90347 -22488165.17064
  19616280.990   -17017445.022 6 -12989443.38821
  21238833.0764   -5110172.11345  -2324482.39161
  17989128.5924  -30565492.07947
  20885321.467    -2055585.286 6  -1523781.52421
  20329915.8264  -12859069.21146  -9844740.52761
  21977434.3814   -3505115.14345  -2639723.44761
 93  9  1  4  0 29.9900000  0  8G21G15G14G22G25G 1G29G20
  21768482.607     5070386.381 3   3980985.12821
  17963403.6394  -29407200.33247 -22486857.19764
  19594339.982   -17132742.321 6 -13079285.39121
  21216106.529    -5229608.791 5  -2417549.86621
  17989208.1394  -30565087.16547
  20893224.0844   -2014049.90646  -1491416.28061
  20312181.240   -12952246.583 6  -9917346.20621
  21975125.006    -3517219.504 4  -2649155.38721
 93  9  1  4  0 59.9900000  0  8G21G15G14G22G25G 1G29G20
  21780169.0764    5131813.27242   4028850.21461
  17963835.6074  -29404927.78947 -22485086.38664
  19572417.678   -17247942.857 6 -13169051.99921
  21193381.8114   -5349028.10844  -2510603.85461
  17989386.4124  -30564149.16347 -23613162.95464
  20901122.7794   -1972543.95146  -1459073.96861
  20294472.732   -13045320.117 6  -9989870.96021
  21972920.9984   -3528806.32345  -2658184.04961
 93  9  1  4  1 29.9900000  0  8G21G15G14G22G25G 1G29G20
  21791887.2014    5193413.29342
  17964381.1234  -29402060.78747 -22482852.36364
  19550517.162   -17363034.451 6 -13258733.71921
  21170658.0144   -5468443.73745  -2603654.95161
  17989665.2874  -30562683.42447 -23612020.80564
  20909019.2724   -1931047.18146  -1426738.83061
  20276781.217   -13138271.352 6 -10062300.43821
  21970820.748    -3539873.684 4  -2666807.97321
 93  9  1  4  1 59.9900000  0  8G21G15G14G22G25G 1G29G20
  21803642.7954    5255168.68443
  17965039.1784  -29398603.27847 -22480158.20364
  19528638.756   -17478007.552 6 -13348323.10521
  21147931.139    -5587864.848 5  -2696710.32021
  17990045.5294  -30560691.89747 -23610468.95964
  20916916.4594   -1889556.32646  -1394408.27261
  20259123.029   -13231085.407 6 -10134623.01821
  21968806.811    -3550424.420 4  -2675029.30921
 93  9  1  4  2 29.9900000  0  8G21G15G14G22G25G 1G29G20
  21815424.0844    5317071.74542        -0.07071
  17965807.4124  -29394565.23047 -22477011.67564
  19506778.272   -17592879.473 6 -13437833.64821
  21125201.756    -5707306.093 5  -2789781.32521
  17990522.7324  -30558183.61447 -23608514.44464
  20924810.0374   -1848073.54346  -1362084.04261
  20241488.436   -13323748.818 6 -10206828.22821
  21966892.9594   -3560467.22644  -2682854.85061
 93  9  1  4  2 59.9900000  0  7G15G14G22G25G 1G29G20
  17966688.8734  -29389933.53747 -22473402.56464
  19484940.959   -17707635.500 6 -13527253.88821
  21102471.8574   -5826751.40045  -2882855.54961
  17991097.0684  -30555164.29247 -23606161.71664
  20932705.701    -1806581.040 6  -1329752.19821
  20223887.022   -13416241.321 6 -10278900.25421
  21965084.1074   -3569987.57044  -2690273.28061
 93  9  1  4  3 29.9900000  0  7G15G14G22G25G 1G29G20
  17967681.2324  -29384718.23247 -22469338.69864
  19463124.389   -17822283.634 6 -13616590.06121
  21079742.311    -5946191.323 5  -2975925.51721
  17991765.8894  -30551647.10247 -23603421.04064
  20940602.7644   -1765082.61946  -1297415.75961
  20206319.959   -13508557.143 6 -10350834.59821
  21963369.4594   -3578993.97744  -2697291.24261
 93  9  1  4  3 59.9900000  0  7G15G14G22G25G 1G29G20
  17968785.0064  -29378919.12047 -22464819.91764
  19441329.123   -17936815.156 6 -13705835.36721
  21057022.022    -6065597.698 5  -3068969.38221
  17992529.6474  -30547630.39648 -23600291.13864
  20948498.3344   -1723582.01946  -1265077.62361
  20188787.0224  -13600697.94646 -10422632.58661
  21961749.1074   -3587485.07544  -2703907.67961
 93  9  1  4  4 29.9900000  0  7G15G14G22G25G 1G29G20
  17970003.9594  -29372539.39847 -22459848.70964
  19419557.318   -18051223.249 6 -13794984.49121
  21034310.576    -6184951.271 5  -3161972.13321
  17993384.4434  -30543121.99948 -23596778.09164
  20956396.6154   -1682084.29646  -1232741.76161
  20171282.193   -13692678.050 6 -10494305.34221
  21960233.3424   -3595462.85844  -2710124.12661
 93  9  1  4  4 59.9900000  0  7G15G14G22G25G 1G29G20
  17971327.2644  -29365576.20647 -22454422.85064
  19397813.717   -18165498.634 6 -13884030.21021
  21011609.3654   -6304229.36944  -3254916.08061
  17994337.6934  -30538121.44147 -23592881.54664
  20964291.2874   -1640592.59946  -1200410.54861
  20153809.2724  -13784506.26346 -10565859.74161
  21958812.2254   -3602922.88744  -2715937.12761
 93  9  1  4  5 29.9900000  0  7G15G14G22G25G 1G29G20
  17972757.3424  -29358038.35947 -22448549.20964
  19376089.709   -18279655.907 6 -13972983.89221
  20988926.3184   -6423427.61544  -3347797.78861
  17995386.8974  -30532621.29348 -23588595.70964
  20972180.1624   -1599124.55345  -1168097.77861
  20136359.717   -13876198.584 6 -10637308.25821
  21957493.967    -3609872.897 4  -2721352.72621
 93  9  1  4  5 59.9900000  0  7G15G14G22G25G 1G29G20
  17974307.9434  -29349921.36147 -22442224.27564
  19354391.115   -18393686.407 6 -14061838.79321
  20966262.0614   -6542547.60344  -3440618.51061
  17996526.3184  -30526616.77548 -23583916.85864
  20980071.3424   -1557671.71545  -1135796.86861
  20118934.123   -13967756.819 6 -10708652.27921
  21956269.7174   -3616306.59544  -2726365.98861
 93  9  1  4  6 29.9900000  0  7G15G14G22G25G 1G29G20
  17975958.9824  -29341227.16247 -22435449.58564
  19332712.732   -18507599.746 6 -14150602.39621
  20943605.0684   -6661609.96245  -3533394.36661
  17997764.6394  -30520120.04648 -23578854.46664
  20987956.7564   -1516233.78045  -1103507.59061
  20101540.709   -14059182.212 6 -10779892.79921
  21955137.529    -3622224.764 4  -2730977.51421
 93  9  1  4  6 59.9900000  0  7G15G14G22G25G 1G29G20
  17977724.3344  -29331962.05347 -22428230.03064
  19311055.631   -18621411.545 6 -14239286.88221
  20920952.8184   -6780629.28744  -3626136.61761
  17999091.4984  -30513136.09848 -23573412.42263
  20995837.3504   -1474815.48345  -1071233.59561
  20084169.2954  -14150472.90646 -10851028.34961
  21954115.2014   -3627632.66844  -2735191.46361
 93  9  1  4  7 29.9900000  0  7G15G14G22G25G 1G29G20
  17979594.3974  -29322117.09847 -22420558.64564
  19289420.7564  -18735097.66746 -14327873.43962
  20898315.787    -6899598.919 5  -3718840.19321
  18000517.0374  -30505656.86748 -23567584.43964
  21003719.772    -1433394.440 5  -1038957.48021
  20066825.3814  -14241602.51846 -10922038.39361
  21953186.209    -3632519.895 3  -2738999.68721
 93  9  1  4  7 59.9900000  0  7G15G14G22G25G 1G29G20
  17981578.7484  -29311712.55047 -22412451.21364
  19267809.490   -18848666.092 6 -14416368.28321
  20875681.139    -7018543.662 5  -3811524.37421
  18002025.7874  -30497712.16748 -23561393.76064
  21011599.4044   -1391974.86345  -1006682.48861
  20049515.8264  -14332579.39246 -10992929.40561
  21952356.2404   -3636904.73744  -2742416.43561
 93  9  1  4  8 29.9900000  0  7G15G14G22G25G 1G29G20
  17983660.1314  -29300747.54847 -22403907.06364
  19246219.240   -18962123.650 6 -14504776.74621
  20853052.482    -7137458.863 5  -3904185.50321
  18003630.8734  -30489296.41048 -23554836.02064
  21019482.256    -1350556.194 6   -974408.17921
  20032226.2644  -14423411.63746 -11063707.72961
  21951605.498    -3640785.386 4  -2745440.26921
 93  9  1  4  8 59.9900000  0  7G15G14G22G25G 1G29G20
  17985856.0844  -29289217.01147 -22394922.23464
  19224653.2724  -19075462.74246 -14593092.89761
  20830433.053    -7256320.951 5  -3996805.24821
  18005325.1784  -30480389.08147 -23547895.23763
  21027364.022    -1309130.991 5   -942128.83221
  20014971.100   -14514090.450 6 -11134366.49721
  21950966.5684   -3644155.44944  -2748066.29261
 93  9  1  4  9 29.9900000  0  7G15G14G22G25G 1G29G20
  17988162.5614  -29277111.58847 -22385489.44664
  19203110.100   -19188672.352 6 -14681308.14522
  20807825.4364   -7375118.06045  -4089374.39361
  18007112.1864  -30470984.57147 -23540567.03864
  21035249.834    -1267697.152 6   -909842.73621
  19997749.7794  -14604607.87446 -11204899.48261
  21950426.6704   -3647004.38944  -2750286.24761
 93  9  1  4  9 59.9900000  0  7G15G14G22G25G 1G29G20
  17990571.8654  -29264447.62247 -22375621.42564
  19181585.967   -19301784.010 6 -14769447.07622
  20785229.9674   -7493864.05944  -4181903.70561
  18008993.8504  -30461094.48347 -23532860.46564
  21043130.6394   -1226283.28146   -877572.19661
  19980548.9754  -14694997.30446 -11275332.75361
  21949985.162    -3649347.422 3  -2752111.97121
 93  9  1  4 10 29.9900000  0  7G15G14G22G25G 1G29G20
  17993085.3344  -29251224.75447 -22365317.89464
  19160081.279   -19414788.913 6 -14857502.82022
  20762646.2724   -7612541.06245  -4274379.23761
  18010971.3654  -30450712.76847 -23524770.80763
  21051007.7724   -1184897.24846   -845323.31961
  19963371.568   -14785260.573 6 -11345667.72621
  21949635.537    -3651182.512 3  -2753541.92521
 93  9  1  4 10 59.9900000  0  7G15G14G22G25G 1G29G20
  17995709.8814  -29237429.85747 -22354568.63164
  19138601.8974  -19527656.80646 -14945451.80062
  20740079.092    -7731126.236 5  -4366783.22121
  18013042.8344  -30439836.03547 -23516295.42063
  21058881.0614   -1143528.35346   -813087.81761
  19946223.670   -14875370.267 6 -11415883.01421
  21949378.264    -3652495.414 3  -2754564.93321
 93  9  1  4 11 29.9900000  0  7G15G14G22G25G 1G29G20
  17998437.7874  -29223087.21447 -22343392.55264
  19117150.584   -19640390.795 7 -15033296.44222
  20717528.5294   -7849642.61245  -4459133.61961
  18015201.8114  -30428492.51547 -23507456.30263
  21066745.100    -1102198.117 6   -780882.47521
  19929100.2484  -14965360.46146 -11486005.19561
  21949225.451    -3653308.681 3  -2755198.65521
 93  9  1  4 11 59.9890000  0  7G15G14G22G25G 1G29G20
  18001273.2354  -29208195.04947 -22331788.27564
  19095725.3214  -19752977.42046 -15121026.25662
  20694994.4394   -7968070.51644  -4551415.04061
  18017451.3294  -30416672.80347 -23498246.13363
  21074604.8844   -1060892.53646   -748696.30661
  19911997.259   -15055235.912 6 -11556037.96921
  21949165.892    -3653618.326 4
 93  9  1  4 12 29.9890000  0  7G15G14G22G25G 1G29G20
  18004213.5324  -29192742.04547 -22319746.97764
  19074330.079   -19865412.324 7 -15208637.84322
  20672476.4314   -8086393.65045  -4643614.85261
  18019790.0564  -30404380.45147 -23488667.66864
  21082463.1264   -1019594.26845   -716515.81161
  19894916.392   -15144991.634 6 -11625977.45621
  21949203.204    -3653413.276 3
 93  9  1  4 12 59.9890000  0  7G15G14G22G25G 1G29G20
  18007260.0404  -29176745.19147 -22307281.90264
  19052960.6964  -19977711.29447 -15296143.51262
  20649973.6424   -8204632.98045  -4735749.35861
  18022212.1734  -30391642.01047 -23478741.60364
  21090316.8294    -978320.42345   -684354.36361
  19877856.564   -15234635.459 6 -11695829.74721
  21949341.189    -3652708.623 3  -2754731.01221
 93  9  1  4 13 29.9890000  0  7G15G14G22G25G 1G29G20
  18010410.2124  -29160200.51147 -22294389.94564
  19031616.806   -20089871.793 7 -15383541.28322
  20627494.360    -8322773.395 5  -4827806.77221
  18024722.1494  -30378444.56147 -23468457.87064
  21098165.9394    -937070.43945   -652211.55561
  19860821.423   -15324167.689 6 -11765595.07221
  21949562.3764   -3651499.43743  -2753788.79061
 93  9  1  4 13 59.9890000  0  7G15G14G22G25G 1G29G20
  18013662.1574  -29143107.86447 -22281071.00763
  19010298.2124  -20201900.47647 -15470836.33662
  20605033.2284   -8440808.90945  -4919782.47261
  18027320.4154  -30364792.64747 -23457820.01064
  21106012.2824    -895847.31045   -620089.63761
  19843810.0644  -15413568.62246 -11835258.08661
  21949892.9234   -3649783.56143  -2752451.73361
 93  9  1  4 14 29.9890000  0  7G15G14G22G25G 1G29G20
  18017014.6034  -29125466.92647 -22267324.82464
  18989007.8764  -20313781.26747 -15558016.14462
  20582588.329    -8558742.697 5  -5011678.89521
  18030005.8844  -30350693.70847 -23446833.81864
  21113852.0954    -854651.22746   -587988.80761
  19826823.790   -15502818.671 6 -11904803.54121
  21950317.7124   -3647559.22843  -2750718.49861
 93  9  1  4 14 59.9890000  0  7G15G14G22G25G 1G29G20
  18020478.3924  -29107282.66247 -22253155.27564
  18967749.618   -20425503.475 7 -15645072.38522
  20560166.3924   -8676580.68145  -5103500.66261
  18032774.9854  -30336131.96247 -23435487.00464
  21121685.9854    -813478.38245   -555906.02261
  19809870.118   -15591906.162 6 -11974222.32221
  21950839.985    -3644830.256 4  -2748592.01821
 93  9  1  4 15 29.9890000  0  7G15G14G22G25G 1G29G20
  18024042.1034  -29088562.34947 -22238568.02464
  18946519.806   -20537060.031 7 -15731999.55122
  20537761.4624   -8794318.42345  -5195244.33461
  18035635.6814  -30321100.25747 -23423773.98664
  21129517.5484    -772325.36345   -523838.74861
  19792947.7044  -15680834.39946 -12043517.00661
  21951452.9074   -3641602.59044  -2746076.92061
 93  9  1  4 15 59.9890000  0  7G15G14G22G25G 1G29G20
  18027702.2824  -29069301.81247 -22223559.81464
  18925324.071   -20648438.983 7 -15818788.31622
  20515375.2904   -8911964.18245  -5286916.29561
  18038587.9544  -30305595.72347 -23411692.52664
  21137348.3994    -731166.45945   -491766.89561
  19776058.3534  -15769591.45246 -12112678.31461
  21952164.2284   -3637870.79144  -2743168.99961
 93  9  1  4 16 29.9890000  0  7G15G14G22G25G 1G29G20
  18031475.8764  -29049504.75647 -22208133.54064
  18904164.095   -20759642.303 7 -15905440.22622
  20493003.907    -9029516.852 5  -5378515.73521
  18041625.2204  -30289621.01147 -23399244.69864
  21145186.0564    -689991.01545   -459682.14261
  19759200.243   -15858184.536 6 -12181711.85121
  21952972.7124   -3633637.44045  -2739870.29061
 93  9  1  4 16 59.9890000  0  7G15G14G22G25G 1G29G20
  18035338.2594  -29029177.28947 -22192293.96064
  18883032.0564  -20870685.65647 -15991967.49362
  20470654.6894   -9146970.10145  -5470037.70761
  18044753.8534  -30273191.01047 -23386442.09664
  21153022.8534    -648801.62945   -427586.54061
  19742373.2904  -15946618.39146 -12250621.31161
  21953870.3454   -3628907.07744  -2736184.27661
 93  9  1  4 17 29.9890000  0  7G15G14G22G25G 1G29G20
  18039310.5644  -29008319.13747 -22176040.85764
  18861930.478   -20981583.377 7 -16078381.27422
  20448324.3604   -9264321.16645  -5561480.05861
  18047963.0174  -30256323.42847 -23373298.52864
  21160860.274     -607605.617 5   -395485.74921
  19725574.314   -16034895.827 6 -12319408.88321
  21954867.7354   -3623678.00145  -2732109.62361
 93  9  1  4 17 59.9890000  0  7G15G14G22G25G 1G29G20
  18043381.5644  -28986932.41447 -22159375.88763
  18840849.8534  -21092353.72547 -16164695.80562
  20426012.7824   -9381569.40345  -5652842.30061
  18051252.8604  -30239025.21047 -23359819.39664
  21168699.0794    -566410.99745   -363386.04161
  19708802.4314  -16123029.09646 -12388084.12361
  21955951.509    -3617951.197 4  -2727647.14821
 93  9  1  4 18 29.9890000  0  7G15G14G22G25G 1G29G20
  18047547.0954  -28965021.01247 -22142302.07063
  18819795.7124  -21202998.07847 -16250912.15862
  20403722.0094   -9498697.65245  -5744111.02561
  18054628.3214  -30221302.17947 -23346009.24164
  21176533.2124    -525245.38345   -331308.94861
  19692056.056   -16211029.001 6 -12456655.44921
  21957129.3764   -3611728.69645  -2722798.46761
 93  9  1  4 18 59.9890000  0  7G15G14G22G25G 1G29G20
  18051816.7824  -28942593.45247 -22124826.05463
  18798764.7204  -21313518.84247 -16337032.21662
  20381453.5794   -9615713.93045  -5835292.50661
  18058082.7284  -30203148.06847 -23331863.18164
  21184360.8214    -484125.31845   -299267.35261
  19675333.329   -16298913.022 6 -12525136.47021
  21958416.3374   -3605017.77545  -2717569.10061
 93  9  1  4 19 29.9890000  0  7G15G14G22G25G 1G29G20
  18056187.4784  -28919631.65447 -22106933.74863
  18777762.4854  -21423882.57347 -16423029.89962
  20359213.9854   -9732598.43845  -5926371.31261
  18061626.8764  -30184513.08747 -23317342.41464
  21192178.1424    -443043.28945   -267255.40861
  19658631.556   -16386680.327 6 -12593526.54221
  21959787.2674   -3597799.14644  -2711944.20561
 93  9  1  4 19 59.9890000  0  7G15G14G22G25G 1G29G20
  18060658.4234  -28896151.33647 -22088637.40263
  18756793.587   -21534073.581 7 -16508893.00222
  20336997.110    -9849351.256 5  -6017347.50121
  18065261.9704  -30165404.05547 -23302452.25764
  21199983.9544    -402008.90445   -235280.56761
  19641946.735   -16474347.978 6 -12661838.96521
  21961258.267    -3590087.299 5  -2705934.96821
 93  9  1  4 20 29.9890000  0  7G15G14G22G25G 1G29G20
  18065223.6734  -28872146.93147 -22069932.67763
  18735862.0714  -21644071.52747 -16594605.66562
  20314808.954    -9965950.016 5  -6108203.63121
  18068988.2904  -30145824.40247 -23287195.38464
  21207787.251     -361004.738 5   -203329.25021
  19625287.782   -16561899.694 6 -12730061.05721
  21962826.0714   -3581875.69645  -2699536.30161
 93  9  1  4 20 59.9890000  0  7G15G14G22G25G 1G29G20
  18069890.0324  -28847626.51647 -22050825.86263
  18714964.1814  -21753885.10047 -16680174.66062
  20292649.829   -10082392.398 5  -6198937.90721
  18072802.5324  -30125786.25547 -23271581.23864
  21215588.5874    -320015.17745   -171389.33261
  19608646.610   -16649335.273 6 -12798192.64621
  21964465.2824   -3573170.89044  -2692753.33161
 93  9  1  4 21 29.9890000  0  7G15G14G22G25G 1G29G20
  18074651.7904  -28822600.07547 -22031324.74863
  18694104.306   -21863508.551 7 -16765595.50822
  20270525.3994  -10198663.96945  -6289539.12861
  18076695.3534  -30105329.86047 -23255641.18763
  21223382.759     -279055.100 5   -139472.41121
  19592030.618   -16736658.771 6 -12866236.90121
  21966226.751    -3563981.619 5  -2685592.83521
 93  9  1  4 21 59.9890000  0  7G15G14G22G25G 1G29G20
  18079512.1184  -28797062.24647 -22011425.14263
  18673280.5404  -21972940.81847 -16850867.38662
  20248431.5954  -10314756.76645  -6380001.03561
  18080662.5174  -30084479.77747 -23239394.36963
  21231176.767     -238097.850 5   -107557.70121
  19575437.946   -16823853.077 6 -12934180.48521
  21968068.306    -3554300.457 5  -2678049.02521
 93  9  1  4 22 29.9890000  0  7G15G14G22G25G 1G29G20
  18084470.6574  -28771017.07747 -21991130.21563
  18652489.587   -22082198.886 7 -16936003.51922
  20226372.642   -10430674.667 5  -6470326.62621
  18084702.8844  -30063241.21747 -23222844.83863
  21238970.2354    -197149.34845    -75649.79161
  19558872.228   -16910919.274 6 -13002024.22821
  21970005.790    -3544130.317 5  -2670124.22321
 93  9  1  4 22 59.9890000  0  7G15G14G22G25G 1G29G20
  18089521.2984  -28744472.86947 -21970446.41963
  18631731.4784  -22191283.77947 -17021004.72162
  20204345.610   -10546436.058 5  -6560530.25821
  18088819.9784  -30041614.02047 -23205992.47563
  21246754.7434    -156231.49445    -43765.74061
  19542328.501   -16997860.464 6 -13069770.56921
  21972034.064    -3533478.219 5  -2661823.86221
 93  9  1  4 23 29.9890000  0  6G15G14G22G25G 1G29
  18094664.5094  -28717422.71447 -21949368.38663
  18611010.2594  -22300174.78647 -17105854.83662
  20182345.4934  -10662044.86545  -6650614.99061
  18093015.2434  -30019577.26947 -23188820.98063
  21254536.8374    -115335.72045    -11898.91861
  19525807.290   -17084667.651 6 -13137412.49521
 93  9  1  4 23 59.9890000  0  6G15G14G22G25G 1G29
  18099906.2434  -28689878.54147 -21927905.39963
  18590322.095   -22408886.785 7 -17190565.46422
  20160368.9784  -10777527.01845  -6740601.06061
  18097290.6034  -29997104.87947 -23171310.02563
  21262320.3994     -74449.68545     19960.29861
  19509314.579   -17171333.156 6 -13204944.02221
 93  9  1  4 24 29.9890000  0  6G15G14G22G25G 1G29
  18105248.2594  -28661829.53547 -21906049.03963
  18569672.5244  -22517399.71547 -17275120.97362
  20138422.7434  -10892862.01845  -6830472.42861
  18101652.3374  -29974171.63047 -23153439.96463
  21270097.064      -33568.806 5     51815.48921
  19492853.478   -17257842.058 6 -13272353.52721
 93  9  1  4 24 59.9890000  0  6G15G14G22G25G 1G29
  18110676.8374  -28633281.98947 -21883804.20463
  18549062.4854  -22625706.28447 -17359515.68062
  20116499.9234  -11008059.24445  -6920236.47861
  18106106.1494  -29950781.13747 -23135213.60463
  21277879.3214       7319.47245     83676.46961
  19476419.6344  -17344198.37546 -13339644.12161
 93  9  1  4 25 29.9890000  0  6G15G14G22G25G 1G29
  18116204.1574  -28604243.02747 -21861176.44763
  18528492.8764  -22733801.98547 -17443746.08062
  20094607.9934  -11123108.86245  -7009885.46461
  18110640.9314  -29926942.40247 -23116637.96763
  21285662.267       48222.441 5    115548.89521
  19460015.5954  -17430412.61846 -13406824.01061
 93  9  1  4 25 59.9890000  0  6G15G14G22G25G 1G29
  18121824.4234  -28574713.55147 -21838166.47063
  18507961.8844  -22841694.42147 -17527818.08862
  20072744.8064  -11237998.82945  -7099410.12261
  18115258.3064  -29902676.53047 -23097729.49463
  21293442.1894      89119.10145    147416.42961
  19443632.860   -17516489.581 6 -13473896.94921
 93  9  1  4 26 29.9890000  0  6G15G14G22G25G 1G29
  18127533.9934  -28544698.56847 -21814778.18063
  18487468.337   -22949390.668 7 -17611737.22322
  20050914.704   -11352718.303 5  -7188801.86421
  18119952.9154  -29878019.69447 -23078516.37863
  21301221.212      129984.661 5    179259.73121
  19427275.360   -17602449.590 6 -13540878.73121
 93  9  1  4 26 59.9890000  0  6G15G14G22G25G 1G29
  18133340.6574  -28514193.06247 -21791007.66463
  18467012.2594  -23056884.12047 -17695498.34262
  20029119.1654  -11467252.00345  -7278048.89461
  18124717.4624  -29852972.86247 -23058999.36263
  21308989.634      170814.475 5    211075.10021
  19410945.134   -17688276.432 6 -13607756.75521
 93  9  1  4 27 29.9890000  0  6G15G14G22G25G 1G29
  18139235.6494  -28483206.69447 -21766862.44963
  18446591.2354  -23164197.68747 -17779119.28662
  20007359.642   -11581591.206 5  -7367144.34321
  18129555.5644  -29827547.12147 -23039187.09963
  21316744.6424     211580.34245    242840.68461
  19394637.2594  -17773977.08946 -13674536.46261
 93  9  1  4 27 59.9890000  0  6G15G14G22G25G 1G29
  18145224.9074  -28451727.26747 -21742333.03563
  18426204.8534  -23271330.45047 -17862599.34162
  19985644.517   -11695721.826 5  -7456077.27021
  18134471.9624  -29801721.20947 -23019063.01063
  21324498.1264     252298.99945    274569.51261
  19378355.884   -17859533.565 6 -13741203.80321
 93  9  1  4 28 29.9890000  0  6G15G14G22G25G 1G29
  18151308.8064  -28419768.40647 -21717430.03463
  18405854.3604  -23378278.50447 -17945935.46562
  19963959.8994  -11809651.43845  -7544853.55061
  18139462.3454  -29775488.27547 -22998621.76263
  21332241.9784     292994.08345    306279.93461
  19362103.0874  -17944943.00046 -13807756.58861
 93  9  1  4 28 59.9890000  0  6G15G14G22G25G 1G29
  18157481.1264  -28387338.24447 -21692159.79263
  18385536.3534  -23485040.88747 -18029126.91262
  19942320.7044  -11923389.57245  -7633480.60361
  18144532.8924  -29748837.50047 -22977854.92363
  21339983.9784     333687.54645    337989.09861
  19345874.4074  -18030211.71146 -13874199.71061
 93  9  1  4 29 29.9890000  0  6G15G14G22G25G 1G29
  18163741.1574  -28354427.38047 -21666514.96663
  18365258.642   -23591602.627 7 -18112162.01322
  19920713.2824  -12036926.52445  -7721950.94761
  18149690.2904  -29721743.56047 -22956742.76163
  21347732.657      374416.032 5    369725.56121
  19329675.884   -18115342.194 6 -13940535.11921
 93  9  1  4 29 59.9890000  0  6G15G14G22G25G 1G29
  18170093.4784  -28321041.49347 -21640500.00463
  18345023.868   -23697944.150 7 -18195025.51722
  19899146.720   -12150270.058 5  -7810270.55521
  18154929.8684  -29694212.73547 -22935290.16663
  21355492.2514     415190.02145    401497.49361
  19313502.556   -18200337.312 6 -14006765.05721
 93  9  1  4 30 29.9890000  0  6G15G14G22G25G 1G29
  18176535.8374  -28287188.03347 -21614120.69063
  18324830.3994  -23804061.91247 -18277714.66762
  19877613.532   -12263417.553 5  -7898437.38921
  18160248.1184  -29666263.30647 -22913511.38863
  21363259.314      455987.399 5    433287.64221
  19297352.2204  -18285206.31746 -14072896.72361
 93  9  1  4 30 59.9890000  0  6G15G14G22G25G 1G29
  18183069.2824  -28252867.05547 -21587377.08263
  18304677.439   -23909963.195 7 -18360235.12122
  19856121.876   -12376362.109 5  -7986446.09121
  18165644.1894  -29637901.85047 -22891411.55263
  21371021.1814     496768.38545    465064.98561
  19281224.517   -18369966.903 6 -14138943.90421
 93  9  1  4 31 29.9890000  0  6G15G14G22G25G 1G29
  18189688.3294  -28218084.68847 -21560273.95063
  18284568.8684  -24015637.06047 -18442578.37962
  19834670.329   -12489092.889 5  -8074288.22621
  18171115.4854  -29609144.62947 -22869003.32863
  21378769.2044     537496.38845    496801.07561
  19265114.931   -18454613.906 6 -14204902.58621
 93  9  1  4 31 59.9890000  0  6G15G14G22G25G 1G29
  18196394.7824  -28182850.25247 -21532818.55463
  18264502.6424  -24121082.22747 -18524743.42262
  19813256.3144  -12601610.91345  -8161964.57561
  18176655.8844  -29580027.19747 -22846314.41763
  21386503.2744     578142.00845    528473.01461
  19249028.673   -18539151.038 6 -14270775.63721
 93  9  1  4 32 29.9890000  0  6G15G14G22G25G 1G29
  18203187.0954  -28147149.17447 -21504999.54563
  18244481.3994  -24226286.11447 -18606720.45662
  19791893.0954  -12713892.79146  -8249456.91761
  18182269.0954  -29550536.12547 -22823334.35963
  21394224.0644     618717.30145    560090.11261
  19232963.8144  -18623562.84546 -14336551.06361
 93  9  1  4 32 59.9890000  0  6G15G14G22G25G 1G29
  18210066.7284  -28110988.86047 -21476822.68363
  18224511.5484  -24331243.66147 -18688505.53862
  19770566.7744  -12825943.00945  -8336768.75561
  18187951.8924  -29520673.89447 -22800065.08963
  21401935.5794     659240.35845    591666.47661
  19216925.5644  -18707849.46246 -14402228.93161
 93  9  1  4 33 29.9890000  0  6G15G14G22G25G 1G29
  18217032.1424  -28074381.59447 -21448297.55463
  18204585.6034  -24435950.84147 -18770095.53262
  19749287.196   -12937777.293 5  -8423912.28021
  18193702.6734  -29490456.60547 -22776519.15363
  21409641.665      699737.422 5    623222.58121
  19200909.368   -18792010.739 6 -14467809.12421
 93  9  1  4 33 59.9890000  0  6G15G14G22G25G 1G29
  18224080.7594  -28037331.11847 -21419427.06563
  18184702.8374  -24540433.78747 -18851510.79762
  19728044.9394  -13049412.53345  -8510900.74661
  18199521.8764  -29459877.55847 -22752691.32363
  21417350.814      740238.531 5    654781.87121
  19184919.103   -18876051.839 6 -14533295.65921
 93  9  1  4 34 29.9890000  0  6G15G14G22G25G 1G29
  18231221.8144  -27999821.53747 -21390198.83163
  18164865.2984  -24644680.73947 -18932742.17063
  19706836.923   -13160844.522 5  -8597730.84121
  18205415.5244  -29428898.15447 -22728551.52563
  21425059.3924     780768.52345    686363.66061
  19168952.0404  -18959951.09046 -14598671.67461
 93  9  1  4 34 59.9890000  0  6G15G14G22G25G 1G29
  18238443.8214  -27961870.33747 -21360626.48463
  18145070.6264  -24748703.28247 -19013798.67862
  19685670.3534  -13272087.70645  -8684413.79261
  18211384.8294  -29397526.16647 -22704105.82163
  21432774.6184     821310.60845    717954.85561
  19153010.8994  -19043721.45746 -14663947.26761
 93  9  1  4 35 29.9880000  0  6G15G14G22G25G 1G29
  18245746.1604  -27923485.86847 -21330716.51863
  18125316.5594  -24852510.60847 -19094687.48662
  19664539.317   -13383138.168 5  -8770946.56221
  18217428.9024  -29365776.65447 -22679365.94263
  21440491.0204     861848.62745    749542.90561
  19137094.777   -19127362.603 6 -14729122.15521
 93  9  1  4 35 59.9880000  0  6G15G14G22G25G 1G29
  18253136.6374  -27884655.74847 -21300459.29863
  18105605.3324  -24956091.69947 -19175400.00562
  19643444.7314  -13493972.59645  -8857311.04961
  18223544.8014  -29333632.17147 -22654318.29163
  21448200.020      902379.253 5    781125.16121
  19121205.512   -19210868.067 6 -14794191.32021
 93  9  1  4 36 29.9880000  0  6G15G14G22G25G 1G29
  18260608.1064  -27845399.06047 -21269869.68363
  18085939.6454  -25059432.87547 -19255925.57963
  19622399.2074  -13604575.18245  -8943494.84461
  18229731.3714  -29301119.32747 -22628983.61263
  21455912.2314     942869.73044    812676.15561
  19105337.387   -19294249.931 6 -14859164.16821
 93  9  1  4 36 59.9880000  0  6G15G14G22G25G 1G29
  18268155.3714  -27805715.70947 -21238947.60262
  18066322.1294  -25162524.45247 -19336256.66363
  19601406.442   -13714911.314 5  -9029471.00821
  18235986.8094  -29268250.00747 -22603371.15563
  21463607.192      983324.684 4    844199.42321
  19089494.817   -19377506.003 6 -14924038.99621
 93  9  1  4 37 29.9880000  0  6G15G14G22G25G 1G29
  18275794.5744  -27765599.81247
  18046752.6294  -25265361.42747 -19416389.35063
  19580460.027   -13824969.359 6  -9115230.48721
  18242308.1214  -29235023.84547 -22577480.63763
  21471303.879     1023760.754 4
  19073676.246   -19460629.505 6 -14988810.52522
 93  9  1  4 37 59.9880000  0  6G15G14G22G25G 1G29
  18283505.4964  -27725058.69647 -21176098.00662
  18027230.3874  -25367952.82947 -19496330.68763
  19559566.4654  -13934753.01845  -9200776.15361
  18248703.0124  -29201434.79647 -22551307.35563
  21478989.1134    1064171.51244    907196.84661
  19057882.481   -19543633.146 6 -15053488.65021
 93  9  1  4 38 29.9880000  0  6G15G14G22G25G 1G29
  18291301.1994  -27684097.83846 -21144180.46662
  18007753.4024  -25470306.97447 -19576087.14963
  19538729.918   -14044265.650 6  -9286110.64321
  18255158.8794  -29167491.36347 -22524857.92563
  21486668.4344    1104556.40643    938665.51861
  19042108.723   -19626514.075 6 -15118071.16622
 93  9  1  4 38 59.9880000  0  6G15G14G22G25G 1G29
  18299175.8014  -27642717.50747 -21111936.06562
  17988318.7774  -25572428.47447 -19655662.33763
  19517937.9964  -14153515.07846  -9371240.02561
  18261688.7934  -29133184.30847 -22498125.16063
  21494364.1294    1144918.88044    970116.72561
  19026361.582   -19709264.425 6 -15182551.93121
 93  9  1  4 39 29.9880000  0  6G15G14G22G25G 1G29
  18307128.4104  -27600917.43046 -21079364.58862
  17968933.7314  -25674308.09647 -19735049.03263
  19497199.3244  -14262506.12045  -9456168.07761
  18268288.7154  -29098505.06747 -22471102.37663
  21502038.559     1185263.742 4   1001554.14621
  19010641.707   -19791873.511 6 -15246922.61721
 93  9  1  4 39 59.9880000  0  6G15G14G22G25G 1G29
  18315165.7464  -27558698.24646 -21046466.53762
  17949595.7384  -25775924.79247 -19814230.86063
  19476511.6454  -14371225.91146  -9540884.75661
  18274955.3794  -29063464.77647 -22443798.25163
  21509707.582     1225590.038 5   1032977.14621
  18994949.449   -19874342.880 6 -15311184.42821
 93  9  1  4 40 29.9880000  0  6G15G14G22G25G 1G29
  18323276.4424  -27516067.66646 -21013247.91562
  17930311.7854  -25877263.37247 -19893195.97163
  19455870.559   -14479681.480 5  -9625395.56021
  18281690.5594  -29028075.84847 -22416222.46963
  21517376.1134    1265886.31243   1064376.78761
  18979281.559   -19956674.631 6 -15375339.00822
 93  9  1  4 40 59.9880000  0  6G15G14G22G25G 1G29
  18331466.9264  -27473023.50346 -20979707.02062
  17911081.3094  -25978320.21947 -19971941.55063
  19435284.426   -14587875.114 6  -9709702.23721
  18288493.9654  -28992327.83147 -22388366.87463
  21525044.223     1306166.905 4   1095764.21721
  18963639.660   -20038876.092 6 -15439392.06322
 93  9  1  4 41 29.9880000  0  6G15G14G22G25G 1G29
  18339735.4104  -27429580.58746 -20945855.41562
  17891903.7314  -26079098.80047 -20050470.29863
  19414742.9734  -14695816.62145  -9793812.48961
  18295358.5204  -28956250.37447 -22360254.57063
  21532700.481     1346422.070 4   1127131.81921
  18948015.770   -20120977.360 6 -15503367.05022
 93  9  1  4 41 59.9880000  0  6G15G14G22G25G 1G29
  18348079.5124  -27385734.88346 -20911689.94262
  17872779.9884  -26179599.29647 -20128782.36063
  19394251.137   -14803498.811 6  -9877720.65121
  18302286.7934  -28919836.12147 -22331879.82763
  21540360.301     1386644.712 5   1158474.10621
  18932412.074   -20202984.168 6 -15567268.42721
 93  9  1  4 42 29.9880000  0  6G15G14G22G25G 1G29
  18356498.3484  -27341492.35446 -20877215.26362
  17853702.5514  -26279846.77047 -20206897.25763
  19373810.168   -14910926.221 6  -9961430.29621
  18309284.1374  -28883065.88047 -22303227.68863
  21548003.7464    1426836.22345   1189792.09661
  18916823.4734  -20284886.63146 -15631088.50662
 93  9  1  4 42 59.9880000  0  6G15G14G22G25G 1G29
  18364989.4184  -27296863.44546 -20842439.50662
  17834671.2624  -26379856.24747 -20284826.69963
  19353416.6924  -15018092.50646 -10044936.43161
  18316345.3244  -28845958.33847 -22274312.72063
  21555641.027     1466997.227 4   1221086.38421
  18901258.9104  -20366686.13646 -15694828.35561
 93  9  1  4 43 29.9880000  0  6G15G14G22G25G 1G29
  18373557.0204  -27251841.34946 -20807357.37262
  17815688.934   -26479610.970 7 -20362557.63523
  19333075.1994  -15124980.48146 -10128225.74361
  18323471.3874  -28808517.63447 -22245138.14763
  21563288.3094    1507132.92444   1252360.90961
  18885716.1134  -20448369.09446 -15758477.38462
 93  9  1  4 43 59.9880000  0  6G15G14G22G25G 1G29
  18382196.668   -27206427.152 6 -20771969.70122
  17796753.2234  -26579113.40147 -20440091.98463
  19312789.8794  -15231587.23346 -10211295.91061
  18330661.1374  -28770733.14547 -22215695.68563
  21570919.504     1547249.343 5   1283620.39821
  18870196.863   -20529920.438 6 -15822023.85922
 93  9  1  4 44 29.9880000  0  6G15G14G22G25G 1G29
  18390913.3954  -27160619.81546 -20736275.68662
  17777869.6454  -26678349.82047 -20517419.04963
  19292557.0824  -15337902.38646 -10294138.84261
  18337913.5124  -28732617.37047 -22185995.07963
  21578553.043     1587369.229 4   1314882.57521
  18854704.3714  -20611326.66546 -15885457.25662
 93  9  1  4 44 59.9880000  0  6G15G14G22G25G 1G29
  18399704.5274  -27114434.46146 -20700287.11562
  17759037.3244  -26777308.44347 -20594529.64463
  19272381.863   -15443932.041 6 -10376759.32621
  18345224.3634  -28694202.53647 -22156061.44363
  21586188.7704    1627482.42245   1346139.60061
  18839234.8324  -20692618.58646 -15948801.58562
 93  9  1  4 45 29.9880000  0  6G15G14G22G25G 1G29
  18408566.2854  -27067865.16846 -20663999.36362
  17740262.004   -26875978.956 7 -20671415.74323
  19252260.957   -15549669.023 6 -10459151.75421
  18352594.0274  -28655471.37147 -22125881.31163
  21593824.3954    1667595.32745   1377396.33461
  18823790.723   -20773789.481 6 -16012051.60521
 93  9  1  4 45 59.9880000  0  6G15G14G22G25G 1G29
  18417501.7854  -27020921.29347 -20627419.73862
  17721541.1684  -26974366.92747 -20748081.68263
  19232196.3874  -15655103.18546 -10541308.18961
  18360023.5824  -28616431.05447 -22095460.28363
  21601449.1844    1707701.50445   1408647.87961
  18808365.746   -20854844.045 7 -16075210.99222
 93  9  1  4 46 29.9880000  0  6G15G14G22G25G 1G29
  18426505.0354  -26973605.96246 -20590550.65962
  17702870.5674  -27072466.76947 -20824523.09863
  19212195.1454  -15760218.15646 -10623215.94661
  18367509.6064  -28577083.83047 -22064800.11363
  21609087.434     1747800.265 5   1439893.63421
  18792961.3634  -20935787.72646 -16138283.97862
 93  9  1  4 46 59.9880000  0  6G15G14G22G25G 1G29
  18435579.0674  -26925914.72147 -20553388.67262
  17684262.4654  -27170267.40947 -20900731.37363
  19192252.2704  -15865004.06346 -10704867.25661
  18375059.9654  -28537416.46247 -22033890.47763
  21616707.285     1787888.663 3   1471131.32021
  18777578.5514  -21016621.97246 -16201271.68162
 93  9  1  4 47 29.9880000  0  7G18G15G14G22G25G 1G29
  21705972.0204    -110464.22942
  18444725.2154  -26877843.54146 -20515930.62462
  17665706.7854  -27267768.65547 -20976706.35563
  19172380.9734  -15969450.28646 -10786253.88961
  18382670.8634  -28497421.28347
  21624337.613     1827969.974 2
  18762219.6454  -21097331.16546 -16264161.93962
 93  9  1  4 47 59.9880000  0  6G15G14G22G25G 1G29
  18453943.4494  -26829411.43446 -20478191.33262
  17647209.5354  -27364976.25147 -21052452.51363
  19152565.090   -16073562.028 6 -10867379.89421
  18390340.8634  -28457112.99147 -21971316.35063
  21631969.442     1868037.033 5
  18746883.668   -21177936.845 6 -16326971.53822
 93  9  1  4 48 29.9880000  0  6G15G14G22G25G 1G29
  18463231.6764  -26780608.36246 -20440162.98262
  17628769.9654  -27461868.67047 -21127953.08663
  19132819.1844  -16177343.90946 -10948248.86661
  18398073.0904  -28416473.52447 -21939649.24063
  21639582.3244    1908104.74344        -0.01371
  18731570.8014  -21258408.68446 -16389676.84462
 93  9  1  4 48 59.9880000  0  6G15G14G22G25G 1G29
  18472581.9884  -26731457.02546 -20401863.25262
  17610390.270   -27558469.435 7 -21203226.38823
  19113125.590   -16280820.477 6 -11028879.92621
  18405867.9024  -28375522.34347 -21907739.23063
  21647214.3794    1948156.85944     31209.38761
  18716279.1604  -21338761.81947 -16452289.65562
 93  9  1  4 49 29.9880000  0  6G15G14G22G25G 1G29
  18482002.9574  -26681957.87046 -20363292.49362
  17592059.6294  -27654787.73947 -21278279.59363
  19093497.1454  -16383979.80046 -11109263.77761
  18413721.1604  -28334251.42047 -21875580.06863
  21654824.5904    1988198.57444     62410.65161
  18701015.8564  -21418985.62947 -16514801.69762
 93  9  1  4 49 59.9880000  0  6G15G14G22G25G 1G29
  18491492.3714  -26632099.70346 -20324441.99362
  17573787.8484  -27750803.77247 -21353097.26263
  19073928.6454  -16486808.46446 -11189389.97761
  18421636.6764  -28292646.13447 -21843160.36963
  21662446.1924    2028233.20744     93606.45861
  18685774.5594  -21499069.49547 -16577204.68762
 93  9  1  4 50 29.9880000  0  6G15G14G22G25G 1G29
  18501043.8404  -26581889.15646 -20285316.90662
  17555576.317   -27846522.534 7 -21427683.28723
  19054419.356   -16589323.643 6 -11269271.89721
  18429616.5354  -28250720.04547 -21810490.69262
  21670056.387     2068235.783 3    124777.29721
  18670557.4264  -21579023.19847 -16639506.24962
 93  9  1  4 50 59.9880000  0  6G15G14G22G25G 1G29
  18510666.5594  -26531327.48446 -20245918.20962
  17537416.7464  -27941935.65547 -21502031.15163
  19034975.6604  -16691513.09146 -11348900.03761
  18437652.9654  -28208477.52747 -21777574.45262
  21677675.973     2108192.897 4    155912.68321
  18655362.2234  -21658876.56847 -16701729.63862
 93  9  1  4 51 29.9880000  0  6G15G14G22G25G 1G29
  18520351.8564  -26480428.97846 -20206257.05162
  17519320.4884  -28037037.51747 -21576136.47763
  19015584.285   -16793402.601 6 -11428294.41521
  18445748.3714  -28165943.48647 -21744431.03562
  21685253.012     2148083.381 4    186996.08521
  18640184.2704  -21738641.28647 -16763883.94362
 93  9  1  4 51 59.9880000  0  7G18G15G14G22G25G 1G29
  21517052.1994    -110181.16342
  18530101.2934  -26429198.59246 -20166337.28762
  17501284.3404  -28131811.30647 -21649986.15463
  18996251.3244  -16895010.90046 -11507469.69561
  18453895.1454  -28123136.16747 -21711074.69263
  21692825.1134    2187903.84542    218024.96461
  18625022.5274  -21818318.06047 -16825969.72662
 93  9  1  4 52 29.9880000  0  6G15G14G22G25G 1G29
  18539914.582   -26377623.545 6 -20126148.95722
  17483315.6524  -28226246.02047 -21723571.63063
  18976969.574   -16996322.772 6 -11586413.98421
  18462094.4964  -28080046.64647 -21677498.44763
  21700399.5904    2227691.40443    249028.21761
  18609882.731   -21897878.314 6 -16887964.69822
 93  9  1  4 52 59.9880000  0  6G15G14G22G25G 1G29
  18549792.7074  -26325722.85546 -20085706.87162
  17465405.3404  -28320364.63647 -21796910.79463
  18957748.8634  -17097341.97746 -11665130.22961
  18470344.8244  -28036689.64547 -21643713.77163
  21707973.824     2267454.769 3    280012.65821
  18594764.809   -21977324.249 7 -16949870.59622
 93  9  1  4 53 29.9880000  0  5G15G14G22G25G29
  18559729.2854  -26273491.88846 -20045007.43462
  17447553.9184  -28414174.85547 -21870009.65463
  18938582.324   -17198044.612 6 -11743599.78821
  18478649.0044  -27993055.64347 -21609713.25763
  18579673.777   -22056633.827 7 -17011670.24222
 93  9  1  4 53 59.9880000  0  5G15G14G22G25G29
  18569733.5744  -26220933.61646 -20004052.94862
  17429758.4964  -28507678.79947 -21942869.85063
  18919488.152   -17298398.807 6 -11821797.84321
  18487005.6064  -27949131.98047 -21575487.02962
  18564603.746   -22135820.570 7 -17073374.17422
 93  9  1  4 54 29.9880000  0  6G15G14G22G25G 1G29
  18579793.7704  -26168053.53346 -19962847.70362
  17412025.7624  -28600878.39047 -22015492.89363
  18900463.2234  -17398378.79746 -11899704.29561
  18495422.2314  -27904908.57947 -21541027.23862
  21730681.832          -0.88114
  18549555.7074  -22214893.75947 -17134989.62462
 93  9  1  4 54 59.9880000  0  6G15G14G22G25G 1G29
  18589920.3014  -26114850.14346 -19921390.53162
  17394351.6374  -28693755.05547 -22087864.30363
  18881509.6684  -17497965.72146 -11977304.47961
  18503894.2934  -27860387.47447 -21506335.47462
  21738237.5274      39786.50942        -0.41871
  18534529.2774  -22293862.10347 -17196523.37062
 93  9  1  4 55 29.9880000  0  7G18G15G14G22G25G 1G29
  21370533.6524         -0.20454
  18600105.645   -26061324.362 6 -19879682.15222
  17376741.9494  -28786289.33047 -22159968.91763
  18862639.567   -17597142.832 6 -12054585.31121
  18512419.6994  -27815581.36247 -21471421.62162
  21745817.309       79568.074 4
  18519521.9494  -22372723.05047 -17257973.44462
 93  9  1  4 55 59.9880000  0  7G18G15G14G22G25G 1G29
  21349618.1684    -109881.68043
  18610348.0984  -26007487.30746 -19837731.21262
  17359196.0674  -28878483.56547 -22231808.56563
  18843843.0674  -17695923.41146 -12131557.18161
  18520997.4964  -27770508.30147 -21436299.75762
  21753386.559      119333.303 5        -0.34331
  18504538.2934  -22451470.20947 -17319334.84262
 93  9  1  4 56 29.9880000  0  7G18G15G14G22G25G 1G29
  21328711.043     -219723.444 2        -0.08531
  18620651.0984  -25953344.86146 -19795542.31462
  17341718.5434  -28970351.23047 -22303393.74563
  18825114.613   -17794323.452 6 -12208232.50421
  18529624.3794  -27725176.19947 -21400976.04562
  21760949.723      159081.938 5     30972.71221
  18489576.4264  -22530090.49047 -17380597.37762
 93  9  1  4 56 59.9880000  0  6G18G15G14G22G25G29
  21307827.4574    -329509.60843    -85547.55961
  18631014.4814  -25898896.22546 -19753114.82262
  17324296.0204  -29061897.07747 -22374728.15663
  18806462.1924  -17892351.00246 -12284617.58661
  18538298.5594  -27679587.60247 -21365452.46762
  18474641.324   -22608582.953 7 -17441760.31322
 93  9  1  4 57 29.9880000  0  6G18G15G14G22G25G29
  21286940.9884    -439228.01942   -171042.34061
  18641433.4964  -25844139.70546 -19710447.41962
  17306935.7704  -29153129.09947 -22445818.02763
  18787877.0204  -17990012.73346 -12360717.60061
  18547026.8634  -27633719.79247 -21329711.32462
  18459726.074   -22686945.075 7 -17502821.68022
 93  9  1  4 57 59.9880000  0  6G18G15G14G22G25G29
  21266087.793     -548886.244 2   -256490.14121
  18651909.1604  -25789080.79546 -19667544.38562
  17289632.4024  -29244047.88147 -22516663.81763
  18769361.723   -18087324.770 6 -12436545.15321
  18555811.5904  -27587557.88147 -21293741.01162
  18444838.293   -22765192.424 7 -17563793.62322
 93  9  1  4 58 29.9880000  0  6G18G15G14G22G25G29
  21245229.4494    -658504.97142
  18662443.7624  -25733726.93546 -19624411.52762
  17272394.7314  -29334637.04847 -22587252.77063
  18750909.5674  -18184291.92446 -12512103.93561
  18564651.6924  -27541109.30247 -21257547.31462
  18429964.4424  -22843355.06347 -17624699.55562
 93  9  1  4 58 59.9880000  0  6G18G15G14G22G25G29
  21224366.6064    -768095.18742
  18673035.7934  -25678070.07946 -19581042.56562
  17255223.9884  -29424868.99247 -22657563.36563
  18732526.7624  -18280892.96146 -12587377.45561
  18573543.9964  -27494378.25347 -21221133.51862
  18415109.5904  -22921414.39447 -17685524.99162
 93  9  1  4 59 29.9870000  0  6G18G15G14G22G25G29
  21203514.9914    -877679.73343
  18683682.5544  -25622127.85646 -19537451.24262
  17238124.2734  -29514732.19447 -22727586.62763
  18714212.023   -18377127.115 6 -12662365.06621
  18582484.0624  -27447386.07547 -21184516.23662
  18400275.2804  -22999368.60847 -17746268.51562
 93  9  1  4 59 59.9870000  0  6G18G15G14G22G25G29
  21182655.7574    -987267.48944
  18694382.9444  -25565896.74946 -19493634.80561
  17221093.5384  -29604222.14947 -22797319.04363
  18695967.6554  -18472989.00046 -12737062.62661
  18591474.0694  -27400149.71947 -21147708.69362
  18385463.8664  -23077212.63247 -17806926.17562
 93  9  1  5  0 29.9870000  0  6G18G15G14G22G25G29
  21161806.6094   -1096839.64545
  18705138.0234  -25509371.96346 -19449589.53661
  17204139.3354  -29693333.07547 -22866756.11563
  18677801.515   -18568461.094 6 -12811456.43821
  18600507.4054  -27352678.66447 -21110718.27062
  18370673.5854  -23154921.42047 -17867478.46062
 93  9  1  5  0 59.9870000  0  6G18G15G14G22G25G29
  21140962.2414   -1206390.31845
  18715946.2734  -25452565.99946 -19405325.15861
  17187248.6094  -29782086.62947 -22935914.71963
  18659707.6944  -18663545.00046 -12885547.76861
  18609583.8354  -27304983.59247 -21073553.28862
  18355913.6164  -23232490.39447 -17927921.79562
 93  9  1  5  1 29.9870000  0  6G18G15G14G22G25G29
  21120123.132    -1315910.062 5
  18726811.4764  -25395478.60346 -19360841.48861
  17170425.7734  -29870483.84347 -23004795.65663
  18641689.0854  -18758237.86746 -12959334.38961
  18618704.6714  -27257055.84147 -21036206.99762
  18341177.1484  -23309930.58247 -17988264.78462
 93  9  1  5  1 59.9870000  0  6G18G15G14G22G25G29
  21099288.2964   -1425387.68844        -0.42871
  18737726.5854  -25338113.97046 -19316141.79462
  17153671.2264  -29958533.06447 -23073405.43163
  18623745.007   -18852542.974 6 -13032818.86821
  18627869.5624  -27208894.09347 -20998678.36162
  18326464.124   -23387253.943 7 -18048516.73522
 93  9  1  5  2 29.9870000  0  6G18G15G14G22G25G29
  21078461.5694   -1534824.20743    -85275.55661
  18748692.788   -25280482.027 6 -19271233.79521
  17136983.5774  -30046231.91847 -23141742.19063
  18605873.0774  -18946462.51246 -13106002.90061
  18637077.3594  -27160503.93447 -20960971.74262
  18311768.8044  -23464467.64047 -18108683.23162
 93  9  1  5  2 59.9870000  0  6G18G15G14G22G25G29
  21057646.1874   -1644206.29243   -170508.25161
  18759714.2104  -25222572.58846 -19226109.56861
  17120362.1324  -30133569.85947 -23209797.72563
  18588077.4844  -19039977.10846 -13178871.40161
  18646333.2654  -27111862.14247 -20923069.06162
  18297099.7804  -23541563.85447 -18168758.18762
 93  9  1  5  3 29.9870000  0  6G18G15G14G22G25G29
  21036843.452    -1753531.546 4   -255696.74321
  18770786.0464  -25164387.33846 -19180770.43161
  17103810.4684  -30220546.86547 -23277572.00463
  18570359.6874  -19133086.26646 -13251423.95261
  18655639.4914  -27062962.06947 -20884965.11462
  18282448.7264  -23618546.93047 -18228744.98062
 93  9  1  5  3 59.9870000  0  6G18G15G14G22G25G29
  21016056.640    -1862789.063 4   -340832.41221
  18781907.9914  -25105938.42146 -19135225.83561
  17087326.7264  -30307168.62747 -23345069.47063
  18552716.835   -19225798.755 6 -13323667.44021
  18664991.6634  -27013814.38047 -20846668.21762
  18267823.3434  -23695425.72547 -18288650.52062
 93  9  1  5  4 29.9870000  0  6G18G15G14G22G25G29
  20995275.8984   -1971986.81844   -425921.60861
  18793081.4764  -25047226.43246 -19089476.25161
  17070912.7344  -30393433.57547 -23412288.90363
  18535150.6404  -19318104.81546 -13395594.20661
  18674391.5544  -26964417.12847 -20808176.86662
  18253211.7654  -23772195.46847 -18348471.09062
 93  9  1  5  4 59.9870000  0  6G18G15G14G22G25G29
  20974507.116    -2081127.951 4
  18804302.1404  -24988263.19146 -19043530.87761
  17054561.0774  -30479358.68947 -23479243.53063
  18517661.2024  -19410003.79246 -13467203.77762
  18683839.3594  -26914764.63847 -20769486.62062
  18238622.5074  -23848869.82747 -18408217.32462
 93  9  1  5  5 29.9870000  0  6G18G15G14G22G25G29
  20953753.554    -2190215.995 5
  18815569.9684  -24929056.14846 -18997395.52561
  17038278.8744  -30564920.21447 -23545914.84063
  18500248.679   -19501501.299 6 -13538500.52021
  18693335.1794  -26864866.82947 -20730605.21962
  18224048.8594  -23925452.75047 -18467892.31862
 93  9  1  5  5 59.9870000  0  6G18G15G14G22G25G29
  20932995.116    -2299248.490 4
  18826886.062   -24869589.814 6 -18951058.15021
  17022071.3354  -30650098.98047 -23612287.89563
  18482918.2264  -19592575.17846 -13609467.15262
  18702879.6244  -26814709.33747 -20691521.47262
  18209496.4054  -24001915.80947 -18527473.90762
 93  9  1  5  6 29.9870000  0  6G18G15G14G22G25G29
  20912258.499    -2408257.565 4
  18838248.1404  -24809879.48246 -18904530.62661
  17005930.3044  -30734913.36147 -23678377.01963
  18465669.5074  -19683228.44146 -13680106.04261
  18712471.2884  -26764302.21747 -20652243.21162
  18194971.2574  -24078258.31647 -18586961.56162
 93  9  1  5  6 59.9870000  0  6G18G15G14G22G25G29
  20891515.968    -2517243.907 4        -0.16631
  18849656.4054  -24749929.46746 -18857816.33661
  16989863.5624  -30819355.90647 -23744176.39763
  18448498.1794  -19773467.53046 -13750422.17861
  18722107.4604  -26713665.78647 -20612786.25462
  18180462.0544  -24154490.03147 -18646362.87962
 93  9  1  5  7 29.9870000  0  6G18G15G14G22G25G29
  20870776.8044   -2626224.58843    -84920.07761
  18861109.3044  -24689743.99846 -18810918.58761
  16973864.5694  -30903427.50547 -23809686.72363
  18431400.687   -19863297.845 6 -13820419.79322
  18731781.3274  -26662826.48147 -20573171.21762
  18165976.827   -24230613.714 7 -18705680.01422
 93  9  1  5  7 59.9870000  0  6G18G15G14G22G25G29
  20850038.3824   -2735203.15643   -169838.38861
  18872605.2344  -24629326.52746 -18763840.05261
  16957934.0304  -30987143.65547 -23874920.07963
  18414389.7264  -19952702.26546 -13890085.56562
  18741494.8744  -26611784.79847 -20533398.48462
  18151509.3194  -24306631.34947 -18764914.51562
 93  9  1  5  8 29.9870000  0  6G18G15G14G22G25G29
  20829302.976    -2844174.040 4   -254750.71821
  18884145.7964  -24568677.16446 -18716580.81461
  16942075.5384  -31070474.57847 -23939853.25763
  18397462.523   -20041665.897 6 -13959407.85622
  18751245.2884  -26560546.18447 -20493472.30062
  18137062.937   -24382554.030 7 -18824075.01822
 93  9  1  5  8 59.9870000  0  6G18G15G14G22G25G29
  20808567.2964   -2953128.77244   -339650.48961
  18895732.0154  -24507796.56046 -18669141.40361
  16926295.9604  -31153399.39247 -24004469.98963
  18380616.140   -20130182.588 6 -14028381.87522
  18761033.0384  -26509116.56147 -20453397.27662
  18122634.9604  -24458382.16647 -18883161.86562
 93  9  1  5  9 29.9870000  0  6G18G15G14G22G25G29
  20787840.6244   -3062062.47844   -424533.86961
  18907357.038   -24446693.001 6 -18621528.26221
  16910592.7184  -31235920.51347 -24068772.15463
  18363860.046   -20218244.027 6 -14097001.15422
  18770859.4444  -26457478.66247 -20413159.95562
  18108226.2494  -24534088.41747 -18942153.73162
 93  9  1  5  9 59.9870000  0  6G18G15G14G22G25G29
  20767111.827    -3170953.181 3   -509383.72421
  18919029.5464  -24385361.94546 -18573737.83861
  16894969.5384  -31318012.94347 -24132740.27763
  18347189.6014  -20305840.00846 -14165257.74862
  18780727.5304  -26405613.71147 -20372745.72062
  18093847.5774  -24609655.97547 -19001037.52962
 93  9  1  5 10 29.9870000  0  5G15G14G22G25G29
  18930743.085   -24323818.334 6 -18525781.80421
  16879425.7574  -31399693.73947 -24196387.64963
  18330601.257   -20393001.239 6 -14233175.57622
  18790636.694   -26353543.092 7 -20332171.22422
  18079493.7804  -24685092.07747 -19059818.89162
 93  9  1  5 10 59.9870000  0  6G18G15G14G22G25G29
  20725697.7574         -0.22753
  18942496.9374  -24262049.77646 -18477650.46661
  16863959.7804  -31480976.31047 -24259724.71363
  18314103.9764  -20479718.14546 -14300747.16162
  18800589.6164  -26301244.15646 -20291418.81862
  18065166.9374  -24760374.82647 -19118480.75762
 93  9  1  5 11 29.9870000  0  6G18G15G14G22G25G29
  20705010.601     -108710.454 3
  18954293.2964  -24200065.31846 -18429350.90761
  16848568.7734  -31561871.21647 -24322759.70163
  18297683.2884  -20566001.41446 -14367980.84962
  18810582.4994  -26248722.89446 -20250493.16962
  18050863.898   -24835527.060 7 -19177040.92022
 93  9  1  5 11 59.9870000  0  6G18G15G14G22G25G29
  20684337.116     -217365.294 3        -0.14131
  18966127.3664  -24137870.04546 -18380887.06861
  16833244.4374  -31642376.81347 -24385491.33563
  18281346.9134  -20651855.88346 -14434880.42762
  18820615.4684  -26196002.84346 -20209412.62062
  18036583.1554  -24910593.53247 -19235534.25662
 93  9  1  5 12 29.9870000  0  6G18G15G14G22G25G29
  20663672.663     -325982.201 3    -84636.62721
  18978000.0934  -24075471.23246 -18332264.63861
  16817998.9764  -31722502.54947 -24447926.96763
  18265089.7574  -20737281.37946 -14501445.72261
  18830683.1874  -26143098.55746 -20168188.50862
  18022310.4994  -24985581.22247 -19293966.20762
 93  9  1  5 12 59.9870000  0  6G18G15G14G22G25G29
  20643000.5624    -434572.14144   -169252.12461
  18989912.4524  -24012864.60146 -18283480.25861
  16802831.0154  -31802221.66047 -24510045.75263
  18248916.515   -20822258.583 6 -14567661.70522
  18840786.8904  -26090006.14346 -20126817.80762
  18008057.1714  -25060481.16247 -19352329.77762
 93  9  1  5 13 29.9870000  0  6G18G15G14G22G25G29
  20622342.3194    -543146.66343   -253855.66961
  19001867.3664  -23950055.93446 -18234538.46261
  16787740.9604  -31881511.11947 -24571829.74163
  18232833.9994  -20906791.92946 -14633531.82262
  18850922.5934  -26036737.38147 -20085309.68662
  17993823.2344  -25135291.46747 -19410623.50162
 93  9  1  5 13 59.9870000  0  6G18G15G14G22G25G29
  20601680.812     -651726.974 4   -338463.59021
  19013855.9134  -23887055.30546 -18185447.07361
  16772733.6634  -31960369.02147 -24633277.45863
  18216829.6324  -20990881.49246 -14699056.12862
  18861091.9374  -25983296.34346 -20043667.32162
  17979609.5304  -25209993.15347 -19468832.59462
 93  9  1  5 14 29.9870000  0  6G18G15G14G22G25G29
  20581016.8354                         -0.13553
  19025882.2964  -23823850.66346 -18136196.72261
  16757814.5384  -32038782.67447 -24694379.00163
  18200918.718   -21074508.253 6 -14764219.80122
  18871298.8904  -25929660.83146 -20001873.41661
  17965420.6094  -25284540.15747 -19526921.15362
 93  9  1  5 14 59.9870000  0  6G18G15G14G22G25G29
  20560371.452                     -108539.197 4
  19037945.6324  -23760459.05146 -18086800.68161
  16742971.6714  -32116764.17247 -24755143.79863
  18185087.788   -21157688.192 6 -14829035.32322
  18881541.4524  -25875837.55746 -19959933.19561
  17951264.0234  -25358947.89047 -19584901.19062
 93  9  1  5 15 29.9870000  0  6G18G15G14G22G25G29
  20539720.952                     -217041.521 3
  19050043.9444  -23696883.90346 -18037261.61861
  16728213.4134  -32194319.41147 -24815576.44463
  18169345.1554  -21240416.20246 -14893498.67962
  18891820.7104  -25821820.36446 -19917841.87561
  17937129.6554  -25433224.61447 -19642779.14162
 93  9  1  5 15 59.9870000  0  6G18G15G14G22G25G29
  20519092.366     -325486.495 4        -0.19931
  19062178.4914  -23633120.05746 -17987575.51661
  16713534.0304  -32271455.19047 -24875682.24363
  18153695.5074  -21322673.11346 -14957594.95162
  18902136.9134  -25767607.42046 -19875598.02161
  17923020.366   -25507372.944 7 -19700557.03822
 93  9  1  5 16 29.9870000  0  6G18G15G14G22G25G29
  20498462.5234    -433866.42544    -84452.09561
  19074345.2964  -23569178.52046 -17937750.96661
  16698934.6404  -32348186.26147 -24935472.67963
  18138129.0934  -21404465.28846 -15021329.10162
  18912488.6944  -25713210.48046 -19833210.79761
  17908925.2574  -25581420.50147 -19758256.41862
 93  9  1  5 16 59.9870000  0  6G18G15G14G22G25G29
  20477854.616     -542180.435 4   -168852.57621
  19086548.3274  -23505051.92346 -17887782.20461
  16684413.6164  -32424502.37147 -24994939.77163
  18122654.5074  -21485778.05546 -15084689.67962
  18922876.9604  -25658621.45946 -19790673.90761
  17894855.5304  -25655372.10747 -19815881.03563
 93  9  1  5 17 29.9870000  0  6G18G15G14G22G25G29
  20457253.2964    -650439.24445   -253210.04061
  19098783.0624  -23440748.89346 -17837675.95161
  16669970.5234  -32500409.16147 -25054087.91463
  18107271.0074  -21566606.14046 -15147672.58162
  18933297.1794  -25603858.79146 -19748001.69961
  17880797.7024  -25729237.57247 -19873438.52762
 93  9  1  5 17 59.9870000  0  6G18G15G14G22G25G29
  20436654.6244    -758649.95844   -337530.01061
  19111054.0544  -23376275.98146 -17787437.33461
  16655601.1244  -32575910.65147 -25112920.23963
  18091984.6714  -21646955.41546 -15210282.39662
  18943748.3594  -25548934.58146 -19705203.62762
  17866757.3904  -25803012.94247 -19930925.81563
 93  9  1  5 18 29.9870000  0  6G18G15G14G22G25G29
  20416072.6164    -866835.94044   -421830.75061
  19123352.1244  -23311639.67946 -17737071.40261
  16641312.5854  -32650999.98647 -25171431.40463
  18076785.0624  -21726835.39546 -15272526.51562
  18954231.6484  -25493846.17046 -19662277.59862
  17852736.9294  -25876695.08947 -19988340.46163
 93  9  1  5 18 59.9870000  0  6G18G15G14G22G25G29
  20395489.241     -974989.626 4   -506106.27221
  19135687.9844  -23246828.01346 -17686568.81361
  16627103.5234  -32725657.54747 -25229606.12163
  18061676.257   -21806227.740 6 -15334390.65222
  18964748.7884  -25438577.43846 -19619211.05962
  17838739.7654  -25950263.96847 -20045666.84763
 93  9  1  5 19 29.9870000  0  6G18G15G14G22G25G29
  20374914.882    -1083116.252 4   -590360.72521
  19148050.3824  -23181854.89346 -17635940.42661
  16612977.2024  -32799884.83147 -25287445.55863
  18046662.8744  -21885138.82847 -15395879.79662
  18975298.3434  -25383141.93946 -19576014.57262
  17824756.9054  -26023726.87247 -20102910.65663
 93  9  1  5 19 59.9870000  0  6G18G15G14G22G25G29
  20354343.351    -1191222.146 5   -674599.04721
  19160444.4444  -23116720.66046 -17585186.50061
  16598933.7264  -32873681.87747 -25344949.74663
  18031735.280   -21963568.803 6 -15456994.04822
  18985881.7804  -25327525.19146 -19532676.84661
  17810803.6244  -26097080.25847 -20160069.13263
 93  9  1  5 20 29.9870000  0  6G18G15G14G22G25G29
  20333772.030    -1299324.512 4   -758834.65921
  19172867.530   -23051431.453 6 -17534311.80821
  16584972.6244  -32947051.73447
  18016903.718   -22041510.193 6 -15517727.58122
  18996501.3824  -25271723.05346 -19489194.66561
  17796863.4524  -26170333.43947
 93  9  1  5 20 59.9870000  0  6G18G15G14G22G25G29
  20313206.7964   -1407408.17945   -843055.61361
  19185320.734   -22985991.963 6 -17483320.02521
  16571092.4214  -33019990.72147 -25458956.63163
  18002169.726   -22118946.069 6 -15578067.21322
  19007153.8124  -25215742.76446 -19445573.66161
  17782942.3594  -26243482.18947 -20274148.53363
 93  9  1  5 21 29.9870000  0  6G18G15G14G22G25G29
  20292639.859    -1515468.171 4   -927258.19021
  19197803.3274  -22920399.92046 -17432209.35361
  16557301.5624  -33092481.71447 -25515443.11463
  17987528.2574  -22195872.71946 -15638010.03562
  19017837.8594  -25159593.94246 -19401821.33261
  17769042.7734  -26316504.91547 -20331049.34463
 93  9  1  5 21 59.9870000  0  6G18G15G14G22G25G29
  20272083.234    -1623494.060 4  -1011434.20721
  19210314.5384  -22854654.40646 -17380979.09661
  16543592.5154  -33164516.70547 -25571574.27063
  17972986.687   -22272292.210 6 -15697557.66522
  19028554.6944  -25103276.29746 -19357937.46961
  17755176.1324  -26389389.91947 -20387842.83863
 93  9  1  5 22 29.9870000  0  6G18G15G14G22G25G29
  20251540.2964   -1731473.58845  -1095574.00161
  19222853.023   -22788763.525 6 -17329635.56921
  16529978.4914  -33236076.15147 -25627334.87363
  17958538.218   -22348209.649 6 -15756714.09322
  19039300.5624  -25046808.52646 -19313936.61761
  17741328.0624  -26462140.64347 -20444531.70463
 93  9  1  5 22 59.9870000  0  6G18G15G14G22G25G29
  20230996.6404   -1839390.46745  -1179665.06561
  19235418.319   -22722729.736 6 -17278180.69021
  16516453.0624  -33307140.79447 -25682709.90663
  17944188.155   -22423632.730 6 -15815485.31422
  19050072.5934  -24990201.96846 -19269827.60761
  17727513.2104  -26534747.74347 -20501108.65663
 93  9  1  5 23 29.9860000  0  6G18G15G14G22G25G29
  20210475.8074   -1947259.90045  -1263719.16961
  19248008.6514  -22656567.63346 -17226625.81861
  16503018.3304  -33377723.68947 -25737709.56363
  17929924.2604  -22498577.91247 -15873884.13862
  19060867.5574  -24933471.97246 -19225622.41261
  17713726.6114  -26607227.65247 -20557586.49463
 93  9  1  5 23 59.9860000  0  6G18G15G14G22G25G29
  20189957.3464   -2055079.13145  -1347734.10361
  19260626.760   -22590265.564 6 -17174961.90021
  16489681.2054  -33447824.47547 -25792333.55263
  17915762.3384  -22573025.73147 -15931895.40162
  19071690.8154  -24876592.38846 -19181300.67861
  17699948.4164  -26679597.22747 -20613978.36563
 93  9  1  5 24 29.9860000  0  6G18G15G14G22G25G29
  20169443.9714   -2162870.61445  -1431727.44561
  19273267.088   -22523837.301 6 -17123199.62521
  16476427.1114  -33517467.19147 -25846600.59963
  17901690.4404  -22646964.07847 -15989509.68162
  19082542.6194  -24819572.71846 -19136869.77561
  17686199.0264  -26751868.59047 -20670293.70163
 93  9  1  5 24 59.9860000  0  6G18G15G14G22G25G29
  20148938.6904   -2270640.47445  -1515703.92961
  19285932.7364  -22457278.39946 -17071335.56361
  16463258.6584  -33586670.66847 -25900525.38263
  17887716.2054  -22720376.87947 -16046714.44962
  19093420.6584  -24762408.30546 -19092326.07661
  17672469.5804  -26824024.18247 -20726518.82363
 93  9  1  5 25 29.9860000  0  6G18G15G14G22G25G29
  20128431.494    -2378390.600 5  -1599665.02521
  19298622.5964  -22390597.24946 -17019376.23261
  16450166.8544  -33655460.22047 -25954127.63263
  17873851.611   -22793254.757 7 -16103502.38322
  19104326.6274  -24705101.28646 -19047671.26361
  17658758.2684  -26896074.06547 -20782661.57563
 93  9  1  5 25 59.9860000  0  6G18G15G14G22G25G29
  20107936.1974   -2486109.76745  -1683601.97161
  19311333.8304  -22323794.42845 -16967322.11061
  16437160.4944  -33723833.03547 -26007405.14163
  17860081.2524  -22865601.17747 -16159876.20662
  19115258.2134  -24647648.73746 -19002903.04661
  17645067.2764  -26968009.20247 -20838714.91863
 93  9  1  5 26 29.9860000  0  6G18G15G14G22G25G29
  20087440.4944   -2593802.85544  -1767518.70461
  19324065.408   -22256883.951 5 -16915184.09921
  16424224.6904  -33791790.80647 -26060359.24563
  17846409.8384  -22937444.46447
  19126213.8074  -24590071.77446 -18958037.89261
  17631405.7604  -27039826.76447
 93  9  1  5 26 59.9860000  0  6G18G15G14G22G25G29
  20066948.401    -2701454.868 4  -1851403.30021
  19336819.9794  -22189871.07945 -16862966.29761
  16411379.1354  -33859312.10647 -26112973.23963
  17832831.5184  -23008803.10447 -16271462.09062
  19137193.1194  -24532373.96346 -18913078.57161
  17617757.1354  -27111525.65047 -20950545.89363
 93  9  1  5 27 29.9860000  0  6G18G15G14G22G25G29
  20046479.424    -2809055.500 4  -1935247.93721
  19349589.690   -22122756.862 5 -16810669.52221
  16398618.0184  -33926369.76347 -26165225.95463
  17819347.3774  -23079678.25747 -16326689.47062
  19148198.1904  -24474543.56246 -18868015.92861
  17604130.7684  -27183121.24147 -21006334.64963
 93  9  1  5 27 59.9860000  0  6G18G15G14G22G25G29
  20026009.182    -2916603.715 4  -2019051.73221
  19362382.799   -22055536.192 5 -16758289.80921
  16385950.2994  -33992936.79847 -26217096.36363
  17805951.9864  -23150064.83646 -16381536.13462
  19159228.5884  -24416576.29746 -18822846.64761
  17590529.2054  -27254605.25047 -21062036.46263
 93  9  1  5 28 29.9860000  0  6G18G15G14G22G25G29
  20005558.369    -3024097.453 5  -2102813.00721
  19375193.963   -21988205.743 5 -16705824.55021
  16373376.8154  -34058999.17147 -26268573.53263
  17792656.5184  -23219934.64147 -16435980.13062
  19170287.5654  -24358471.10046 -18777569.87761
  17576948.6044  -27325975.48347 -21117649.61963
 93  9  1  5 28 59.9860000  0  6G18G15G14G22G25G29
  19985117.4714   -3131540.28345  -2186534.70061
  19388026.338   -21920776.144 5 -16653282.03621
  16360899.8614  -34124575.16647 -26319671.70963
  17779461.877   -23289268.113 7 -16490006.19122
  19181370.7294  -24300227.55746 -18732185.30561
  17563388.4324  -27397243.85447 -21173183.40163
 93  9  1  5 29 29.9860000  0  6G18G15G14G22G25G29
  19964672.5024   -3238949.35344  -2270230.07161
  19400873.8384  -21853254.95845 -16600668.14361
  16348506.6354  -34189684.70348 -26370406.40763
  17766373.283   -23358054.544 7 -16543605.98322
  19192479.2364  -24241846.38346 -18686693.50561
  17549846.7364  -27468417.13347 -21228643.08963
 93  9  1  5 29 59.9860000  0  6G18G15G14G22G25G29
  19944239.033    -3346324.235 4  -2353898.77321
  19413742.6974  -21785639.36645 -16547980.70361
  16336206.1824  -34254334.73447 -26420783.05463
  17753387.049   -23426280.270 7 -16596768.86322
  19203613.1744  -24183338.54946 -18641103.00561
  17536325.4164  -27539476.07147 -21284013.68763
 93  9  1  5 30 29.9860000  0  6G18G15G14G22G25G29
  19923810.9164   -3453680.34844  -2437552.86961
  19426621.494   -21717943.697 5 -16495230.86121
  16323990.1974  -34318548.27147 -26470819.57063
  17740505.619   -23493963.898 7 -16649509.33322
  19214770.1904  -24124713.95746 -18595421.50961
  17522819.2444  -27610422.28547 -21339296.43463
 93  9  1  5 30 59.9860000  0  6G18G15G14G22G25G29
  19903381.0414   -3561012.68444  -2521188.43061
  19439522.1824  -21650159.90045 -16442412.35161
  16311852.9244  -34382307.75548 -26520502.28063
  17727734.994   -23561104.479 7 -16701826.65322
  19225950.5574  -24065954.72546 -18549635.10361
  17509344.5724  -27681244.18047 -21394482.31463
 93  9  1  5 31 29.9860000  0  6G18G15G14G22G25G29
  19882963.6974   -3668323.23544  -2604806.99961
  19452439.994   -21582279.972 5 -16389518.94621
  16299812.3614  -34445580.19147 -26569805.47263
  17715058.7914  -23627710.30747 -16753727.29662
  19237155.9014  -24007069.76846 -18503750.72961
  17495894.3854  -27751931.17947 -21449563.08563
 93  9  1  5 31 59.9860000  0  6G18G15G14G22G25G29
  19862548.658    -3775621.013 5  -2688415.62021
  19465372.4474  -21514318.44645 -16336561.94161
  16287867.0884  -34508353.11047 -26618719.42863
  17702481.7134  -23693800.78747 -16805226.35162
  19248378.2054  -23948091.60646 -18457793.72561
  17482467.7054  -27822491.59747 -21504545.21163
 93  9  1  5 32 29.9860000  0  6G18G15G14G22G25G29
  19842139.260    -3882892.222 5  -2772003.53921
  19478321.549   -21446271.985 5 -16283538.74921
  16276020.3614  -34570609.59847 -26667230.97563
  17690002.0724  -23759374.51147 -16856322.73462
  19259623.7914  -23889003.14146 -18411750.77261
  17469062.6114  -27892927.95847 -21559430.67663
 93  9  1  5 32 59.9860000  0  6G18G15G14G22G25G29
  19821730.518    -3990130.122 5  -2855565.46221
  19491284.291   -21378148.272 5 -16230455.37021
  16264275.0334  -34632343.48648 -26715335.30163
  17677623.9944  -23824426.58147 -16907012.63262
  19270887.0024  -23829816.55146 -18365631.35661
  17455677.1354  -27963261.22547 -21614235.81163
 93  9  1  5 33 29.9860000  0  6G18G15G14G22G25G29
  19801328.0494   -4097328.82045  -2939096.85861
  19504260.291   -21309955.810 5 -16177318.42321
  16252629.3854  -34693558.03148 -26763034.95163
  17665340.7684  -23888964.30047 -16957301.75562
  19282163.3464  -23770553.71846 -18319452.53761
  17442307.9324  -28033506.70747 -21668972.53863
 93  9  1  5 33 59.9860000  0  6G18G15G14G22G25G29
  19780942.322    -4204475.766 5  -3022587.95421
  19517250.6974  -21241693.48945 -16124127.04161
  16241073.9474  -34754269.65248 -26810342.70163
  17653161.7604  -23952975.56747 -17007180.65862
  19293460.1904  -23711193.03246 -18273197.46561
  17428960.5654  -28103657.84847 -21723635.75363
 93  9  1  5 34 29.9860000  0  6G18G15G14G22G25G29
  19760560.111    -4311574.896 5  -3106041.76121
  19530254.588   -21173366.509 5 -16070885.26821
  16229611.9714  -34814490.34148 -26857267.91463
  17641086.1434  -24016449.34247 -17056640.72562
  19304778.0494  -23651714.15546 -18226850.28961
  17415627.8384  -28173721.25247 -21778230.60463
 93  9  1  5 34 59.9860000  0  6G18G15G14G22G25G29
  19740185.3774   -4418638.38445  -3189467.79161
  19543267.307   -21104979.937 5 -16017597.05721
  16218244.6974  -34874221.00348 -26903811.28663
  17629107.815   -24079382.811 7 -17105679.77422
  19316118.8304  -23592116.41946 -18180410.51561
  17402315.5104  -28243687.11147 -21832749.44363
 93  9  1  5 35 29.9860000  0  6G18G15G14G22G25G29
  19719819.5414   -4525669.28545  -3272868.42761
  19556290.846   -21036531.917 5 -15964260.95221
  16206973.3934  -34933462.15948 -26949973.22362
  17617238.2524  -24141762.69347 -17154287.45862
  19327483.174   -23532395.835 6 -18133875.01621
  17389025.7604  -28313524.15647 -21887167.91463
 93  9  1  5 35 59.9860000  0  6G18G15G14G22G25G29
  19699456.776    -4632661.061 5  -3356238.61921
  19569329.588   -20968016.124 5 -15910872.05821
  16195788.9324  -34992225.98348 -26995763.21763
  17605478.5574  -24203559.98947 -17202441.17962
  19338873.5184  -23472538.84146 -18087233.21861
  17375766.5494  -28383198.91247 -21941459.91663
 93  9  1  5 36 29.9860000  0  6G18G15G14G22G25G29
  19679102.5264   -4739611.86545  -3439576.85761
  19582379.869   -20899439.783 5 -15857435.96621
  16184698.4634  -35050507.63348 -27041177.48862
  17593830.8074  -24264778.89947 -17250144.21862
  19350286.3934  -23412571.90746 -18040505.73561
  17362539.8614  -28452713.21147 -21995626.88763
 93  9  1  5 36 59.9860000  0  7G18G15G14G22G25G19G29
  19658762.0884   -4846510.24145  -3522874.26161
  19595440.713   -20830805.658 5 -15803954.86221
  16173704.2604  -35108311.00848 -27086219.07962
  17582284.6744  -24325421.29747 -17297398.02862
  19361711.6744  -23352523.14446 -17993714.51361
  20895274.1824         -0.29152
  17349340.0804  -28522062.13947 -22049664.99663
 93  9  1  5 37 29.9860000  0  6G18G15G14G22G25G29
  19638433.6114   -4953342.66945  -3606120.23861
  19608511.666   -20762111.371 5 -15750426.87021
  16162795.0884  -35165626.42747 -27130880.44562
  17570856.1194  -24385473.18447 -17344191.69062
  19373151.5184  -23292404.30946 -17946868.68461
  17336175.5184  -28591252.55447 -22103579.59463
 93  9  1  5 37 59.9860000  0  6G18G15G14G22G25G29
  19618111.3694   -5060126.61145  -3689328.45861
  19621591.9324  -20693378.91845 -15696869.15461
  16151979.4404  -35222451.55448 -27175159.76762
  17559539.8854  -24444973.24447 -17390555.36062
  19384602.9014  -23232225.90346 -17899976.42361
  17323029.2214  -28660331.56647 -22157407.38263
 93  9  1  5 38 29.9860000  0  6G18G15G14G22G25G29
  19597796.330    -5166870.341 5  -3772505.33121
  19634677.5494  -20624613.83945 -15643285.99961
  16141266.5964  -35278754.20747 -27219031.96262
  17548319.9014  -24503935.80747 -17436500.19062
  19396068.4944  -23171974.32646 -17853027.15261
  17309900.0964  -28729324.11647 -22211167.80163
 93  9  1  5 38 59.9860000  0  6G18G15G14G22G25G29
  19577495.7604   -5273572.65645  -3855649.98561
  19647770.361   -20555803.897 5 -15589667.88621
  16130657.3154  -35334505.82247 -27262474.77962
  17537202.6904  -24562341.02747 -17482010.74162
  19407554.0804  -23111618.65446 -17805996.75961
  17296792.1824  -28798217.00747 -22264850.55963
 93  9  1  5 39 29.9860000  0  6G18G15G14G22G25G29
  19557196.744    -5380248.526 5  -3938774.00021
  19660874.7364  -20486959.05645 -15536022.58061
  16120152.8854  -35389709.27247 -27305490.45662
  17526193.3774  -24620197.82447 -17527093.94262
  19419061.4404  -23051151.31346 -17758879.35061
  17283699.5414  -28867022.15647 -22318464.95063
 93  9  1  5 39 59.9860000  0  6G18G15G14G22G25G29
  19536902.5574   -5486900.35245  -4021879.27061
  19673981.611   -20418080.841 5 -15482351.27021
  16109747.0414  -35444373.88048 -27348086.25062
  17515291.6824  -24677501.65347 -17571746.26763
  19430591.8154  -22990562.11546 -17711666.99661
  17270624.1664  -28935727.76347 -22372001.77163
 93  9  1  5 40 29.9860000  0  6G18G15G14G22G25G29
  19516612.8544   -5593522.63145  -4104961.49261
  19687094.276   -20349167.292 5 -15428652.41421
  16099447.9324  -35498513.32648 -27390272.83362
  17504493.6514  -24734226.99747 -17615947.82563
  19442141.3074  -22929864.45446 -17664370.12461
  17257573.2994  -29004305.68147 -22425439.09863
 93  9  1  5 40 59.9860000  0  6G18G15G14G22G25G29
  19496330.6584   -5700106.84445  -4188014.06161
  19700213.2134  -20280229.21845 -15374934.45461
  16089238.8384  -35552158.78647 -27432074.49362
  17493807.2764  -24790379.03147 -17659702.65063
  19453706.0264  -22869094.27746 -17617016.74861
  17244552.3614  -29072743.68447 -22478767.39963
 93  9  1  5 41 29.9860000  0  6G18G15G14G22G25G29
  19476058.0414   -5806642.60145  -4271028.90461
  19713336.369   -20211265.208 5 -15321196.29321
  16079122.6584  -35605316.52548 -27473496.11062
  17483232.7604  -24845960.92747 -17703013.20763
  19465284.3854  -22808254.20646 -17569608.89661
  17231557.0104  -29141032.39947 -22531979.37763
 93  9  1  5 41 59.9860000  0  6G18G15G14G22G25G29
  19455793.1274   -5913118.78645  -4353997.29361
  19726465.6114  -20142275.64545 -15267438.21861
  16069104.7054  -35657973.45948 -27514527.49362
  17472761.8154  -24900976.60747 -17745882.55663
  19476874.432   -22747343.039 6 -17522145.67221
  17218590.2054  -29209163.06347 -22585068.20063
 93  9  1  5 42 29.9860000  0  6G18G15G14G22G25G29
  19435542.385    -6019531.599 5  -4436916.32721
  19739594.791   -20073262.975 5 -15213662.13721
  16059178.8154  -35710112.10548 -27555155.01162
  17462402.6114  -24955441.19447 -17788322.48163
  19488478.018   -22686367.870 5 -17474632.56921
  17205655.9404  -29277139.65547 -22638036.95963
 93  9  1  5 42 59.9860000  0  6G18G15G14G22G25G29
  19415303.4324   -6125892.41645  -4519794.82461
  19752735.4944  -20004230.74945 -15159870.82161
  16049363.0414  -35761720.34648 -27595369.22762
  17452136.0024  -25009362.40747 -17830339.00863
  19500094.7834  -22625320.90545 -17427063.52461
  17192744.1664  -29344974.40947 -22690895.20163
 93  9  1  5 43 29.9860000  0  6G18G15G14G22G25G29
  19395068.8934   -6232230.56345  -4602655.69661
  19765870.768   -19935188.397 5 -15106071.60321
  16039641.8934  -35812787.86948 -27635162.10662
  17441982.0964  -25062751.11647 -17871940.58163
  19511725.5104  -22564196.70045 -17379434.28961
  17179858.0184  -29412697.61747 -22743666.52463
 93  9  1  5 43 59.9860000  0  6G18G15G14G22G25G29
  19374837.893    -6338546.100 5  -4685498.89821
  19779013.213   -19866133.598 5 -15052262.72421
  16030032.2994  -35863307.37047 -27674527.95162
  17431922.0654  -25115585.31347 -17913110.07363
  19523371.643   -22502993.414 5 -17331743.45121
  17166990.3464  -29480313.61047 -22796354.30363
 93  9  1  5 44 29.9860000  0  6G18G15G14G22G25G29
  19354611.2294   -6444858.24745  -4768339.48561
  19792154.158   -19797074.035 5 -14998450.09521
  16020516.4014  -35913284.35547 -27713471.05862
  17421981.4714  -25167852.51447 -17953837.75163
  19535032.393   -22441723.210 5 -17284000.46321
  17154144.9944  -29547831.44547 -22848965.59763
 93  9  1  5 44 59.9860000  0  6G18G15G14G22G25G29
  19334383.5024   -6551157.88445  -4851170.30961
  19805298.5024  -19728010.81145 -14944634.59261
  16011112.9714  -35962726.28647 -27751997.24262
  17412143.4714  -25219529.70847 -17994105.68662
  19546703.6744  -22380385.01845 -17236204.48561
  17141312.4084  -29615248.24647 -22901498.16563
 93  9  1  5 45 29.9860000  0  6G18G15G14G22G25G29
  19314158.1274   -6657413.01245  -4933966.43961
  19818439.2604  -19658936.42045 -14890810.41761
  16001804.6824  -36011631.22148 -27790104.97962
  17402427.0494  -25270598.14647 -18033899.26962
  19558390.369   -22318963.801 5 -17188343.82021
  17128507.6904  -29682549.72147 -22953940.85963
 93  9  1  5 45 59.9860000  0  6G18G15G14G22G25G29
  19293946.8854   -6763614.50245  -5016720.80361
  19831583.744   -19589871.046 5 -14836993.28821
  15992594.0264  -36060025.15147 -27827814.53962
  17392824.1114  -25321063.16447 -18073222.64862
  19570091.8464  -22257481.96546 -17140435.91261
  17115724.8854  -29749727.21747 -23006286.95363
 93  9  1  5 46 29.9860000  0  7G18G15G14G22G25G19G29
  19273757.760    -6869727.672 5  -5099406.36521
  19844726.635   -19520801.491 5 -14783172.88321
  15983487.9084  -36107890.70648 -27865112.37262
  17383332.8544  -25370918.24647 -18112070.75562
  19581806.4554  -22195926.05446 -17092470.27861
  20429268.3614         -0.99352
  17102971.0494  -29816747.09747 -23058510.22963
 93  9  1  5 46 59.9860000  0  7G18G15G14G22G25G19G29
  19253580.2524   -6975751.84845  -5182022.55461
  19857865.3384  -19451740.96845 -14729359.50961
  15974474.3154  -36155252.20848 -27902017.44062
  17373960.6904  -25420185.64047 -18150460.92362
  19593531.291   -22134300.436 5 -17044450.35221
  20405038.033     -127342.721 2        -0.32831
  17090246.9324  -29883611.53747 -23110612.37863
 93  9  1  5 47 29.9850000  0  6G18G15G14G22G25G29
  19233420.810    -7081701.798 5  -5264580.90921
  19871006.185   -19382688.477 5 -14675552.40021
  15965558.1854  -36202100.44948 -27938522.56262
  17364697.8414  -25468871.07847 -18188397.60662
  19605275.9824  -22072601.06845 -16996372.94361
  17077553.7004  -29950317.19547 -23162590.80263
 93  9  1  5 47 59.9850000  0  6G18G15G14G22G25G29
  19213268.7244   -7187608.20045  -5347105.30761
  19884147.3104  -19313648.91945 -14621755.39261
  15956739.7634  -36248434.62748 -27974627.12062
  17355542.9744  -25516983.74747 -18225887.98262
  19617023.9194  -22010853.20245 -16948257.72761
  17064890.1074  -30016873.37447 -23214452.75263
 93  9  1  5 48 29.9850000  0  6G18G15G14G22G25G29
  19193117.435    -7293488.871 5  -5429609.67821
  19897277.607   -19244625.769 5 -14567971.15521
  15948024.5054  -36294237.94448 -28010318.02162
  17346497.6074  -25564517.93046 -18262927.58863
  19628783.2324  -21949058.25945 -16900105.83661
  17052248.4824  -30083292.23747 -23266207.69763
 93  9  1  5 48 59.9850000  0  6G18G15G14G22G25G29
  19172971.200    -7399379.356 5  -5512121.68821
  19910411.685   -19175632.028 5 -14514209.84121
  15939411.0284  -36339508.04848 -28045593.42962
  17337557.9824  -25611474.59947 -18299517.17963
  19640546.583   -21887232.229 5 -16851929.73221
  17039632.4894  -30149599.81447 -23317875.92463
 93  9  1  5 49 29.9850000  0  6G18G15G14G22G25G29
  19152819.466    -7505264.657 5  -5594629.71821
  19923534.989   -19106658.443 5 -14460464.20921
  15930903.4974  -36384220.41648 -28080434.23962
  17328738.0994  -25657825.16947 -18335634.48663
  19652318.841   -21825373.654 5 -16803728.26521
  17027036.5214  -30215788.88847 -23369451.81463
 93  9  1  5 49 59.9850000  0  7G18G15G14G22G25G19G29
  19132674.6614   -7611128.67545  -5677121.10461
  19936655.403   -19037716.255 5 -14406743.06421
  15922499.6534  -36428382.54647 -28114846.29362
  17320032.2634  -25703570.46347 -18371280.14963
  19664093.552   -21763489.460 5 -16755506.82821
  20260258.927          -0.51312
  17014462.9114  -30281867.61547 -23420941.72163
 93  9  1  5 50 29.9850000  0  7G18G15G14G22G25G19G29
  19112530.4354   -7716963.15245  -5759589.48461
  19949766.9354  -18968808.15445 -14353048.46761
  15914199.5214  -36472004.56247 -28148837.47262
  17311443.5134  -25748715.33147 -18406457.95663
  19675878.982   -21701562.794 5 -16707252.29621
  20236251.7394         -0.27552
  17001906.0444  -30347843.41847 -23472351.42863
 93  9  1  5 50 59.9850000  0  6G18G15G14G22G25G29
  19092405.0604   -7822736.44045  -5842010.19561
  19962875.5134  -18899929.91845 -14299377.12961
  15906000.3574  -36515086.26847 -28182407.63262
  17302968.0054  -25793253.75247 -18441163.20563
  19687670.0684  -21639592.28845 -16658963.61361
  16989371.5604  -30413708.73847 -23523675.04763
 93  9  1  5 51 29.9850000  0  6G18G15G14G22G25G29
  19072294.497    -7928422.607 5  -5924362.96821
  19975976.6774  -18831081.46344 -14245729.00861
  15897901.6074  -36557633.30547 -28215561.17362
  17294606.6224  -25837198.14347 -18475405.58762
  19699476.3024  -21577564.23545 -16610630.07861
  16976860.5674  -30479457.90847 -23574908.15264
 93  9  1  5 51 59.9850000  0  6G18G15G14G22G25G29
  19052198.193    -8034033.758 5  -6006657.33821
  19989068.7244  -18762272.17344 -14192111.41561
  15889907.1464  -36599643.51348 -28248296.39862
  17286354.9434  -25880572.40247 -18509203.70162
  19711290.122   -21515478.560 5 -16562251.65221
  16964370.3574  -30545098.42647 -23626056.60164
 93  9  1  5 52 29.9850000  0  6G18G15G14G22G25G29
  19032114.0524   -8139566.25745  -6088890.42561
  20002159.4354  -18693498.71844 -14138521.70861
  15882019.3254  -36641095.42848 -28280596.59662
  17278209.8884  -25923376.27047 -18542557.36562
  19723115.9434  -21453332.51945 -16513826.19461
  16951902.6304  -30610611.12847 -23677105.44864
 93  9  1  5 52 59.9850000  0  6G18G15G14G22G25G29
  19012043.364    -8245034.623 5  -6171073.52621
  20015232.7474  -18624770.21044 -14084967.06061
  15874238.2394  -36681987.92148 -28312460.88262
  17270169.1304  -25965625.91847 -18575479.16062
  19734953.708   -21391129.923 5 -16465356.66621
  16939459.6534  -30676004.31147 -23728061.16764
 93  9  1  5 53 29.9850000  0  6G18G15G14G22G25G29
  18991982.380    -8350462.905 5  -6253225.36921
  20028307.903   -18556088.068 4 -14031448.51221
  15866564.7714  -36722321.81148 -28343889.88862
  17262231.4894  -26007327.47647 -18607973.87562
  19746801.9504  -21328864.76245 -16416838.37961
  16927042.2324  -30741261.76047 -23778911.12364
 93  9  1  5 53 59.9850000  0  6G18G15G14G22G25G29
  18971927.4434   -8455857.68245  -6335351.13761
  20041360.849   -18487455.785 3 -13977968.83321
  15858998.0994  -36762091.03048 -28374878.89662
  17254401.0444  -26048462.51647 -18640027.14062
  19758659.8334  -21266555.77145 -16368285.93961
  16914651.9664  -30806369.79747 -23829644.65264
 93  9  1  5 54 29.9850000  0  6G18G15G14G22G25G29
  18951877.614    -8561209.074 5  -6417443.07121
  20054415.6694  -18418878.28544 -13924531.82761
  15851536.7164  -36801299.23948 -28405430.74862
  17246684.0284  -26089018.68847 -18671629.34862
  19770520.4434  -21204214.51545 -16319708.36861
  16902292.2554  -30871321.92147 -23880256.68664
 93  9  1  5 54 59.9850000  0  6G18G15G14G22G25G29
  18931843.825    -8666513.151 5  -6499498.14421
  20067455.9274  -18350355.90144 -13871137.78161
  15844181.5054  -36839950.21848 -28435548.40162
  17239079.4354  -26128982.64447 -18702770.08462
  19782386.8104  -21141851.97545 -16271114.20561
  16889962.7944  -30936115.29047 -23930745.01964
 93  9  1  5 55 29.9850000  0  6G18G15G14G22G25G29
  18911809.7004   -8771763.74845  -6581511.56261
  20080483.1614  -18281896.85244 -13817793.06761
  15836931.6144  -36878033.44548 -28465223.64262
  17231593.9504  -26168337.51047 -18733436.20063
  19794256.4194  -21079491.34645 -16222521.53961
  16877664.2634  -31000737.45547 -23981099.94664
 93  9  1  5 55 59.9850000  0  6G18G15G14G22G25G29
  18891794.974    -8876958.032 5  -6663481.08221
  20093492.4824  -18213513.67544 -13764507.51161
  15829790.6464  -36915557.04148 -28494462.81462
  17224220.6934  -26207090.25647 -18763633.13463
  19806124.8024  -21017139.51445 -16173935.71561
  16865395.2004  -31065213.35147 -24031340.89964
 93  9  1  5 56 29.9850000  0  6G18G15G14G22G25G29
  18871784.3334   -8982099.34445  -6745409.36961
  20106496.8724  -18145199.34644 -13711275.55761
  15822759.9354  -36952518.84348 -28523264.21862
  17216958.7244  -26245233.77647 -18793355.34863
  19817989.802   -20954773.161 5 -16125338.58521
  16853153.8724  -31129543.29147 -24081468.11464
 93  9  1  5 56 59.9850000  0  7G18G15G14G22G25G19G29
  18851780.6464   -9087219.50845  -6827321.12561
  20119480.9194  -18076960.54344 -13658102.45761
  15815832.2004  -36988930.94948 -28551637.28962
  17209813.2004  -26282765.80747 -18822601.07562
  19829857.7944  -20892391.94145 -16076729.87361
  19927045.0754         -0.28452
  16840937.4034  -31193740.96047 -24131492.26464
 93  9  1  5 57 29.9850000  0  7G18G15G14G22G25G19G29
  18831781.880    -9192315.500 5  -6909214.06721
  20132454.7784  -18008785.23744 -13604978.84161
  15809005.2474  -37024790.91748 -28579580.12662
  17202794.6774  -26319675.05547 -18851361.52363
  19841738.7634  -20829964.28745 -16028084.98361
  19903480.068     -123841.459 2
  16828748.1464  -31257796.26247 -24181405.47864
 93  9  1  5 57 59.9850000  0  6G18G15G14G22G25G29
  18811785.052    -9297394.211 5  -6991093.53821
  20145414.075   -17940682.312 4 -13551911.66421
  15802281.7554  -37060130.11548 -28607117.17162
  17195887.4034  -26355970.52047 -18879643.68262
  19853628.177   -20767493.121 5 -15979406.17621
  16816583.3574  -31321722.24147 -24231217.91764
 93  9  1  5 58 29.9850000  0  6G18G15G14G22G25G29
  18791798.443    -9402446.251 6  -7072952.23021
  20158357.0284  -17872650.75544 -13498900.05561
  15795656.6694  -37094950.54948 -28634249.98062
  17189097.2084  -26391642.72747 -18907440.19963
  19865522.568   -20704987.032 5 -15930700.15021
  16804443.1144  -31385511.29847 -24280923.66764
 93  9  1  5 58 59.9850000  0  6G18G15G14G22G25G29
  18771810.2864   -9507464.20945  -7154784.36361
  20171289.7864  -17804700.93044 -13445952.14061
  15789126.6074  -37129258.74048 -28660983.63762
  17182426.1144  -26426716.79647 -18934770.63563
  19877421.6774  -20642460.83545 -15881978.44161
  16792329.5604  -31449174.87747 -24330531.64364
 93  9  1  5 59 29.9850000  0  6G18G15G14G22G25G29
  18751836.5444   -9612426.40045  -7236573.07161
  20184205.7084  -17736842.44745 -13393075.36561
  15782696.2784  -37163051.23348 -28687315.45762
  17175858.2714  -26461216.81947 -18961653.75963
  19889315.950   -20579924.366 5 -15833248.76521
  16780237.7164  -31512716.61447 -24380044.67564
 93  9  1  5 59 59.9850000  0  6G18G15G14G22G25G29
  18731877.7784   -9717314.81545  -7318304.24061
  20197100.1074  -17669071.55345 -13340266.88261
  15776370.6304  -37196300.39448 -28713223.90062
  17169403.114   -26495140.489 7 -18988087.77523
  19901219.083   -20517392.443 5 -15784522.63021
  16768170.0364  -31576132.81647 -24429459.88964
 93  9  1  6  0 29.9850000  0  6G18G15G14G22G25G29
  18711931.7634   -9822139.43246  -7399985.71561
  20209980.630   -17601385.792 5 -13287524.74021
  15770149.5054  -37228976.96548 -28738686.17162
  17163058.7324  -26528494.33347 -19014077.77763
  19913120.0684  -20454870.01145 -15735803.86061
  16756126.5914  -31639419.29847 -24478774.02064
 93  9  1  6  0 59.9850000  0  6G18G15G14G22G25G29
  18691996.1384   -9926905.55546  -7481621.60761
  20222843.7004  -17533786.16745 -13234849.67761
  15764049.6384  -37261052.22448 -28763679.88962
  17156816.5754  -26561278.45247 -19039623.83463
  19925014.9894  -20392353.15745 -15687089.43261
  16744109.4664  -31702569.77147 -24527982.17864
 93  9  1  6  1 29.9850000  0  6G18G15G14G22G25G29
  18672071.6464  -10031611.18946  -7563210.37661
  20235686.075   -17466281.247 4 -13182248.44321
  15758055.9504  -37292527.31948 -28788205.94562
  17150692.8884  -26593478.47847 -19064714.75363
  19936908.8414  -20329850.80345 -15638386.33061
  16732120.7084  -31765576.28647 -24577078.15664
 93  9  1  6  1 59.9850000  0  6G18G15G14G22G25G29
  18652151.825   -10136271.583 6  -7644763.89221
  20248515.864   -17398874.284 4 -13129723.58321
  15752182.6614  -37323412.48348 -28812272.29962
  17144673.2084  -26625091.46547 -19089348.24963
  19948798.122   -20267355.880 5 -15589689.00821
  16720157.8574  -31828436.97947 -24626060.51564
 93  9  1  6  2 29.9850000  0  6G18G15G14G22G25G29
  18632243.7084  -10240898.84746  -7726291.59961
  20261324.9894  -17331563.43044 -13077273.60961
  15746412.9974  -37353710.74448 -28835881.34362
  17138774.6144  -26656110.04947 -19113518.56563
  19960699.638   -20204833.174 5 -15540970.02521
  16708225.1464  -31891150.92247 -24674928.51864
 93  9  1  6  2 59.9850000  0  6G18G15G14G22G25G29
  18612342.0444  -10345480.87746  -7807784.05261
  20274116.864   -17264354.215 4 -13024902.85221
  15740760.7554  -37383434.99048 -28859043.09762
  17132982.6384  -26686520.64647 -19137215.12863
  19972607.443   -20142266.560 5 -15492216.82121
  16696319.9664  -31953718.03647 -24723682.11664
 93  9  1  6  3 29.9850000  0  6G18G15G14G22G25G29
  18592449.458   -10450022.730 6  -7889245.19421
  20286884.3414  -17197245.59144 -12972610.45061
  15735206.8104  -37412606.84048 -28881774.41362
  17127317.8804  -26716316.13347 -19160432.38263
  19984523.489   -20079655.616 5 -15443429.10521
  16684441.5994  -32016135.25547 -24772318.90364
 93  9  1  6  3 59.9850000  0  7G18G15G14G22G25G19G29
  18572559.458   -10554542.140 6  -7970688.85721
  20299636.419   -17130237.131 4 -12920396.13121
  15729763.1304  -37441221.01348 -28904071.17862
  17121761.0364  -26745505.22047 -19183177.12362
  19996438.388   -20017001.479 5 -15394607.72621
  19600516.9194         -0.96153
  16672589.7944  -32078411.46447 -24820845.81464
 93  9  1  6  4 29.9850000  0  6G18G15G14G22G25G29
  18552679.318   -10659020.622 6  -8052100.60821
  20312369.185   -17063331.601 3 -12868262.01121
  15724427.8644  -37469269.73748 -28925927.33462
  17116319.4424  -26774086.46847 -19205448.22463
  20008370.099   -19954315.854 5 -15345761.80621
  16660765.9424  -32140546.43247 -24869262.66964
 93  9  1  6  4 59.9850000  0  6G18G15G14G22G25G29
  18532808.0754  -10763437.73346  -8133464.54861
  20325081.7634  -16996541.61943 -12816217.95161
  15719189.1144  -37496772.01448 -28947357.69162
  17110998.0444  -26802074.67047 -19227257.20463
  20020301.0284  -19891639.96845 -15296923.45361
  16648970.1144  -32202536.92847 -24917566.94464
 93  9  1  6  5 29.9850000  0  7G18G15G14G22G25G19G29
  18512951.3644  -10867787.44746  -8214775.98761
  20337763.9744  -16929870.71743 -12764266.73961
  15714061.3334  -37523729.70848 -28968363.69563
  17105779.4974  -26829487.09447 -19248617.52663
  20032217.5914  -19828987.16545 -15248103.11661
  19531488.169          -0.48213
  16637199.7714  -32264388.59247 -24965763.03864
 93  9  1  6  5 59.9850000  0  7G18G15G14G22G25G19G29
  18493108.482   -10972053.941 6  -8296022.57421
  20350427.247   -16863319.577 3 -12712408.84121
  15709040.3414  -37550131.60048 -28988936.60762
  17100669.7944  -26856325.84847 -19269530.83663
  20044143.0914  -19766351.22245 -15199295.89361
  19508549.185     -120537.134 3        -0.08031
  16625456.8884  -32326101.39747 -25013850.93964
 93  9  1  6  6 29.9850000  0  7G18G15G14G22G25G19G29
  18473287.2944  -11076217.30946  -8377188.80061
  20363069.294   -16796879.261 2 -12660637.30621
  15704120.1924  -37575972.98648 -29009072.75462
  17095679.5524  -26882566.91947 -19289978.42363
  20056059.5134  -19703722.74344 -15150494.48861
  19485653.849     -240871.903 4    -93767.37921
  16613743.1614  -32387661.24047 -25061819.64364
 93  9  1  6  6 59.9850000  0  7G18G15G14G22G25G19G29
  18453480.0284  -11180305.31446  -8458296.30961
  20375692.958   -16730565.827 3 -12608964.62021
  15699304.2554  -37601273.22648 -29028787.23162
  17090802.8414  -26908206.61047 -19309957.39763
  20067972.411   -19641121.836 4 -15101714.61321
  19462785.0444    -361032.84443   -187399.24961
  16602055.3174  -32449073.67847 -25109673.48264
 93  9  1  6  7 29.9850000  0  6G18G14G22G25G19G29
  18433683.888   -11284342.570 6  -8539364.26721
  15694595.9114  -37626013.21748 -29048065.15262
  17086038.1074  -26933230.40347 -19329456.44763
  20079874.794   -19578527.319 3 -15052939.69821
  19439952.1144    -481025.31443   -280899.81261
  16590397.9274  -32510340.58647 -25157413.91864
 93  9  1  6  7 59.9850000  0  6G18G14G22G25G19G29
  18413891.3334  -11388347.06946  -8620406.70661
  15689996.4034  -37650191.56748
  17081393.7004  -26957628.31847
  20091790.7634  -19515946.11244 -15004175.15861
  19417152.919     -600834.299 3   -374257.40821
  16578769.3174  -32571450.22547 -25205031.81464
